GFSNW_850_thetae_009.txt.gz
Theta_e
314 315 316 317 313 314 315 320 320 323 317 317 323 323 326 320 320 321 323 322 322 322 322 323 323 323 321 320 320 319 317 317 315 319 318 318 318 319 318 313 318 313 312 313
313 316 317 318 312 314 316 321 324 320 316 316 316 324 322 321 320 321 322 322 323 322 323 322 323 322 320 320 318 318 318 318 316 320 320 318 318 317 319 317 311 314 309 313
312 315 317 318 313 314 319 325 318 319 323 326 327 326 322 322 322 322 322 322 322 323 322 322 323 322 320 318 315 315 318 318 316 316 317 315 315 315 315 317 312 315 314 316
311 314 317 317 314 315 321 324 322 317 316 320 323 324 322 323 322 321 322 321 322 322 322 322 322 321 319 318 315 318 317 318 317 316 315 315 315 314 314 314 314 313 313 316
309 313 316 319 315 315 321 324 325 316 319 318 323 321 322 323 322 321 321 321 322 321 321 321 321 320 319 319 317 319 318 316 315 316 316 314 314 313 313 313 314 314 315 315
308 310 314 317 318 319 320 322 321 325 323 321 321 322 323 323 321 321 321 320 318 316 319 319 319 318 318 319 318 319 317 311 310 315 314 313 311 315 316 315 315 315 314 315
307 309 312 315 317 318 323 321 322 323 315 321 322 323 322 322 321 320 321 320 317 318 318 318 318 317 316 317 317 317 313 313 308 307 306 309 317 314 314 315 314 313 315 313
307 308 310 314 315 318 319 319 324 321 309 323 323 322 322 320 321 320 320 319 318 317 318 310 310 308 305 311 315 316 316 309 305 309 310 311 314 315 314 313 313 315 314 313
308 307 308 312 315 315 315 318 323 321 320 318 323 321 320 318 319 318 320 319 318 320 314 305 310 312 313 314 315 312 314 308 306 308 305 305 312 314 314 314 310 315 314 312
309 308 308 310 315 315 316 315 318 322 321 320 321 321 320 321 321 316 320 320 320 321 307 312 311 312 315 314 312 308 305 305 305 311 302 308 312 314 313 312 310 315 314 312
308 308 308 309 312 316 317 315 320 321 321 320 321 321 321 320 321 313 320 315 318 311 310 307 308 309 309 312 313 310 307 306 309 309 307 309 312 313 310 311 315 314 312 311
308 308 308 308 309 315 318 317 316 318 320 318 320 321 321 322 322 320 319 315 320 319 311 307 310 308 311 308 310 313 313 311 309 309 308 310 314 314 313 314 314 312 312 310
307 308 308 308 309 311 317 320 316 317 316 316 316 318 319 319 321 321 319 321 320 319 319 314 312 308 309 308 310 314 313 314 309 312 314 315 314 314 314 314 313 310 310 308
308 308 308 308 308 309 313 315 316 319 317 316 320 318 315 317 320 321 320 318 320 320 319 310 308 306 314 306 309 308 312 314 313 310 314 314 314 314 313 312 311 311 310 307
309 309 308 308 308 309 311 313 316 319 319 314 321 319 318 316 315 317 319 319 318 320 316 306 306 311 311 313 307 307 315 312 309 308 314 314 313 313 312 312 310 309 308 304
310 310 310 309 309 309 311 316 312 315 318 318 309 319 318 317 316 319 318 318 318 318 317 312 315 317 314 308 307 313 315 315 314 313 314 314 313 311 310 309 307 304 304 302
311 311 311 311 310 311 316 317 319 314 316 317 314 317 316 317 318 320 319 319 319 319 319 316 315 316 317 303 310 312 313 312 312 313 313 311 310 309 309 305 304 303 301 298
310 311 311 312 312 313 316 316 315 316 316 316 309 311 314 316 318 318 317 318 318 317 317 316 314 315 313 306 312 314 314 313 313 312 312 310 310 308 306 304 302 299 297 297
310 310 310 311 311 313 314 315 314 315 316 316 311 309 309 314 313 313 313 314 309 313 311 313 313 306 311 311 313 313 313 313 311 310 309 309 307 304 301 299 298 297 297 296
310 310 310 310 311 312 313 314 314 314 315 315 311 312 309 312 310 308 308 309 305 309 306 310 304 309 312 312 312 312 312 312 310 309 307 305 303 301 298 297 297 297 296 295
311 311 311 312 312 312 312 312 309 311 308 312 312 313 309 310 306 305 309 304 304 308 304 307 305 307 306 309 311 311 310 310 309 308 305 303 301 298 297 296 296 294 291 291
310 310 310 312 310 311 308 306 306 306 308 307 309 310 309 309 309 305 304 305 303 308 305 305 306 303 309 309 308 308 306 306 304 302 299 298 298 296 295 294 291 290 290 291
307 306 306 305 301 304 306 307 305 305 302 303 304 303 305 306 306 303 302 306 306 304 306 306 302 307 307 306 305 303 302 300 297 297 297 296 295 294 292 290 289 290 291 291
304 301 302 302 303 301 300 301 300 300 300 301 302 301 303 302 302 300 304 301 301 305 305 300 303 305 305 304 304 303 299 299 297 296 295 294 293 291 289 290 291 291 291 291
300 301 302 301 298 299 299 298 299 299 300 301 301 300 301 300 300 300 300 302 304 304 305 301 301 302 302 303 302 301 300 298 296 294 294 292 290 290 290 291 291 291 291 291
299 299 298 298 300 299 299 300 299 300 300 300 301 300 303 301 301 302 304 304 304 303 300 301 300 302 302 301 300 297 296 295 295 294 293 291 291 291 291 291 291 291 292 292
299 298 298 298 299 299 299 300 300 300 301 300 300 302 300 299 301 302 301 302 301 301 301 299 298 298 296 296 295 294 294 295 294 293 292 291 291 291 291 291 291 292 293 293

GFSNW_850_thetae_012.txt.gz
Theta_e
314 315 314 313 313 315 314 318 316 319 320 312 317 319 323 319 319 321 321 321 322 320 321 322 322 321 320 319 319 316 316 314 313 318 317 317 317 317 315 311 317 310 310 312
314 315 315 314 313 314 316 321 324 323 317 309 310 319 321 320 320 320 321 321 321 321 321 322 322 320 318 316 316 318 315 315 314 318 318 316 317 316 317 312 308 311 307 310
314 316 317 315 313 314 316 322 315 320 320 321 317 322 321 321 321 321 321 320 321 320 321 320 321 320 319 314 313 315 317 316 314 316 317 313 314 314 316 313 310 312 310 313
313 316 318 316 312 314 320 324 318 315 313 315 321 322 320 321 321 321 321 320 321 320 321 321 320 319 318 317 315 316 314 316 316 314 314 314 314 314 313 313 313 313 312 313
312 315 318 316 313 314 319 323 323 315 313 314 320 319 320 320 321 320 321 319 320 319 319 319 320 317 316 316 316 317 315 313 313 315 314 314 313 312 312 312 312 313 313 315
310 313 317 317 313 315 318 322 322 316 319 314 317 319 320 321 320 320 320 318 316 315 318 316 317 317 317 317 315 317 314 309 307 311 310 311 309 313 315 314 313 313 312 313
309 312 315 317 315 314 320 322 324 322 313 316 317 322 321 320 319 319 318 318 316 317 317 317 316 315 314 316 315 314 310 309 302 304 302 305 313 312 312 313 313 313 312 311
308 310 314 316 317 318 322 321 323 322 307 319 321 321 319 319 319 319 319 318 318 316 312 306 308 306 307 309 313 315 311 303 305 302 307 306 311 313 313 312 312 313 312 311
307 309 313 315 316 319 318 318 323 320 317 315 322 318 319 316 315 315 319 316 319 318 307 303 308 308 308 313 315 311 310 303 303 306 302 302 306 313 313 312 311 313 313 311
307 308 310 314 314 314 315 318 322 319 321 320 321 318 318 319 316 314 319 319 319 316 300 309 308 312 311 312 311 307 304 301 303 298 299 305 306 312 313 310 309 314 313 312
308 307 308 312 315 315 315 316 318 320 320 320 321 321 320 320 319 312 318 314 315 307 305 303 308 308 308 309 311 309 307 306 305 302 300 308 309 312 310 309 314 314 313 312
308 308 308 309 313 316 315 317 320 319 318 319 320 321 320 320 319 319 319 314 316 315 307 306 309 307 309 306 310 310 311 307 307 309 309 308 312 313 313 313 314 314 312 311
308 308 308 308 310 314 317 316 317 317 316 317 318 318 320 321 321 319 318 318 318 317 314 310 305 304 304 309 309 312 310 311 308 310 311 311 313 313 313 314 314 313 312 310
308 308 308 308 309 311 315 317 316 316 315 313 318 318 317 321 321 321 319 318 319 319 316 309 307 303 310 303 306 306 309 312 311 308 311 313 314 314 314 314 313 311 310 309
308 308 308 308 308 310 312 314 316 317 316 313 320 318 318 315 320 321 320 318 319 319 315 304 305 308 307 305 303 305 312 310 308 310 312 311 312 313 313 312 311 311 310 304
308 308 308 308 308 309 310 311 314 316 318 316 307 317 317 317 316 316 317 319 319 319 318 311 312 315 312 308 311 311 315 314 314 313 314 314 314 313 312 311 308 309 307 302
309 309 309 309 309 310 311 313 316 315 317 316 313 312 316 317 319 319 319 319 318 318 318 315 314 316 315 304 308 312 313 313 313 313 313 313 312 311 310 308 305 303 301 299
311 311 311 310 310 313 315 316 317 315 316 316 305 305 313 316 318 318 318 319 318 317 316 316 313 314 310 309 311 315 315 315 314 312 313 312 312 309 306 304 302 300 297 297
310 311 311 311 311 312 315 315 315 316 316 313 308 307 308 314 313 314 314 315 306 312 310 310 312 306 311 311 313 313 313 313 313 313 311 310 309 305 304 302 300 298 297 297
309 309 310 310 311 312 313 313 313 314 315 315 308 310 308 312 310 307 309 309 304 309 307 310 305 308 312 313 313 313 312 312 312 310 308 307 303 302 299 299 297 297 296 295
310 310 311 310 311 311 312 311 308 310 309 312 311 311 308 309 306 305 308 304 303 309 304 308 305 306 305 308 308 310 311 311 310 309 306 303 300 298 299 298 296 295 294 292
310 312 311 311 311 311 307 306 306 305 307 306 308 308 309 309 309 306 305 305 303 307 304 306 307 304 305 307 305 305 306 305 304 305 302 299 299 298 295 295 294 292 290 290
309 309 308 307 303 305 309 311 306 305 301 303 304 305 307 307 308 304 302 306 306 304 305 307 303 305 299 299 300 301 304 305 303 300 299 296 294 294 294 291 289 290 290 291
305 303 302 302 302 301 300 300 301 300 300 301 302 300 303 302 302 301 305 302 301 305 305 301 302 301 302 303 302 301 298 299 298 295 294 294 293 290 290 290 290 290 290 290
300 301 301 299 298 298 298 299 299 299 300 300 301 300 301 300 300 300 300 301 303 303 303 300 300 300 300 298 298 299 299 296 296 294 294 293 291 290 290 290 290 290 290 291
299 298 298 298 299 299 299 299 299 300 300 300 300 300 301 300 300 300 302 303 302 301 299 301 301 300 299 301 299 297 296 295 294 293 293 293 292 291 291 290 290 291 291 292
298 298 299 299 299 299 299 299 298 299 300 299 300 299 299 298 300 301 300 300 299 300 300 300 299 299 297 296 296 294 294 294 294 293 292 291 291 291 291 291 291 292 292 292

GFSNW_850_thetae_015.txt.gz
Theta_e
313 313 314 313 314 315 314 316 310 319 317 312 314 318 321 321 319 321 320 320 320 317 320 321 320 320 318 318 318 315 315 312 313 317 315 315 316 316 312 310 316 309 309 311
313 314 314 313 314 314 315 316 324 324 319 308 308 315 321 319 318 319 320 320 320 319 320 320 320 319 317 314 315 317 314 313 314 317 316 314 317 316 313 309 306 312 307 309
313 314 314 313 313 314 316 318 315 322 320 313 312 318 320 320 320 320 320 319 319 319 320 318 319 319 318 313 313 315 315 314 312 315 315 313 313 314 314 311 309 310 308 310
313 315 314 314 313 314 318 321 314 318 314 316 320 317 319 320 320 320 319 319 320 319 320 320 319 318 317 314 315 315 312 314 314 312 312 312 313 312 313 314 312 312 311 311
314 316 317 315 313 314 319 323 317 314 311 315 317 318 320 319 320 319 320 318 319 318 318 317 319 316 314 313 315 315 312 312 311 315 312 312 312 311 310 310 311 312 311 312
313 316 318 315 313 315 319 321 322 315 313 313 315 316 319 319 318 319 319 317 315 314 316 316 316 315 315 315 315 315 311 307 305 306 309 309 305 309 312 312 311 311 311 311
312 316 318 315 312 314 317 321 323 319 311 310 314 319 319 319 318 318 317 317 315 315 315 315 316 315 314 315 314 313 309 305 300 304 302 304 308 309 311 312 312 312 311 310
312 315 317 314 313 314 319 322 324 320 306 315 318 318 317 318 318 318 318 317 317 316 312 306 309 305 306 308 312 310 309 302 304 303 305 305 309 312 311 312 310 311 310 309
311 315 316 316 314 314 319 321 321 318 318 316 319 318 317 314 313 314 318 315 315 316 303 303 305 306 308 312 314 310 306 301 302 303 300 301 305 311 312 311 310 312 311 309
310 315 316 317 317 317 321 320 321 318 319 320 319 317 316 317 314 312 318 319 317 314 299 300 304 310 308 311 309 307 304 299 301 294 298 304 305 311 312 310 307 313 313 312
309 313 315 316 316 318 317 319 320 319 320 320 321 319 319 318 317 311 317 314 315 305 305 302 303 304 307 308 309 309 309 308 303 302 301 307 307 310 311 310 310 314 313 313
308 309 314 315 314 314 314 316 318 319 318 319 320 320 320 319 318 318 318 316 314 313 304 300 304 306 307 305 309 308 309 306 307 307 308 307 309 311 313 312 312 314 314 314
307 308 310 314 316 315 315 317 319 317 319 318 319 320 320 320 319 319 318 315 316 315 313 309 302 303 302 307 307 310 309 308 306 308 309 309 310 312 312 312 312 313 314 313
308 308 308 310 313 315 316 316 317 315 314 314 318 317 320 321 320 318 318 318 316 316 314 308 302 301 307 303 306 306 308 309 309 307 308 311 313 313 312 312 313 313 312 312
308 308 308 308 310 313 315 316 316 315 314 313 318 317 316 318 320 321 320 319 318 317 314 304 304 306 304 303 301 304 310 309 306 309 310 312 313 314 314 313 313 313 311 309
308 308 308 308 309 310 312 313 316 317 314 314 308 316 317 316 317 319 319 319 319 318 318 312 312 311 310 307 311 311 313 312 312 311 312 312 313 314 313 313 312 311 310 310
308 308 308 308 309 310 310 310 313 316 317 315 310 310 316 317 318 318 319 319 319 318 316 312 312 314 313 304 308 312 313 313 313 313 314 313 313 313 312 311 311 310 305 299
309 309 309 309 309 311 313 315 314 316 315 315 304 303 313 316 318 318 317 318 318 316 314 312 310 311 306 308 310 314 314 314 314 314 313 312 312 312 311 309 307 301 298 299
310 310 310 310 311 312 313 315 316 316 314 312 305 305 306 314 312 313 314 315 306 309 309 308 310 305 309 311 312 314 314 313 313 313 312 312 312 310 305 302 298 300 301 297
311 311 311 311 312 313 314 314 313 314 315 314 305 307 307 311 310 307 308 306 303 307 306 310 305 308 310 311 308 309 310 312 312 312 310 308 303 300 298 300 301 298 296 295
310 310 309 311 313 312 312 309 307 309 309 310 308 308 306 308 307 306 307 304 302 310 303 308 307 305 304 305 306 307 309 310 309 309 308 303 301 299 301 300 299 296 294 293
310 310 310 311 311 310 305 305 305 305 306 306 307 307 308 308 309 306 305 305 303 309 303 306 307 301 298 300 300 301 303 304 302 301 300 300 299 297 297 295 293 292 290 289
311 311 311 309 305 307 309 310 305 305 301 302 305 305 306 307 308 304 302 306 306 303 305 307 303 299 299 301 301 300 300 301 299 297 296 295 293 292 292 291 290 290 290 290
307 305 303 303 302 300 300 301 301 299 300 301 302 301 303 302 303 301 305 302 301 305 304 301 300 299 300 300 299 300 297 296 295 293 292 292 291 290 290 290 290 290 290 291
302 301 300 296 297 297 297 298 299 299 300 300 301 301 301 300 301 299 300 300 302 301 298 300 299 299 299 298 297 296 294 294 294 294 294 293 292 291 291 291 291 291 291 291
298 298 298 298 299 298 298 298 299 299 299 300 300 300 300 300 300 300 301 299 298 297 297 300 299 299 297 298 297 295 296 297 295 294 294 293 291 291 291 290 290 291 291 291
297 297 299 299 299 299 299 299 299 300 300 299 299 296 297 297 299 300 300 299 298 299 299 298 299 299 297 296 295 294 293 292 292 291 291 291 291 291 291 291 291 291 291 291

GFSNW_850_thetae_018.txt.gz
Theta_e
312 313 312 313 313 313 315 318 310 319 316 312 311 315 319 322 317 319 319 318 317 316 318 319 319 318 317 316 317 316 314 312 313 315 314 314 315 314 310 309 313 308 308 309
312 312 313 313 313 314 316 316 323 323 316 308 307 313 318 319 317 318 319 320 319 318 319 319 319 318 316 313 315 315 313 313 314 314 313 312 316 314 310 307 306 312 307 309
312 312 313 313 313 314 317 316 317 323 319 310 311 315 319 319 319 319 319 318 318 318 319 317 318 318 316 313 314 315 313 311 311 313 313 312 313 315 311 310 307 309 308 309
312 313 314 313 313 313 318 317 316 319 315 315 311 313 318 319 319 319 318 318 318 318 319 319 318 317 315 313 314 314 310 313 312 312 311 312 311 311 312 311 310 311 310 308
312 313 314 313 313 314 320 320 314 314 312 317 317 314 317 318 319 318 319 318 318 317 317 316 317 315 312 310 314 314 310 311 310 314 311 310 312 310 309 310 311 310 310 310
313 314 315 313 313 314 320 322 319 317 309 312 315 315 318 318 317 318 317 316 315 316 317 316 315 313 313 313 314 312 309 307 305 305 307 305 306 308 308 308 308 308 310 309
313 315 315 313 313 314 318 321 321 316 308 309 315 316 318 317 316 317 316 316 314 314 316 316 315 314 314 313 311 310 306 304 299 302 301 304 308 309 309 309 310 308 310 310
314 316 317 314 313 314 317 320 322 318 303 309 314 316 316 317 317 317 317 316 315 315 312 307 310 306 307 308 308 306 306 302 302 302 304 305 308 308 310 310 310 309 309 309
314 317 317 315 313 314 316 319 322 319 313 312 316 316 316 313 312 313 316 314 313 314 301 302 306 310 311 311 314 308 304 300 301 297 301 301 305 308 311 310 310 309 310 308
315 316 316 314 312 314 316 319 321 318 319 319 318 316 316 315 313 311 315 314 316 312 298 300 303 306 306 310 309 308 304 300 300 292 298 303 304 310 310 310 309 309 312 311
316 316 316 313 313 314 318 320 320 319 319 320 319 318 318 316 316 311 316 313 314 304 305 302 302 301 306 308 308 309 308 308 302 299 298 307 306 310 310 309 310 312 313 313
316 317 318 316 314 316 317 319 320 319 319 319 320 319 319 318 317 317 317 316 314 313 304 298 299 305 303 304 308 307 309 306 306 305 307 306 308 310 312 311 310 312 313 312
314 317 317 316 317 316 318 318 318 318 319 318 319 320 320 318 318 318 317 313 316 314 311 304 299 302 301 305 305 309 307 306 304 307 308 307 309 310 311 311 312 312 312 313
309 314 318 317 315 315 315 316 317 316 317 316 317 319 320 320 318 318 317 318 315 314 312 308 301 301 305 301 304 305 307 307 307 305 307 310 311 312 312 312 311 311 311 313
308 309 312 317 317 316 317 317 315 314 313 312 317 317 317 320 320 319 319 318 316 314 312 303 303 304 303 303 301 303 308 308 306 307 310 309 310 311 311 313 313 313 312 312
308 308 309 312 314 315 315 315 316 315 313 314 309 315 316 317 319 320 319 317 317 317 316 312 311 309 308 307 308 310 312 311 311 310 311 311 312 312 312 313 313 312 311 311
308 308 308 309 310 311 310 310 315 316 315 313 309 310 315 317 318 318 319 318 318 317 315 311 310 311 309 301 304 313 313 313 313 312 312 312 313 313 312 312 312 311 309 307
308 308 308 308 309 309 311 313 316 316 314 313 303 302 313 315 317 317 316 318 317 315 311 309 306 307 306 308 308 311 312 313 313 313 313 312 312 311 311 310 309 306 298 299
309 308 308 309 309 310 313 315 314 316 313 311 303 304 306 313 311 312 312 313 306 309 309 307 309 304 309 306 303 305 307 309 311 312 312 311 310 307 305 305 300 297 300 299
310 310 310 311 312 312 313 313 314 315 314 314 303 305 306 309 310 307 308 306 305 310 305 309 305 307 305 299 300 301 304 307 309 309 307 304 299 298 298 299 300 299 297 295
311 310 310 312 313 312 311 309 306 308 307 308 306 306 306 307 307 305 306 305 302 309 306 307 306 306 298 299 300 300 302 303 303 303 301 299 299 299 297 296 296 295 295 295
310 311 312 311 311 310 304 303 304 305 306 305 307 307 308 307 308 305 305 304 303 308 303 306 306 299 298 298 298 298 298 299 298 298 298 297 296 296 295 295 294 294 292 290
310 311 310 309 305 307 303 308 306 305 302 303 305 304 306 307 307 304 303 307 306 303 304 306 302 299 299 298 297 297 297 297 296 295 295 294 293 293 292 291 290 290 290 290
309 307 305 303 303 301 300 301 301 299 300 302 303 302 303 303 303 301 306 302 301 305 304 302 299 297 297 298 296 295 294 292 292 292 292 291 291 290 290 290 290 290 290 290
303 301 301 298 297 297 298 299 299 299 300 301 302 301 302 300 301 299 300 298 297 297 295 299 298 297 297 297 295 294 293 293 294 295 294 294 292 291 290 291 290 290 290 290
298 298 298 297 298 298 298 298 299 299 300 301 301 300 300 299 300 299 299 298 295 293 297 298 298 298 298 298 296 296 295 295 295 294 292 291 291 292 291 291 292 292 292 292
297 297 299 299 299 299 299 299 299 300 300 299 299 295 298 297 298 299 298 297 296 298 299 298 298 298 297 296 294 293 292 292 292 293 292 293 293 293 292 292 291 291 291 291

GFSNW_850_thetae_024.txt.gz
Theta_e
305 308 315 313 310 313 312 316 319 317 317 322 321 321 319 321 321 321 320 321 321 320 321 322 320 321 321 319 320 321 319 322 323 322 319 319 320 320 319 318 318 319 320 318
305 309 315 311 311 312 312 316 321 322 321 323 322 319 319 322 320 321 322 321 321 322 323 323 323 322 317 316 319 322 320 322 323 321 320 319 320 319 318 318 319 319 326 317
305 310 315 310 311 312 314 318 323 322 317 316 319 319 320 321 319 321 321 322 322 323 323 322 323 322 318 315 317 313 315 321 322 324 320 320 320 319 317 317 319 317 318 316
304 311 313 310 312 312 316 319 321 321 322 317 319 319 320 319 322 320 321 322 323 323 324 323 323 322 317 317 315 318 320 322 319 317 316 316 317 318 318 317 318 318 316 316
301 311 312 311 312 312 316 319 320 318 319 316 318 316 320 319 321 322 322 323 322 323 324 322 324 322 320 320 318 320 317 321 318 319 316 316 316 317 317 318 318 317 317 317
306 312 309 312 312 312 317 317 317 318 314 317 318 318 318 319 322 320 320 323 323 323 322 320 320 317 317 317 320 320 320 319 318 318 313 314 318 317 317 316 317 317 318 318
308 311 309 312 312 313 318 317 316 318 319 318 316 316 318 321 322 323 319 320 323 317 316 316 316 316 316 316 315 315 317 317 315 320 312 325 315 313 314 316 316 316 316 316
311 309 310 312 312 313 317 318 316 315 319 317 316 316 318 320 319 321 320 318 316 315 316 321 320 321 321 317 313 313 313 315 315 324 316 314 312 312 312 314 314 315 315 315
308 309 311 312 313 314 318 318 316 316 318 318 316 317 319 322 323 321 316 313 313 312 317 322 325 324 321 319 318 312 311 312 318 315 328 329 315 312 312 314 316 312 314 315
308 311 312 312 313 315 319 319 317 317 321 316 318 318 319 320 321 323 316 314 315 312 320 329 326 323 315 318 317 317 318 316 322 318 324 317 313 310 313 315 314 314 313 315
310 312 312 313 313 316 319 319 318 318 320 317 316 317 318 318 320 324 316 318 317 317 325 326 321 325 316 316 315 317 319 321 322 315 323 323 310 313 317 316 314 313 313 314
311 312 314 314 313 316 319 320 320 319 320 319 317 316 317 318 320 320 316 322 319 320 323 319 317 318 312 319 321 313 318 318 319 317 318 312 311 314 314 313 312 313 313 313
313 315 315 314 313 317 318 318 318 319 318 318 320 319 316 317 317 318 319 316 318 316 317 316 318 319 317 319 320 317 314 311 316 314 314 313 312 311 311 311 311 312 312 312
315 316 315 313 313 316 317 318 318 318 319 319 319 318 318 317 317 317 317 318 317 315 313 316 313 322 312 318 316 317 314 312 314 314 313 313 313 312 311 312 312 313 313 313
316 317 315 313 313 315 317 316 316 317 315 318 319 317 318 318 317 317 317 316 316 314 315 315 322 312 314 309 312 316 312 314 316 317 313 312 313 312 312 312 313 313 312 313
315 316 316 314 313 315 317 315 315 317 316 319 321 315 316 316 316 316 315 314 314 315 317 314 311 308 314 315 318 312 311 310 311 312 312 312 313 312 311 311 307 307 307 305
315 314 314 314 314 316 315 316 316 315 314 315 317 318 316 316 316 316 316 316 316 317 313 309 311 312 313 311 320 308 306 306 308 308 311 314 309 308 304 304 303 302 301 299
317 317 318 318 316 315 315 315 313 313 312 312 315 314 316 315 313 312 314 315 315 311 308 307 309 308 310 316 305 304 303 305 309 304 305 306 303 302 302 302 300 299 298 298
313 313 313 313 314 314 314 313 312 311 311 314 308 318 318 310 309 309 310 311 311 309 312 312 313 310 311 302 301 301 300 301 303 302 303 303 302 299 299 299 298 297 297 297
310 309 309 310 313 314 312 311 311 311 311 311 306 307 311 310 309 307 309 308 310 312 311 308 313 303 299 298 299 300 301 302 304 303 299 299 298 297 297 297 297 297 294 294
309 310 312 312 311 310 310 309 310 311 309 306 305 308 309 307 311 309 306 309 308 314 312 312 311 304 299 298 298 298 300 301 301 301 299 298 298 298 297 295 295 295 294 294
311 312 311 310 310 309 308 307 306 309 309 305 307 306 306 306 307 308 306 310 307 314 307 311 311 300 298 297 297 297 298 298 298 297 296 296 296 296 295 294 292 291 290 290
310 310 309 309 306 311 315 311 310 309 303 303 304 305 305 305 306 305 308 311 312 306 310 310 304 297 297 296 297 297 296 295 295 294 292 291 291 290 290 291 291 291 291 291
309 306 306 308 309 304 304 306 305 300 301 303 305 303 305 304 305 305 312 303 303 310 311 308 300 297 296 296 296 296 294 293 294 294 293 292 291 291 291 291 291 291 291 291
302 302 303 301 297 298 298 299 299 300 301 304 304 304 305 304 305 304 304 307 309 307 307 301 298 297 296 296 295 294 293 294 294 294 292 291 291 291 291 291 291 291 291 291
299 298 300 298 299 299 299 299 298 300 301 302 303 302 306 305 306 307 308 308 307 304 301 297 297 296 296 295 294 295 295 294 293 292 292 292 292 292 292 292 290 289 287 287
298 298 298 299 298 298 298 298 299 300 300 301 302 307 304 301 304 304 303 305 303 299 297 297 297 297 296 295 295 295 293 292 292 292 292 292 291 290 288 288 287 286 285 284

GFSNW_850_thetae_027.txt.gz
Theta_e
301 302 303 305 311 315 310 316 320 322 316 320 323 324 322 320 321 323 320 321 320 320 320 320 319 321 321 321 322 321 322 322 323 323 322 321 322 323 323 322 321 321 324 321
300 301 304 306 310 314 311 317 319 323 321 325 329 323 321 321 322 323 322 320 321 320 320 321 320 319 321 321 323 321 323 321 323 323 323 321 320 320 321 320 321 321 326 320
299 300 304 305 309 314 313 318 323 323 322 321 324 323 321 321 321 322 321 320 322 323 323 323 323 323 321 320 321 316 318 321 322 324 323 322 322 321 320 320 321 319 319 318
300 300 303 307 309 312 314 318 320 320 325 326 325 322 321 321 322 322 322 323 323 323 323 324 324 324 321 320 318 319 322 323 322 322 321 320 320 319 320 320 319 320 319 317
300 301 303 305 309 310 313 319 320 319 321 321 322 320 321 320 322 323 323 322 321 322 323 323 323 324 323 323 322 323 321 322 322 323 321 320 319 319 318 319 318 318 318 318
300 301 302 306 310 310 313 319 319 320 322 325 322 324 321 320 323 324 323 322 323 324 324 324 323 323 322 323 324 324 323 322 321 319 317 318 320 320 319 319 318 319 320 319
301 301 302 304 311 311 315 319 319 321 325 324 321 320 320 320 323 324 323 323 324 323 320 320 320 320 320 320 321 322 323 322 321 321 316 323 316 316 316 317 317 317 317 317
302 301 303 305 311 311 316 320 319 320 325 320 319 318 320 319 322 324 323 322 322 320 321 323 322 322 322 319 317 317 318 320 320 325 318 317 316 314 315 315 316 316 315 315
301 302 303 308 310 312 316 322 322 319 325 321 317 318 317 323 325 324 319 319 319 319 324 326 324 324 322 323 322 316 315 317 319 318 325 325 318 315 314 315 316 314 314 314
303 304 309 310 310 312 315 324 318 318 317 316 316 318 319 319 323 325 320 319 319 318 327 329 328 324 321 322 322 320 321 321 323 321 324 321 317 314 314 317 318 315 314 314
306 309 310 310 312 313 314 323 317 318 320 319 319 317 317 318 321 327 321 321 321 322 326 331 327 328 322 321 319 321 321 324 322 323 321 322 313 315 316 318 314 314 315 314
310 308 309 311 312 313 317 323 317 321 321 322 322 320 319 319 321 322 320 322 322 322 325 328 328 323 318 324 322 318 321 321 322 320 320 316 314 314 314 314 314 314 314 314
308 310 311 312 313 313 319 322 319 318 323 321 320 320 317 319 321 322 322 324 323 322 323 323 326 323 324 323 323 322 318 316 318 317 315 315 314 314 313 314 314 314 314 314
310 311 312 313 313 315 319 321 320 321 322 323 322 319 319 317 317 319 323 323 321 321 322 324 317 324 320 325 322 320 318 316 317 317 315 314 314 315 314 314 315 315 315 315
311 312 313 313 313 315 317 318 318 319 320 321 321 319 318 318 318 318 317 319 319 320 322 319 326 319 320 317 318 320 316 317 319 318 315 316 316 315 315 315 314 312 312 312
313 314 314 313 314 316 316 317 316 316 318 322 324 318 318 319 319 319 319 320 321 321 323 322 318 315 320 321 321 316 314 312 312 315 314 315 315 311 309 308 307 306 306 305
316 315 315 313 314 315 319 316 316 316 316 320 322 320 317 317 318 317 319 320 320 322 320 318 319 316 318 317 322 314 310 310 311 310 312 316 310 308 307 306 303 300 299 299
316 315 314 313 313 315 315 315 316 316 315 319 320 319 319 317 319 317 315 319 320 316 313 313 316 314 317 321 311 309 307 310 308 307 308 308 307 306 303 301 299 298 298 297
315 315 314 313 315 316 313 315 315 313 314 319 314 318 318 314 312 312 314 316 317 313 315 316 317 312 317 307 306 306 305 307 307 306 306 304 302 299 299 298 298 298 297 297
315 315 315 315 314 313 313 313 313 314 314 312 310 313 317 314 312 311 312 311 314 315 313 312 316 307 301 301 301 302 303 305 304 302 300 299 298 298 299 299 298 298 298 297
310 312 312 313 313 312 311 311 315 316 315 308 308 313 313 310 314 310 309 312 312 315 315 314 314 309 301 299 300 300 300 301 302 301 299 299 299 299 298 298 297 296 294 292
311 312 311 311 311 311 312 310 310 312 312 306 308 308 308 307 310 310 309 310 310 317 311 316 313 302 299 298 299 300 300 300 299 299 299 298 298 297 296 294 293 291 291 290
310 310 310 312 308 315 310 314 310 308 305 304 306 307 307 307 308 307 310 314 315 310 313 312 306 299 298 298 299 299 298 298 297 296 295 294 293 291 291 291 291 291 291 291
309 308 309 309 309 305 304 306 305 300 302 305 306 305 307 306 307 309 310 305 308 311 313 312 301 298 297 299 298 297 295 294 295 295 294 292 291 291 291 291 291 291 291 291
303 304 305 302 298 298 298 299 299 300 302 304 306 306 308 307 309 309 307 307 312 311 310 304 298 297 297 298 298 296 294 295 296 295 291 291 291 292 291 291 291 291 289 287
299 299 301 299 300 300 299 299 299 300 302 304 305 307 310 307 308 307 312 312 312 306 303 298 297 297 296 297 297 296 296 296 295 294 292 292 292 292 291 290 288 287 287 286
299 299 298 299 298 297 297 298 298 300 301 303 304 310 307 304 308 307 307 308 304 300 298 297 297 296 297 296 296 295 294 294 294 293 292 291 291 290 288 287 286 285 284 284

GFSNW_850_thetae_033.txt.gz
Theta_e
298 300 302 303 304 303 307 313 315 314 310 316 316 317 320 321 321 322 323 321 320 318 318 320 317 318 323 320 321 321 321 322 323 324 321 320 320 321 321 317 319 320 315 318
298 299 301 303 303 303 308 313 314 314 312 313 315 315 319 321 322 321 322 321 321 320 318 321 318 323 322 322 321 321 322 319 318 318 320 321 320 319 319 320 318 320 314 316
298 299 300 302 303 303 309 313 315 317 316 311 314 315 317 321 321 322 321 321 321 320 319 320 320 322 322 322 319 319 322 321 318 317 318 321 322 320 319 318 315 317 316 318
297 298 299 302 302 303 309 313 314 317 318 317 314 315 317 322 323 322 321 321 321 320 320 320 322 323 321 322 319 320 319 319 318 318 320 321 321 321 319 318 318 317 317 318
296 296 298 302 302 304 307 313 315 318 320 318 318 316 318 321 322 322 321 322 320 319 321 321 321 323 322 321 320 320 319 321 320 321 321 318 319 319 318 318 318 317 317 317
296 296 298 301 302 304 307 309 314 317 319 318 319 316 319 321 321 321 321 321 320 322 322 323 323 324 322 321 320 319 320 320 316 319 314 314 312 315 316 318 317 316 316 315
296 297 299 302 302 303 307 308 313 317 318 320 319 317 317 322 321 322 321 321 321 323 323 322 322 321 321 323 322 322 321 320 313 314 311 310 314 315 314 314 314 312 312 311
298 298 299 301 302 303 306 308 311 318 308 318 318 316 319 321 322 321 322 324 323 323 322 320 319 315 313 318 319 319 321 315 315 312 313 315 315 315 316 314 314 313 312 312
301 300 301 301 302 303 305 307 311 313 319 319 318 316 320 321 322 322 323 324 323 323 321 314 320 318 319 320 317 317 317 316 310 313 313 310 315 314 315 314 314 314 314 313
299 301 301 301 301 301 305 305 307 309 319 320 320 317 318 322 322 321 321 322 322 325 310 316 314 315 320 319 318 314 311 311 310 307 309 313 318 314 314 311 312 315 314 315
300 300 300 300 300 301 302 305 306 311 316 320 320 319 320 322 323 319 322 321 319 319 316 315 313 311 315 317 321 316 314 314 309 312 315 316 315 314 312 315 314 314 314 315
298 299 299 299 300 301 302 305 307 310 310 317 322 322 322 321 323 323 321 321 321 323 320 316 313 316 311 315 314 318 317 317 315 315 314 315 314 313 314 314 315 315 316 316
298 299 299 300 301 301 302 305 306 307 312 314 318 321 322 324 323 322 321 323 322 324 323 319 316 314 311 311 313 317 318 318 316 314 316 315 314 316 316 315 316 315 315 315
299 300 300 300 300 301 303 305 307 312 312 315 321 321 321 323 323 322 321 323 324 324 322 317 309 313 320 311 315 316 316 316 316 315 315 316 315 315 315 314 314 312 313 311
300 301 301 302 301 302 305 306 307 309 314 317 320 320 318 322 323 320 323 324 323 324 316 305 311 319 315 313 312 314 316 315 311 311 316 314 311 311 312 312 309 308 309 307
300 300 302 303 303 304 305 307 309 312 313 315 313 320 320 320 321 323 324 324 324 324 322 318 320 319 316 309 308 315 314 315 317 315 315 312 310 310 309 309 307 306 306 304
303 303 304 305 307 308 309 310 315 315 313 319 312 312 320 321 322 322 322 323 324 323 322 321 316 316 316 306 310 312 312 313 312 313 312 309 308 304 305 306 303 303 301 300
303 306 308 309 310 310 310 312 315 318 320 318 311 311 317 320 320 319 321 322 320 318 316 319 313 316 316 309 311 311 311 310 309 311 312 306 304 303 301 300 299 298 297 296
308 308 309 310 309 309 312 316 313 313 315 311 310 313 314 317 314 315 318 318 310 315 308 311 312 305 309 311 309 311 310 309 306 306 306 304 303 301 299 299 298 297 297 297
311 311 313 315 313 314 315 313 313 313 312 311 308 314 312 314 312 310 311 312 308 312 310 314 308 305 305 306 307 307 307 308 307 304 301 301 300 300 299 298 298 297 297 295
314 314 313 313 313 311 311 311 310 313 305 308 310 313 311 313 308 307 310 307 306 310 308 309 309 307 304 304 305 305 306 306 305 305 302 301 300 299 298 297 296 294 291 290
314 313 311 311 311 310 305 304 304 307 308 305 307 309 310 311 312 306 308 307 304 312 309 308 310 303 302 302 302 303 304 304 302 301 300 299 298 298 297 293 291 291 290 290
313 312 310 309 306 307 308 307 308 306 303 305 308 305 308 307 308 307 306 311 310 308 309 309 304 301 302 301 301 301 300 300 299 298 298 298 296 295 292 292 292 291 290 289
309 306 304 304 305 301 301 302 302 300 303 306 306 306 306 306 304 303 307 304 305 309 306 304 301 300 301 301 300 300 299 298 297 297 296 294 292 291 291 292 291 290 288 287
302 301 302 300 298 298 299 299 300 300 304 306 306 305 305 303 305 303 304 307 308 308 307 302 300 300 300 299 298 298 296 296 295 293 291 291 291 291 290 290 288 287 287 287
299 298 300 299 300 299 298 299 300 301 304 305 306 303 305 305 305 307 308 305 306 303 299 299 299 300 299 298 296 296 295 295 295 292 292 292 291 290 289 288 287 287 286 285
298 297 297 298 297 297 297 299 300 301 302 302 302 305 304 302 306 305 302 301 300 298 298 298 299 299 297 296 296 296 296 295 292 292 292 292 291 289 288 287 285 285 284 283

GFSNW_850_thetae_036.txt.gz
Theta_e
299 299 298 301 302 303 304 308 312 313 314 313 312 317 316 317 318 320 321 321 320 317 316 316 315 317 316 318 319 319 319 320 321 321 320 319 317 319 318 315 317 317 313 316
298 298 298 300 303 303 304 309 312 313 315 314 311 314 317 316 317 320 321 321 320 319 316 319 317 319 321 321 318 318 318 319 319 319 316 319 319 317 318 317 314 316 314 316
297 297 297 299 301 303 304 309 312 313 314 314 310 312 315 317 316 317 319 321 321 319 319 318 319 322 321 321 319 320 318 317 317 317 316 317 320 320 318 316 314 316 315 317
297 296 296 297 301 304 304 308 311 312 314 313 311 311 314 316 316 318 320 319 320 321 318 317 321 321 320 320 318 319 317 318 317 316 317 320 320 320 319 317 316 316 315 316
295 295 295 296 300 304 303 308 312 313 314 313 312 312 313 314 314 317 318 320 321 318 318 317 319 321 319 319 319 318 317 317 318 319 317 316 318 316 315 317 317 316 316 316
295 294 295 296 299 301 303 306 310 314 312 314 313 313 313 313 313 316 316 319 319 319 318 319 320 321 320 319 317 318 318 317 313 318 312 313 312 314 315 316 316 316 314 313
294 294 295 299 299 300 304 305 310 313 313 317 316 314 314 313 314 314 320 319 319 320 321 321 321 320 320 320 319 319 316 316 309 311 309 311 315 313 314 312 311 311 311 311
294 295 296 298 299 299 302 305 309 312 311 315 317 316 314 313 315 318 317 319 321 321 321 317 317 313 315 316 316 318 318 312 313 311 311 313 314 313 312 312 314 312 310 311
295 296 297 297 297 298 301 305 307 311 312 313 316 317 315 314 316 317 319 321 322 321 316 312 316 317 317 319 316 314 314 312 312 310 311 310 312 313 313 312 312 313 312 312
295 296 296 296 298 298 301 304 307 308 311 317 317 317 316 315 316 318 321 322 322 322 308 312 312 315 317 316 315 311 309 309 309 304 307 308 311 313 313 310 309 313 313 313
296 296 296 297 298 300 302 304 304 305 310 313 318 317 315 315 317 317 320 320 318 314 315 315 310 308 314 314 316 313 313 311 307 311 309 313 314 313 312 310 313 314 314 314
297 298 298 298 299 301 302 304 304 305 306 310 314 317 320 316 317 321 321 321 320 320 318 314 310 312 306 312 315 315 315 311 311 312 312 312 312 314 314 314 315 315 315 315
299 300 299 300 302 302 303 303 304 304 305 308 313 319 322 321 316 320 320 320 321 322 321 315 312 312 307 310 309 314 315 316 315 314 314 314 314 314 315 315 315 314 315 315
300 301 300 301 301 301 302 302 303 305 308 309 316 320 321 323 320 319 322 321 321 323 324 311 309 311 313 306 312 312 314 314 314 313 314 313 312 311 312 312 312 312 312 312
299 299 299 299 300 300 301 301 302 307 311 311 312 317 320 323 320 322 322 321 321 322 315 305 309 313 313 308 309 313 313 313 311 310 315 312 310 309 310 311 309 309 309 306
298 299 299 300 300 301 301 301 302 304 307 311 311 313 319 322 322 320 321 322 322 320 319 315 317 319 313 307 306 312 314 316 315 314 314 313 309 308 308 310 307 306 306 304
299 300 300 300 300 301 303 305 308 307 307 309 308 311 318 320 323 322 323 323 322 321 319 316 313 316 313 303 309 311 312 314 314 315 312 305 307 304 305 306 304 303 301 300
300 300 301 301 303 302 305 309 311 313 310 310 310 313 314 318 317 316 320 319 317 317 315 317 308 314 308 308 310 311 311 311 310 310 312 310 305 303 303 302 300 299 297 296
301 301 302 302 307 307 305 307 311 310 310 311 306 312 314 316 313 315 316 315 309 314 305 307 310 306 307 308 309 308 309 311 304 307 307 304 304 301 299 299 297 297 296 296
304 304 305 309 308 309 309 308 310 312 311 311 306 311 311 312 309 306 307 311 306 308 308 312 305 305 304 306 308 308 308 308 307 303 300 301 300 299 297 297 297 297 296 294
305 310 310 310 309 310 309 309 307 309 304 307 309 311 310 312 306 306 308 306 305 312 309 309 308 307 304 305 307 307 307 307 307 307 304 302 300 298 298 297 297 296 292 290
311 310 310 310 310 307 305 304 304 305 307 305 306 308 310 311 310 307 307 307 304 310 307 309 309 304 304 304 305 306 305 305 303 303 301 299 299 298 297 296 294 291 290 290
312 311 308 307 303 305 306 307 306 305 302 305 307 305 308 308 309 304 302 302 307 304 307 309 304 302 303 303 303 302 302 302 301 300 299 299 297 297 296 291 290 290 290 288
309 304 302 302 302 300 300 302 302 300 302 306 307 305 304 306 306 302 307 304 304 306 306 305 301 301 302 301 300 300 300 300 299 298 297 297 296 292 292 291 290 289 288 287
300 301 300 299 298 298 299 299 300 301 304 306 306 305 305 302 304 303 304 306 307 303 301 301 300 301 300 300 299 299 298 298 297 297 296 293 291 292 292 290 288 287 287 287
298 297 299 298 299 298 298 299 299 301 304 305 305 302 303 304 304 306 306 305 305 302 299 299 300 300 299 298 298 297 297 296 293 291 292 292 291 290 289 287 287 287 286 286
297 297 296 297 297 297 297 298 299 301 302 302 299 302 304 301 303 302 301 299 298 297 298 299 300 299 297 297 296 295 296 295 294 294 291 291 290 289 287 287 286 285 285 284

GFSNW_850_thetae_042.txt.gz
Theta_e
301 300 298 298 303 301 301 303 303 306 307 313 312 314 311 313 316 317 317 318 320 321 314 313 313 314 314 313 314 315 315 312 312 315 317 316 315 316 314 314 316 313 312 314
302 300 299 297 302 301 300 303 305 307 307 312 312 312 313 311 315 315 317 318 319 319 316 315 313 313 314 314 313 314 315 314 314 314 314 316 318 316 315 312 310 315 313 315
303 300 299 297 302 300 300 303 304 309 309 310 309 311 312 312 313 314 315 317 318 319 318 314 314 314 317 317 314 315 315 314 313 314 314 314 318 316 315 315 313 314 313 314
303 300 299 297 300 300 301 304 304 308 310 309 310 309 310 312 312 314 314 314 317 318 319 317 316 318 319 317 316 315 314 315 314 314 315 315 316 317 314 314 314 315 316 313
302 301 299 296 299 300 301 303 305 308 308 307 309 310 310 311 311 314 314 315 314 316 318 317 317 319 317 317 314 314 313 315 313 316 314 314 318 315 314 314 314 313 313 313
302 300 298 296 297 299 301 303 305 308 308 308 308 309 310 310 312 312 314 314 314 315 315 315 315 316 317 315 316 314 313 313 311 316 311 313 312 312 314 313 313 314 314 312
301 300 298 299 300 299 301 302 304 307 307 310 309 308 309 310 311 313 313 314 314 314 315 317 317 315 315 315 316 313 312 311 308 309 309 312 314 312 312 313 312 311 310 309
300 299 300 299 300 298 301 302 304 307 302 308 310 310 309 310 311 312 313 313 313 313 313 316 317 314 316 315 313 314 311 309 310 312 311 312 314 311 311 311 310 308 308 308
300 299 299 300 298 298 299 302 304 305 308 307 309 310 310 310 310 310 311 312 312 312 313 311 317 319 318 317 316 311 310 308 311 306 311 312 312 312 310 309 310 308 309 308
299 300 299 299 298 298 298 300 301 302 306 309 309 310 310 310 310 309 310 311 314 315 305 310 312 315 316 316 317 314 309 308 309 302 307 310 310 310 310 311 310 310 311 312
299 299 299 298 298 298 298 297 298 299 305 306 310 311 311 311 311 309 310 311 313 310 313 314 312 309 313 313 314 315 316 313 307 304 306 316 310 310 310 309 310 311 312 313
298 299 298 298 298 298 297 297 296 299 301 306 308 311 312 310 311 311 313 312 313 313 314 309 307 309 304 311 315 311 316 314 313 313 314 311 311 310 312 312 311 311 312 312
298 297 297 297 297 295 295 296 297 297 300 304 305 310 312 313 313 312 311 314 318 316 316 311 310 311 307 312 311 313 311 310 311 312 312 311 313 312 312 312 312 312 313 313
297 296 296 296 294 294 295 297 299 298 303 303 305 308 312 314 315 315 313 313 315 319 318 310 307 310 310 308 312 313 311 310 311 310 311 311 312 312 312 312 313 313 313 313
295 294 294 295 295 296 297 297 297 301 302 305 307 309 312 314 316 316 317 314 315 319 313 304 309 311 311 307 310 310 311 311 312 313 312 313 312 312 312 312 313 313 313 311
294 295 295 297 297 298 298 299 298 300 303 304 305 309 311 313 317 317 316 317 316 318 317 308 314 316 315 313 312 311 314 314 313 313 313 313 312 311 311 312 312 312 312 311
296 296 296 296 297 298 299 301 302 302 304 304 304 304 311 314 317 318 318 318 318 319 316 313 312 313 314 304 311 311 312 313 313 313 312 307 308 308 309 310 309 308 308 306
297 297 296 296 297 298 301 302 303 303 303 304 304 306 309 314 315 314 317 317 317 316 313 311 308 310 306 311 309 308 309 310 309 308 311 311 309 307 306 307 306 305 303 302
298 297 297 299 300 300 299 301 303 303 304 302 303 308 310 312 310 311 314 314 307 312 305 308 310 305 312 309 307 307 307 310 307 308 308 307 307 304 303 303 302 303 300 299
298 299 300 300 300 301 302 303 303 304 306 309 305 309 311 310 306 306 307 308 307 312 309 311 307 309 307 306 308 309 307 308 312 307 299 299 299 301 301 301 300 301 299 296
301 302 303 300 301 304 303 302 302 305 305 306 308 309 310 310 306 306 306 305 305 312 310 309 308 309 305 305 306 309 311 308 308 308 307 305 305 302 300 298 299 298 296 296
302 305 303 303 305 303 303 303 301 303 307 304 304 308 310 309 309 305 305 306 304 312 306 310 311 305 303 306 304 305 304 305 306 306 305 303 302 301 300 298 296 296 295 294
305 305 304 304 300 304 305 305 305 305 301 303 305 304 307 306 307 302 302 307 308 303 309 309 304 303 303 303 303 302 303 304 304 302 301 301 299 299 299 296 295 294 292 291
301 300 300 297 297 300 300 301 301 299 300 302 305 303 303 304 303 301 308 304 304 306 306 305 301 301 301 301 302 302 301 302 302 301 300 300 299 297 296 296 292 290 289 288
298 299 300 299 298 298 298 299 299 299 301 303 303 303 304 302 303 302 304 306 305 303 302 300 299 300 300 300 300 300 300 300 300 299 298 297 296 294 293 291 289 289 290 290
297 296 297 297 298 296 296 296 297 300 302 302 302 301 304 304 303 301 300 303 300 299 297 297 298 298 298 298 298 298 298 298 297 296 296 295 294 291 289 288 289 289 287 286
296 295 292 293 294 293 292 293 294 300 301 301 300 296 296 297 297 295 293 294 295 292 295 296 297 298 297 297 297 297 297 296 296 295 293 291 290 291 291 290 286 285 284 284

GFSNW_850_thetae_048.txt.gz
Theta_e
303 300 303 303 303 302 300 301 304 304 303 305 306 308 312 310 312 317 318 320 321 322 318 317 316 317 317 317 318 319 319 320 320 321 321 321 321 321 323 323 321 322 323 322
303 301 302 303 303 302 300 300 302 303 303 305 308 308 310 310 312 316 318 319 320 321 321 318 317 318 318 316 318 319 319 319 320 320 319 320 320 321 321 322 321 322 327 322
302 302 300 303 303 301 300 301 304 304 304 304 308 310 309 310 310 312 316 318 319 321 321 319 317 317 316 315 317 317 318 319 319 320 319 319 320 320 320 321 323 322 323 321
300 302 301 300 303 301 300 301 305 305 306 307 309 311 310 310 310 311 314 317 319 320 321 319 319 316 319 316 315 316 319 319 319 318 318 318 318 318 320 320 321 322 322 321
299 299 301 300 304 301 300 300 305 305 306 305 307 310 310 310 310 311 314 315 317 319 320 318 320 318 318 320 319 319 319 319 320 320 319 318 318 318 318 319 319 321 321 321
300 299 300 300 304 302 300 300 304 304 306 307 307 310 309 309 310 311 310 314 315 317 317 317 316 316 316 317 319 321 320 320 320 319 319 319 320 320 319 320 321 321 321 321
301 300 299 300 303 301 300 301 303 305 307 308 307 306 308 309 310 311 311 311 315 315 314 315 315 313 316 317 319 319 321 321 321 321 318 327 319 319 320 320 321 321 320 320
300 300 299 301 302 301 300 301 303 304 309 308 307 307 307 307 308 311 311 312 312 312 312 313 312 315 314 318 319 321 320 322 322 327 322 320 318 317 319 320 321 320 320 319
300 300 300 300 302 300 301 301 302 305 308 307 306 308 307 309 311 312 311 311 313 313 315 316 317 313 311 317 320 315 318 319 325 319 323 330 320 319 318 318 322 319 318 318
301 300 300 300 301 300 300 301 302 303 305 305 305 308 307 306 309 312 311 313 314 313 316 320 318 316 315 317 321 320 318 319 324 324 326 323 320 317 315 321 323 318 317 317
301 299 300 301 300 299 300 301 302 303 305 305 306 307 307 307 308 313 310 314 314 315 316 318 319 321 318 319 318 321 320 322 324 323 327 326 316 314 320 321 319 318 317 317
300 300 301 300 299 300 300 301 301 303 304 302 303 306 307 307 308 309 310 310 312 313 315 317 316 321 319 317 321 318 321 322 324 322 323 322 315 319 317 319 319 316 317 316
300 302 302 300 300 300 300 300 301 301 302 302 302 303 306 307 308 310 311 310 311 311 312 316 318 323 320 325 321 319 318 316 321 320 320 320 318 317 316 315 316 315 315 315
302 302 300 300 300 300 299 300 300 301 301 302 302 302 304 307 308 310 310 310 313 313 313 316 317 320 316 321 319 320 319 316 319 321 321 317 317 317 317 315 313 313 313 314
300 300 299 301 300 299 299 299 299 299 301 303 302 303 303 307 309 310 311 312 313 317 317 312 316 317 317 316 316 321 317 319 322 322 320 320 321 320 318 316 313 312 313 312
299 299 299 299 299 299 298 298 298 298 297 300 304 304 304 302 308 309 310 311 312 315 316 317 316 316 316 320 320 317 316 316 317 319 316 316 315 313 315 315 313 312 311 311
299 299 299 299 300 300 299 299 298 297 297 301 303 306 306 303 305 312 312 312 312 312 313 315 317 318 316 319 321 318 317 316 315 314 314 314 312 312 311 311 312 310 308 307
299 299 298 298 298 297 298 299 298 297 301 301 305 306 309 309 311 312 313 314 314 314 315 314 316 315 315 319 317 317 316 313 312 312 312 311 311 310 309 307 310 306 304 303
296 296 295 294 296 299 300 300 299 299 302 303 302 307 312 310 310 310 311 313 311 313 316 316 316 317 319 316 317 316 314 313 313 309 308 308 307 306 309 307 305 302 301 300
295 296 297 296 297 298 298 298 300 300 302 302 304 304 308 310 307 309 310 306 310 312 314 314 317 317 311 308 308 309 309 308 309 307 306 304 303 303 303 303 301 302 299 298
297 297 298 298 297 300 301 302 303 301 302 303 306 306 306 307 310 310 308 310 305 312 313 318 315 313 304 303 306 306 306 307 306 307 309 308 307 304 302 300 299 298 298 299
298 300 298 298 300 303 304 304 303 303 307 305 307 307 305 307 308 308 305 310 305 313 306 313 310 304 299 301 302 303 304 304 304 305 307 305 303 301 300 299 297 296 296 295
300 299 302 303 301 303 306 306 307 307 300 301 304 306 307 306 306 304 307 313 312 304 308 307 302 299 298 298 299 301 302 302 301 299 299 300 298 296 298 296 296 296 294 294
299 300 301 304 302 302 302 301 304 299 299 300 302 302 304 303 304 304 311 305 306 310 308 304 299 295 296 296 297 298 297 297 297 295 295 295 295 295 295 295 295 295 293 292
296 297 300 298 296 294 295 294 298 297 298 299 300 302 304 303 306 303 308 308 303 301 299 297 294 293 294 294 294 294 294 294 294 293 294 293 293 294 293 293 293 293 292 291
292 289 292 291 294 292 291 291 293 295 297 299 300 304 303 300 299 298 297 300 296 295 292 291 292 294 293 293 292 292 292 292 292 292 293 293 293 293 292 292 292 290 289 288
292 291 287 287 288 288 288 288 290 293 296 299 297 296 295 297 296 293 292 291 290 288 289 287 290 292 291 291 290 290 291 291 291 291 291 290 290 290 289 287 286 287 286 286

GFSNW_850_thetae_051.txt.gz
Theta_e
305 305 304 304 304 303 302 302 305 303 304 306 306 308 311 310 313 312 314 316 320 316 320 320 318 319 319 318 320 320 320 321 323 323 322 322 323 323 324 326 326 325 325 325
303 303 304 304 304 303 302 303 303 303 304 306 307 307 308 308 311 312 313 316 319 320 320 322 320 318 318 317 319 321 321 320 322 322 322 322 323 324 324 325 324 325 329 325
300 300 301 303 304 303 302 302 304 304 305 305 308 309 309 308 309 312 312 314 316 318 322 321 321 319 319 317 318 319 320 321 321 323 322 321 322 321 321 322 327 324 322 322
299 299 299 302 303 303 303 301 305 304 306 307 309 309 308 307 309 311 312 313 314 317 318 319 320 320 320 318 316 318 321 321 320 319 320 320 320 321 321 321 322 323 322 321
300 300 300 300 303 302 303 300 305 305 307 307 308 308 308 308 308 311 312 314 315 317 318 318 320 320 319 319 319 319 320 321 321 320 319 319 319 319 319 319 320 321 321 321
300 301 301 301 304 302 302 300 303 305 306 308 308 310 308 308 309 309 309 313 315 316 317 319 319 318 317 319 320 320 321 322 321 322 320 320 323 319 319 319 319 320 321 321
300 301 301 301 301 301 302 300 303 306 309 309 309 308 308 308 308 310 310 309 313 313 315 316 316 314 314 317 318 319 322 322 322 325 322 326 320 320 320 320 320 320 320 321
302 302 301 301 304 301 302 302 303 306 310 308 308 308 308 307 308 311 310 309 310 312 315 315 316 316 314 316 318 317 320 323 325 327 325 320 319 320 320 320 320 320 320 321
303 302 301 301 299 301 302 303 302 305 308 308 307 307 307 309 311 311 309 310 312 314 316 315 315 313 311 311 314 317 318 322 326 325 324 325 322 320 320 320 323 320 320 320
300 300 300 300 300 301 302 303 302 304 306 306 306 308 309 307 309 311 311 313 313 313 316 317 315 315 313 313 318 322 322 323 327 327 326 322 320 320 320 323 324 320 320 319
301 301 300 300 301 301 302 302 302 304 306 306 305 307 308 307 308 311 310 312 314 315 317 316 314 318 315 315 315 321 322 322 326 326 328 328 320 320 322 322 321 321 320 319
300 300 300 300 301 302 301 302 302 303 305 305 306 307 308 308 308 308 310 313 313 313 314 316 316 322 322 316 320 315 322 322 324 323 324 322 319 320 320 320 321 322 321 320
300 300 300 300 300 300 302 302 302 302 303 305 306 307 307 307 309 310 311 311 312 312 311 314 317 319 317 323 321 318 318 319 323 322 321 322 322 320 320 321 321 321 321 319
301 300 300 300 300 300 301 302 302 303 304 305 306 303 305 306 307 310 311 312 311 311 312 316 319 319 313 320 317 317 317 317 319 319 319 319 320 321 320 320 319 319 318 318
300 300 301 300 299 300 301 301 302 302 303 306 304 303 303 304 306 308 310 312 313 312 315 319 317 313 313 316 318 318 316 318 321 321 317 321 321 320 320 321 320 318 317 317
301 301 299 299 300 300 300 300 301 302 303 302 305 305 305 304 304 306 309 312 313 313 313 316 313 311 314 323 319 314 313 314 316 318 318 319 320 318 318 319 320 319 316 316
300 299 300 300 300 300 300 301 301 301 301 302 304 306 306 305 304 305 307 311 311 313 314 315 315 315 316 321 320 313 313 316 317 317 316 316 315 316 315 315 317 316 315 315
299 299 299 299 300 299 301 298 299 300 302 302 303 307 306 305 305 304 308 311 311 312 313 313 316 316 318 318 315 314 314 315 317 317 315 314 313 312 311 311 311 312 312 312
299 299 300 300 300 301 301 298 298 302 303 304 304 307 310 305 304 307 309 311 313 311 316 315 315 316 318 315 315 314 313 316 314 314 311 310 310 311 309 308 308 309 308 308
298 298 299 299 299 299 300 300 300 302 303 303 305 306 309 308 310 311 310 308 314 314 315 314 317 317 307 301 304 309 309 310 310 311 312 311 310 309 307 307 307 306 305 304
300 300 300 299 298 300 301 301 303 302 304 304 305 307 310 308 311 311 311 308 310 316 314 317 317 311 300 298 300 303 307 308 308 308 309 309 309 309 306 305 303 302 300 299
300 300 300 298 299 302 305 305 304 306 308 306 308 308 309 308 307 307 308 311 308 315 306 311 306 301 298 297 297 298 300 303 304 303 304 304 304 304 302 300 297 297 297 296
300 301 301 302 302 304 305 305 306 307 304 301 303 309 309 307 305 304 307 312 311 302 308 306 302 298 296 296 295 295 296 298 299 299 300 299 299 299 298 295 294 293 292 291
299 301 303 303 303 300 298 299 302 298 299 299 301 304 305 302 303 302 311 305 307 311 309 303 298 295 295 295 294 293 293 293 293 293 294 294 293 292 291 290 290 291 290 290
296 298 299 298 296 294 294 295 297 295 296 298 300 301 301 304 304 303 307 308 303 300 299 296 293 293 294 293 292 292 291 291 291 290 290 289 289 289 289 289 290 290 290 290
292 289 293 291 295 293 291 291 293 293 294 298 300 303 302 301 301 299 300 300 297 295 293 291 291 292 291 291 291 290 290 289 289 289 289 290 290 289 289 290 290 289 289 288
291 291 287 288 289 288 289 289 290 291 295 300 299 298 297 299 297 294 293 293 292 290 288 288 287 288 289 289 289 288 288 288 288 287 287 287 287 288 289 287 286 286 286 285

GFSNW_850_thetae_054.txt.gz
Theta_e
304 304 304 305 305 304 304 304 304 303 304 305 307 308 310 309 309 308 311 313 313 315 318 321 321 320 321 320 320 320 321 322 323 322 321 321 321 323 324 328 326 328 330 327
302 306 304 305 305 304 304 303 303 304 304 306 307 308 307 308 310 309 311 312 313 315 318 321 322 324 320 320 320 321 320 321 323 321 322 323 322 323 323 325 326 328 331 327
300 301 303 306 305 304 304 303 304 304 305 304 307 308 309 308 307 309 309 312 314 315 318 319 321 322 321 319 319 319 320 322 322 324 324 323 323 322 324 325 328 327 328 326
299 299 299 301 305 303 305 302 303 305 305 305 308 309 308 308 309 307 308 310 313 314 317 319 319 322 322 319 318 319 322 322 323 321 321 322 323 322 322 323 323 328 327 324
298 298 299 300 302 304 305 300 304 305 306 305 307 308 310 308 309 308 308 310 312 314 315 318 318 321 321 321 319 320 321 323 322 323 320 320 321 321 321 321 321 321 322 323
298 298 299 300 300 302 304 301 302 305 306 308 308 308 310 309 309 309 308 309 312 314 315 316 319 315 318 321 321 321 322 323 323 323 321 320 320 321 321 320 321 320 321 322
300 299 299 300 300 300 302 300 302 304 307 308 308 308 308 309 309 310 309 309 311 312 313 316 317 315 313 314 320 320 321 322 322 324 322 323 320 321 320 320 320 320 319 320
301 300 300 300 301 300 300 300 303 304 308 308 308 308 309 308 308 310 310 309 308 310 315 317 317 314 312 315 319 319 319 321 325 325 324 321 320 320 320 321 320 320 320 320
302 301 301 301 301 300 300 301 303 305 307 309 307 308 308 310 310 310 310 308 309 310 312 316 316 317 314 314 316 318 318 318 322 327 324 324 322 321 320 321 321 321 320 322
300 301 300 300 300 301 301 302 303 304 306 307 307 308 309 308 309 311 311 309 312 311 314 315 317 316 313 314 316 316 318 317 322 325 326 324 320 320 319 322 322 322 321 321
302 301 300 300 300 301 301 302 302 304 304 307 307 306 308 308 309 311 311 311 314 313 316 316 316 317 315 313 313 319 318 319 322 324 326 326 321 320 321 321 320 321 321 321
301 300 300 301 301 302 300 303 303 304 305 306 306 306 306 308 309 310 310 312 312 313 314 316 316 321 319 316 317 316 319 317 321 322 323 323 321 320 320 320 321 322 322 321
299 300 301 303 302 301 301 303 304 305 303 304 306 307 306 306 308 309 311 311 312 311 312 314 316 318 316 320 318 317 318 317 320 321 319 317 321 321 320 320 320 321 322 322
302 301 300 300 300 300 301 303 303 303 303 305 306 306 307 306 308 309 311 311 310 313 313 317 317 319 315 319 316 316 316 317 320 320 319 318 316 318 319 321 320 320 320 320
301 300 300 300 300 300 302 303 303 302 303 305 306 305 305 306 307 308 309 312 312 313 313 317 317 315 317 320 318 317 315 315 317 321 319 319 320 320 318 316 317 321 320 319
301 301 302 301 301 302 303 302 302 302 304 304 306 306 305 305 307 307 308 310 311 313 312 314 314 314 315 320 316 314 313 312 312 317 315 316 318 318 317 317 318 320 321 319
300 300 301 301 301 302 303 302 302 303 303 304 306 306 306 305 306 307 307 308 310 312 314 315 315 314 313 318 318 314 313 314 316 317 317 318 318 317 316 316 315 318 319 318
300 300 300 301 301 301 300 301 302 302 302 303 305 305 307 306 307 307 307 309 310 311 311 313 316 315 317 317 315 315 314 315 315 315 317 316 315 314 313 312 313 314 315 315
300 299 300 300 301 301 299 301 301 302 303 304 305 306 309 306 307 306 308 309 310 310 315 315 315 317 314 305 304 306 309 311 312 313 313 312 312 312 312 310 310 311 311 312
300 300 300 301 300 298 299 301 302 303 303 305 305 306 307 304 305 308 311 309 310 312 313 313 316 309 301 298 299 300 301 305 309 311 312 311 311 313 311 309 309 309 308 308
301 301 301 300 300 301 301 301 303 303 303 303 304 305 308 304 305 306 308 309 309 313 314 315 315 303 299 297 297 297 300 302 304 306 307 307 308 310 309 306 305 305 305 304
301 300 299 300 300 300 304 304 304 304 306 306 308 307 307 305 305 302 304 307 306 313 306 310 305 299 297 295 295 294 296 298 300 301 302 304 305 305 304 302 301 301 300 298
302 302 301 301 303 304 305 305 305 304 302 300 301 306 307 307 304 302 305 309 309 305 307 303 299 296 295 294 293 292 292 294 295 295 296 297 297 298 298 296 295 295 294 293
301 302 302 302 300 299 298 298 299 298 297 297 298 303 303 302 303 302 308 304 305 309 305 299 295 295 293 293 292 292 291 290 290 290 290 290 290 289 290 290 290 290 289 289
296 296 298 297 296 294 294 292 296 295 295 296 300 301 304 303 305 302 306 305 300 298 297 294 292 292 291 291 291 290 289 289 288 288 288 288 288 288 287 288 288 288 288 288
291 289 293 291 293 292 291 291 293 293 293 297 299 303 303 301 299 298 298 299 296 294 292 290 289 290 289 289 289 289 288 288 287 287 287 287 287 287 286 287 287 286 286 285
292 291 288 289 290 290 290 290 291 292 293 300 299 297 297 299 296 294 293 293 291 289 287 287 287 287 287 287 287 287 287 287 286 286 286 286 286 287 286 285 284 284 284 283

GFSNW_850_thetae_057.txt.gz
Theta_e
302 303 303 304 304 305 305 305 305 304 303 304 305 305 306 306 307 308 309 309 309 310 311 312 314 318 320 318 317 318 317 318 318 319 320 320 320 319 320 324 326 323 322 323
301 302 303 304 304 305 305 304 303 304 303 305 304 305 306 306 306 308 308 309 309 309 311 312 320 320 319 320 319 318 317 318 320 321 319 320 320 319 320 321 324 324 324 324
302 303 303 303 303 305 305 303 303 303 304 304 303 305 306 307 306 306 307 309 309 308 310 312 319 319 319 319 319 320 318 317 318 320 320 320 321 320 320 321 320 322 323 324
302 303 304 303 303 305 305 302 302 304 305 304 304 304 306 307 308 307 306 307 308 309 309 312 315 319 319 319 319 319 319 318 318 319 320 321 322 322 320 321 322 324 323 323
302 302 302 301 300 302 306 300 302 304 304 305 304 305 306 306 307 307 307 307 307 308 309 309 313 319 320 319 319 319 319 319 317 318 319 320 322 322 321 320 323 323 323 323
300 300 300 300 299 300 306 303 303 304 305 305 305 305 305 307 306 307 307 308 307 307 308 310 318 317 317 317 318 318 319 319 320 319 319 319 319 319 320 320 319 320 319 317
298 298 299 299 299 299 300 303 303 304 307 305 305 305 305 306 307 308 307 308 307 307 309 316 315 313 314 315 315 317 317 320 318 316 317 322 319 317 318 318 319 318 317 317
298 298 298 298 298 299 300 300 302 304 305 305 305 305 305 305 306 307 308 308 307 308 307 310 314 312 314 315 315 316 316 319 318 320 321 319 320 318 318 318 318 317 317 316
301 301 299 299 299 298 299 301 300 302 304 306 306 306 306 306 307 306 306 307 308 309 307 309 311 313 315 315 314 315 311 317 317 316 321 321 319 318 319 319 318 319 319 317
300 300 301 300 300 299 299 301 301 301 300 305 306 306 306 307 307 307 307 308 308 309 307 309 311 315 314 314 313 313 312 312 316 317 320 318 319 318 319 319 317 319 319 320
300 300 300 301 302 301 300 301 300 301 302 304 306 307 306 307 307 308 307 308 309 310 307 308 307 307 312 313 314 315 315 315 315 317 319 320 319 320 318 316 318 318 319 320
301 300 300 300 302 301 300 301 301 300 302 304 306 307 306 306 308 308 308 309 309 310 309 308 309 307 308 310 312 314 317 315 317 317 316 318 316 319 319 319 317 321 321 322
301 300 300 300 300 301 300 301 301 301 302 304 304 303 306 307 308 308 310 309 310 312 311 310 310 309 310 309 310 312 315 315 315 317 316 314 315 316 315 317 317 319 319 321
301 300 301 301 300 300 300 301 301 301 302 303 306 305 304 305 306 306 308 309 310 311 312 310 310 311 311 309 312 312 313 314 315 316 316 315 317 316 315 315 319 317 320 318
300 300 300 300 300 300 300 301 301 302 303 302 303 305 307 307 304 304 305 309 310 311 308 304 309 310 311 311 312 311 312 311 313 315 315 315 318 318 318 316 315 316 316 318
300 300 301 301 300 302 302 302 303 303 304 305 304 306 305 306 305 307 308 309 309 309 308 307 310 313 313 306 311 312 313 313 313 311 313 316 316 317 317 316 316 316 316 317
301 300 301 300 302 301 303 302 303 303 302 304 303 304 305 304 306 307 308 309 309 309 310 310 309 310 312 304 309 309 309 312 314 316 317 317 317 316 315 314 314 315 315 317
300 300 300 301 302 302 302 303 302 303 303 303 300 300 305 306 306 306 307 308 308 308 309 309 311 311 311 306 304 304 304 308 311 311 313 313 313 314 312 312 313 312 313 314
300 301 301 301 301 301 302 303 302 302 303 303 301 302 305 306 306 306 307 307 303 309 306 308 310 308 304 301 300 300 300 302 305 310 311 312 312 312 311 311 310 310 310 312
301 301 301 299 300 300 301 302 301 302 302 303 299 304 303 304 303 305 303 308 301 307 306 309 307 301 298 296 297 297 297 299 303 306 306 308 309 309 309 308 308 308 308 308
300 301 299 300 301 301 301 301 301 302 301 303 304 305 305 303 304 304 306 303 302 305 306 308 306 299 296 295 295 294 295 297 300 302 302 304 306 306 306 306 305 305 304 304
301 300 299 300 301 301 302 302 301 300 303 302 302 304 306 304 303 303 305 306 305 308 306 304 300 296 294 294 293 292 292 294 296 298 299 300 302 301 302 301 300 300 299 297
302 301 300 301 300 300 297 302 304 302 299 298 300 303 302 302 301 300 303 305 307 303 303 297 294 294 293 292 291 290 290 290 291 291 292 294 294 294 295 293 292 293 293 292
300 300 295 296 294 295 294 295 296 297 296 296 297 301 302 300 302 301 307 302 302 302 298 293 292 291 291 291 290 289 288 288 288 288 289 289 289 289 289 289 289 290 289 288
293 294 295 292 293 291 291 291 294 294 294 295 299 301 302 300 301 299 302 300 296 295 292 291 290 290 289 289 288 287 287 286 286 286 286 286 286 286 286 286 287 287 286 286
289 288 290 290 290 289 290 290 292 292 293 296 298 301 298 297 295 294 294 294 292 290 289 288 287 288 288 287 287 286 286 285 285 285 285 286 286 285 285 285 285 285 285 285
291 289 288 288 289 289 289 290 289 292 293 297 296 294 294 295 292 291 291 289 288 286 286 285 285 285 285 286 286 285 285 285 285 285 285 284 284 284 284 283 283 283 282 282

GFSNW_850_thetae_060.txt.gz
Theta_e
298 300 302 303 303 304 304 305 304 303 303 303 303 304 305 306 306 306 308 308 309 308 309 311 312 313 314 317 319 318 316 315 317 316 317 318 318 319 319 321 323 321 319 321
298 299 301 302 303 303 303 305 303 304 303 303 304 303 304 305 305 306 307 308 308 307 307 310 311 314 316 319 319 320 318 316 318 318 317 317 317 318 319 320 320 321 323 324
299 300 301 301 302 303 303 302 302 303 303 303 303 303 303 305 305 305 305 307 307 308 308 307 309 312 315 318 319 318 318 321 319 318 318 317 319 319 319 319 319 320 322 323
299 300 301 301 301 302 303 300 301 304 305 304 304 303 304 304 305 306 306 306 306 307 308 308 307 311 317 318 318 318 319 321 318 318 317 318 319 320 319 319 319 320 319 322
300 300 300 301 301 302 304 299 302 303 303 304 304 304 304 304 305 306 306 306 305 305 307 307 308 308 309 318 318 317 316 319 319 319 318 317 318 319 320 320 318 319 320 321
300 300 300 301 301 302 304 303 303 304 304 305 305 304 303 304 304 305 306 306 306 306 305 306 306 312 316 317 317 316 314 317 317 319 316 318 318 318 319 319 319 319 320 319
300 300 300 301 302 302 302 303 302 304 305 304 305 305 304 304 304 305 305 305 306 307 307 309 314 313 314 314 315 315 313 313 316 317 314 321 318 317 317 318 318 318 317 316
298 299 300 301 301 301 300 301 301 303 305 304 304 304 304 304 303 304 306 306 306 306 306 308 308 308 310 312 315 317 316 315 314 318 319 318 319 318 317 318 318 317 317 315
298 298 297 297 299 300 300 300 300 300 303 306 304 304 304 304 304 304 304 305 306 306 305 305 306 306 310 313 315 315 312 312 314 314 317 320 317 317 317 317 317 316 316 316
299 299 299 298 298 298 299 300 300 300 299 303 304 304 304 304 304 303 304 305 305 305 304 304 307 307 309 311 312 312 310 308 313 315 317 316 316 318 318 320 318 317 318 318
300 300 300 300 300 299 298 299 300 300 300 301 304 305 305 304 304 304 305 306 306 307 307 306 305 304 310 312 312 312 311 311 312 314 318 317 317 319 319 316 318 319 319 319
300 300 300 300 301 301 299 299 299 300 300 301 302 304 306 306 305 305 306 307 307 307 308 305 305 303 302 309 311 311 313 313 313 314 314 314 317 317 317 317 316 317 317 318
300 300 300 300 300 300 300 300 300 300 301 300 301 303 306 306 306 308 307 307 307 308 309 307 306 307 306 307 306 309 310 313 315 315 315 316 315 315 316 316 316 316 319 317
301 300 300 300 300 300 300 300 301 300 300 301 303 302 304 306 305 306 307 308 308 308 309 307 304 305 308 305 308 309 309 313 314 314 314 315 315 316 318 317 315 317 316 319
301 300 301 300 300 300 301 300 301 301 301 300 303 304 304 305 305 305 305 306 307 308 309 306 305 306 307 307 308 310 309 311 313 314 314 313 314 312 314 317 315 315 315 317
301 301 301 300 300 302 300 301 300 301 302 303 302 305 306 306 305 305 305 305 305 307 308 306 307 311 308 305 308 308 306 306 309 310 311 314 314 316 317 317 316 316 316 315
300 300 300 300 300 301 300 301 301 302 301 303 302 302 305 306 305 305 306 307 308 307 309 308 308 309 311 302 308 304 304 303 307 310 314 315 313 312 313 313 313 313 313 314
300 300 301 300 300 301 300 302 302 301 301 303 301 301 303 306 306 306 305 306 307 307 308 309 309 309 309 307 300 300 301 301 305 308 310 310 311 311 311 311 311 312 312 312
300 300 301 300 300 301 301 302 302 302 303 299 297 299 304 305 305 306 306 307 302 307 301 306 308 304 299 298 298 298 297 299 301 306 307 309 308 307 308 309 309 309 308 308
301 301 301 300 301 302 302 302 303 302 303 303 298 302 302 305 304 303 302 303 300 307 305 307 301 298 296 294 295 294 294 295 297 302 302 304 304 304 304 303 303 305 304 302
300 300 301 301 301 300 300 300 300 301 300 302 303 303 302 303 303 304 304 303 303 304 306 303 298 296 294 293 292 292 292 293 295 297 298 299 301 300 300 300 301 301 300 300
300 300 300 301 302 301 300 301 299 299 304 300 302 303 304 302 303 302 304 303 303 305 302 295 293 294 293 291 290 289 290 290 292 294 294 294 296 295 295 295 295 295 294 294
301 301 300 299 296 293 294 300 301 299 298 296 298 302 302 303 302 300 302 304 305 301 297 293 293 291 290 289 288 288 288 289 289 289 290 290 290 291 290 289 289 290 290 288
298 295 291 291 289 292 291 291 291 294 294 294 296 299 301 300 301 301 304 298 298 294 293 290 291 290 288 288 287 287 286 286 286 286 287 287 287 286 286 286 287 288 287 287
290 291 289 289 290 289 290 290 292 292 293 294 297 300 299 298 298 295 298 295 291 291 288 289 288 287 287 286 286 285 285 284 284 285 285 285 285 285 284 285 285 285 285 285
288 288 288 288 286 287 289 290 290 291 293 296 296 297 295 295 292 292 292 291 289 288 287 286 286 286 286 285 285 284 284 284 283 283 283 284 284 283 283 284 284 284 284 283
289 288 287 287 288 287 287 288 288 291 293 292 293 290 291 292 291 290 288 287 286 285 284 283 284 283 283 284 284 284 284 283 283 283 283 282 282 283 283 282 282 282 282 282

GFSNW_850_thetae_063.txt.gz
Theta_e
295 296 298 299 301 302 303 305 305 304 304 303 302 302 302 304 305 305 306 307 308 308 308 308 310 312 312 318 318 320 316 315 316 316 315 316 316 318 319 321 322 319 318 321
295 296 297 299 299 302 304 304 302 304 304 304 303 302 302 304 305 305 305 307 307 307 307 306 308 311 313 317 319 319 319 319 317 317 316 314 315 315 316 318 318 321 322 321
296 297 298 298 299 301 302 301 302 303 303 303 302 303 303 303 303 304 304 305 305 306 307 307 307 308 309 311 318 318 318 319 320 320 317 315 317 316 316 318 319 318 320 319
297 298 299 299 299 300 301 300 300 303 304 304 303 303 303 303 303 304 304 304 304 304 306 307 306 307 310 312 316 317 317 319 318 317 318 318 318 318 317 317 317 318 318 319
296 297 298 299 299 300 301 299 301 303 302 304 303 304 304 303 304 304 305 305 305 304 305 305 306 306 306 309 314 317 316 316 316 315 317 316 319 316 316 316 317 316 318 317
297 297 298 298 299 300 301 300 301 303 304 305 305 304 303 304 304 304 303 305 305 305 305 305 305 306 306 309 315 314 315 315 315 316 315 315 317 317 317 316 318 317 318 317
298 298 298 299 300 300 300 301 302 303 305 304 305 305 304 303 304 303 304 304 305 305 306 307 308 310 309 311 314 313 313 313 312 313 314 317 317 313 315 316 317 317 316 317
299 299 299 300 300 300 299 301 302 303 304 305 304 305 304 303 303 304 303 304 304 305 306 306 306 305 309 310 313 314 312 312 314 313 314 314 312 315 316 317 317 316 316 316
299 300 300 300 300 300 299 300 301 303 304 304 305 304 304 304 303 303 304 304 305 306 304 304 308 305 306 311 314 314 315 313 312 314 315 314 311 313 312 316 317 314 315 317
297 297 298 299 300 300 300 300 300 301 299 302 304 304 304 304 303 302 303 303 304 304 301 305 307 307 306 307 312 313 311 311 315 314 313 313 313 314 317 321 318 318 318 317
298 298 298 298 298 299 299 301 300 300 300 300 303 304 304 304 304 303 303 304 303 302 303 304 304 301 306 308 308 310 310 310 308 310 313 314 314 313 315 314 316 317 317 316
300 299 299 299 299 298 298 299 299 300 300 300 301 302 303 304 304 304 304 305 305 305 303 302 303 302 299 307 308 309 310 309 309 310 312 312 312 312 312 313 315 315 316 317
300 300 300 300 300 299 298 298 299 299 299 300 300 301 302 303 305 304 304 305 306 307 307 303 303 303 303 303 304 307 306 309 310 311 311 311 311 312 314 316 317 315 316 316
300 300 299 299 300 301 299 299 298 299 300 300 300 300 300 302 305 306 305 305 306 307 308 305 304 307 306 303 305 306 305 307 308 309 311 312 314 314 313 315 316 316 316 316
300 300 300 300 299 300 301 299 300 299 300 299 299 301 300 303 305 305 306 307 307 308 306 305 307 305 308 307 307 306 307 309 309 308 310 309 312 313 313 313 315 315 315 315
300 300 301 300 300 300 301 300 299 299 299 301 299 303 303 303 305 304 305 305 305 306 307 305 308 308 308 304 307 306 306 305 306 308 306 308 312 311 313 314 313 314 314 314
301 300 300 300 300 300 300 301 300 299 300 301 301 299 306 303 304 305 304 305 306 306 306 305 306 308 309 303 304 302 302 301 303 306 307 311 310 308 309 311 311 311 311 311
300 300 300 300 301 300 301 302 301 300 302 301 302 303 304 305 305 305 306 306 306 307 306 306 307 308 306 300 298 298 298 299 303 302 306 305 306 308 308 309 311 311 310 309
300 300 300 300 300 301 301 301 300 301 301 300 297 299 305 305 305 305 305 304 303 305 303 304 306 301 297 296 296 295 295 295 297 301 303 304 305 304 304 304 304 305 304 303
299 300 301 299 300 301 301 301 300 300 301 302 296 301 305 305 303 300 302 302 303 306 304 302 298 296 294 293 292 291 292 293 295 297 299 299 300 298 299 300 298 296 294 293
300 300 300 300 300 300 300 299 300 300 297 301 301 302 301 303 304 303 302 303 301 304 305 301 297 295 293 290 289 289 290 291 292 293 293 294 294 293 291 290 291 294 293 289
302 301 300 301 299 299 298 295 296 299 302 299 303 303 302 302 303 302 303 304 302 303 297 295 293 292 290 288 287 287 288 288 289 289 289 289 290 290 290 288 288 288 288 288
300 299 297 295 292 290 291 299 299 297 296 294 298 302 301 302 302 301 302 304 304 297 294 292 291 290 288 287 286 285 285 286 286 285 286 287 287 287 287 286 286 286 286 285
295 292 288 288 286 289 290 290 291 292 293 293 296 299 300 299 300 298 299 295 295 292 290 289 288 288 286 286 285 285 284 284 284 284 284 284 284 284 284 285 285 286 285 285
289 289 287 287 288 288 289 289 291 291 292 294 298 298 296 294 295 293 294 291 288 289 285 285 286 285 285 284 284 283 283 283 283 283 283 283 283 284 283 284 284 284 284 284
287 286 286 286 284 284 286 288 288 290 292 295 294 293 294 293 292 291 291 288 287 285 284 285 284 284 284 284 283 283 283 283 283 284 284 284 284 283 283 283 283 283 283 283
288 287 285 285 286 285 285 286 286 290 292 291 290 288 289 291 291 286 286 285 285 283 282 282 283 283 283 283 283 283 283 283 283 283 282 282 282 282 282 281 281 281 281 281

GFSNW_850_thetae_066.txt.gz
Theta_e
293 294 294 294 296 298 300 302 304 304 304 302 302 303 301 303 303 305 305 306 307 307 307 307 308 311 316 314 317 316 317 314 314 315 314 314 315 316 317 318 318 317 316 319
294 294 294 295 295 297 299 302 302 303 304 304 303 302 302 301 304 304 305 306 305 306 306 305 306 308 311 315 317 318 317 319 318 317 315 314 315 314 315 317 316 319 320 319
294 294 294 294 295 296 299 299 301 302 303 303 304 303 303 302 302 302 303 304 304 305 306 306 306 307 308 308 314 317 317 319 321 322 320 318 318 317 316 315 316 316 318 317
294 295 294 295 296 297 298 300 299 302 303 303 303 303 303 303 304 302 303 303 303 304 304 305 306 306 307 307 308 316 315 316 318 319 317 317 317 315 315 318 315 316 317 316
293 294 296 296 297 298 299 299 300 302 302 304 304 303 303 304 303 304 304 304 305 303 304 304 304 305 305 306 307 315 314 314 316 315 315 315 315 314 315 317 315 315 315 316
295 296 296 297 297 298 300 300 300 302 304 304 305 303 304 303 304 303 303 304 305 304 304 304 304 304 304 305 306 308 313 313 313 313 313 314 312 315 312 312 314 315 316 315
296 296 296 296 297 298 298 299 300 301 304 304 304 304 303 304 304 304 303 303 303 305 305 305 305 305 304 304 304 306 311 312 310 310 310 314 310 314 312 315 312 311 311 313
297 297 297 297 297 298 298 300 300 301 302 305 303 304 304 303 303 304 303 304 304 303 305 306 306 304 307 308 309 310 310 310 309 309 311 310 310 309 313 313 312 311 314 314
298 298 298 298 298 298 298 299 300 302 303 303 304 304 305 304 303 303 303 303 303 304 303 305 308 307 305 308 311 311 310 310 312 311 312 309 307 313 316 316 313 315 315 317
299 298 299 299 299 299 299 300 300 301 300 303 303 304 305 304 303 303 302 303 303 304 301 305 307 308 305 307 311 311 312 311 313 314 315 311 309 313 316 320 311 312 314 315
298 298 299 299 299 299 299 300 300 300 300 302 304 304 304 304 303 303 302 303 303 303 304 305 306 302 304 305 308 310 310 310 311 311 314 312 312 312 315 314 311 311 313 314
298 298 298 298 298 299 301 300 300 300 300 300 303 304 304 304 304 303 303 304 303 302 301 300 301 301 298 305 307 306 308 308 308 309 308 308 312 311 311 311 312 313 314 313
300 298 299 298 299 299 299 298 299 300 299 299 301 301 303 304 303 304 304 304 305 304 304 301 301 302 301 302 304 306 306 307 308 309 308 309 310 310 310 311 312 312 314 315
300 300 299 299 299 299 298 298 299 299 300 300 300 300 301 302 303 304 304 304 304 306 306 303 301 302 303 301 303 303 304 305 307 307 307 309 308 311 311 312 313 313 314 316
300 300 300 300 299 299 299 298 299 300 300 299 299 300 300 301 301 303 304 305 305 305 306 303 303 303 305 303 306 307 306 306 306 307 307 307 307 310 308 310 311 312 314 315
300 300 300 300 300 299 299 299 299 298 299 301 297 301 301 300 300 301 301 304 305 304 305 304 307 308 306 299 303 305 305 304 303 306 306 305 308 308 308 307 308 308 307 308
300 300 300 300 299 300 299 299 299 298 299 299 298 297 303 301 302 303 304 305 305 305 305 305 306 306 307 304 303 300 300 299 301 303 304 307 306 305 305 305 304 307 303 302
299 300 300 300 299 300 300 301 300 299 299 299 301 302 304 302 304 304 304 305 305 305 305 305 304 306 304 303 296 296 295 296 301 301 301 303 302 302 303 302 303 308 303 297
299 299 300 300 300 300 300 301 299 300 301 299 299 301 305 303 304 304 304 304 304 304 304 305 305 299 296 295 293 293 292 293 294 296 299 301 299 299 303 296 298 301 296 292
300 300 300 300 301 300 300 301 301 300 301 301 300 299 305 304 302 300 302 302 302 303 305 300 297 295 292 290 290 289 290 291 292 294 296 294 295 294 293 293 292 291 290 288
300 300 298 300 300 301 300 298 300 299 300 299 300 300 303 303 302 301 300 302 302 306 304 302 296 294 292 288 288 287 288 288 289 290 290 290 290 290 289 289 289 290 289 288
301 299 299 299 299 298 299 298 298 300 301 299 302 302 301 302 303 303 301 304 302 301 296 295 292 291 288 287 286 285 286 286 287 287 286 286 286 286 286 285 285 286 285 285
299 297 293 293 288 287 290 300 297 295 294 294 298 301 301 301 301 301 302 303 299 294 292 291 289 288 286 285 284 284 284 284 284 284 284 284 284 284 284 283 283 283 283 283
292 290 285 283 282 287 288 289 289 291 292 292 296 299 298 297 298 295 297 293 292 290 289 287 287 286 285 284 283 283 283 282 283 282 283 283 283 282 283 283 283 284 283 283
288 288 285 285 287 286 287 287 290 289 291 293 298 295 294 293 293 291 292 289 289 288 284 284 285 284 284 283 283 283 282 282 282 283 283 283 283 283 283 283 283 283 282 282
286 285 285 284 284 284 285 286 287 289 292 294 293 294 293 292 290 289 289 288 286 284 284 283 283 283 283 283 283 282 282 282 282 282 282 282 282 282 281 282 282 282 281 281
287 285 283 284 284 284 284 285 285 289 290 289 290 289 289 291 288 285 284 284 283 282 281 282 282 282 282 282 282 282 282 282 282 281 281 281 281 281 281 281 280 280 280 279

GFSNW_850_thetae_069.txt.gz
Theta_e
294 294 294 293 294 295 296 297 301 301 302 303 300 303 302 301 302 303 305 306 307 307 306 306 308 311 312 309 316 317 317 315 315 314 314 314 316 317 318 321 320 320 320 321
294 293 293 293 294 294 295 299 300 300 303 304 304 303 302 301 303 304 305 306 306 306 306 306 306 308 309 307 310 316 317 318 320 318 316 317 318 316 317 317 318 319 322 320
294 293 294 294 295 295 296 298 300 301 303 303 303 304 303 302 301 302 303 304 304 305 306 306 307 307 307 306 307 308 317 318 319 321 320 318 319 317 316 317 319 318 318 317
293 292 293 293 295 295 295 297 299 301 301 302 303 304 304 303 302 302 302 303 304 304 305 305 306 306 306 306 306 315 316 316 317 316 316 318 317 317 315 314 317 320 319 317
293 293 293 294 295 294 295 297 298 300 301 302 303 304 305 303 303 304 303 303 304 304 305 305 305 305 305 306 307 309 309 315 317 316 316 316 316 315 315 314 316 316 315 317
293 293 293 293 294 295 296 297 298 300 300 302 304 304 304 304 304 303 303 303 304 305 305 304 304 304 304 304 305 305 308 314 315 315 314 315 313 314 314 316 314 315 316 315
295 296 296 295 295 295 296 297 298 299 300 302 304 305 304 304 304 304 303 303 305 304 304 305 304 304 304 304 305 305 307 310 312 314 312 314 310 310 313 314 314 315 313 313
296 297 297 297 297 296 296 297 298 300 300 300 302 304 303 303 303 304 303 303 303 303 303 306 307 306 307 308 306 306 306 309 312 315 314 312 310 310 311 313 313 315 317 317
297 298 298 298 297 297 297 297 297 299 300 301 302 304 304 304 304 304 303 303 303 303 305 307 306 307 306 307 310 309 308 309 312 313 313 313 310 311 315 314 314 315 314 315
298 298 298 298 298 297 297 298 297 299 300 301 301 303 304 304 303 304 303 303 303 303 306 306 306 306 306 308 309 309 310 310 310 313 313 313 311 311 316 315 315 314 313 313
298 298 298 298 298 297 297 297 299 298 299 301 302 303 303 304 303 304 302 303 303 304 305 306 306 306 307 306 308 310 310 311 312 311 313 312 310 313 314 311 311 311 311 312
297 297 298 299 299 299 298 298 299 299 299 300 301 302 303 303 303 303 302 304 303 304 305 304 305 305 304 307 308 307 309 310 312 312 313 310 311 312 310 310 311 311 311 312
298 298 298 298 299 299 299 299 300 299 299 299 301 302 303 304 303 303 303 303 304 303 303 303 304 304 304 307 307 308 307 306 309 309 308 309 308 308 310 310 310 311 312 312
298 299 298 298 298 299 298 298 299 299 299 301 300 300 303 303 303 303 303 304 304 304 303 304 303 305 303 305 305 306 306 306 308 308 308 308 308 308 307 309 310 311 311 311
299 299 299 299 299 299 298 299 299 299 300 300 300 300 302 302 303 303 303 303 304 305 305 303 306 303 306 305 306 307 306 307 309 309 306 306 306 307 306 305 305 305 306 309
300 300 300 299 299 298 298 297 298 299 300 300 300 300 300 300 301 303 303 303 304 305 304 304 305 306 306 307 307 305 304 303 303 305 304 304 306 307 305 305 303 303 303 305
300 300 300 299 299 299 298 299 299 299 299 299 299 300 302 300 301 301 302 302 301 303 304 303 305 306 306 305 306 299 298 297 300 300 301 305 304 303 303 303 301 300 299 297
300 300 300 299 299 298 299 300 299 299 299 299 302 302 303 300 301 302 302 304 303 303 302 303 305 305 305 307 296 294 294 294 297 296 298 298 300 300 300 300 299 297 298 291
300 300 300 299 299 299 300 300 299 299 299 299 300 303 305 301 302 303 302 304 304 304 304 305 306 302 303 293 291 290 290 290 292 292 294 297 296 295 294 293 293 291 295 287
299 299 300 300 300 299 299 300 300 299 300 301 299 299 304 302 303 302 301 301 304 305 303 299 298 294 290 288 288 288 287 288 289 291 292 291 292 291 290 288 288 287 286 285
300 299 300 300 299 300 300 298 299 299 300 299 300 300 302 302 303 303 301 304 302 304 303 301 296 294 290 288 287 286 285 286 287 287 287 287 288 287 286 285 284 283 283 283
300 299 299 300 298 298 300 300 299 300 300 298 302 301 301 301 300 303 301 304 302 303 295 294 292 290 287 286 285 284 284 284 284 285 285 285 285 284 283 282 281 281 282 282
299 298 293 292 287 287 289 300 296 296 293 293 297 301 300 300 302 302 302 302 297 294 292 290 289 286 285 284 284 283 283 283 283 282 283 283 283 283 283 281 281 282 282 282
292 289 285 285 284 287 288 288 289 290 291 292 296 297 297 295 296 294 296 292 292 291 289 288 287 285 284 283 283 282 282 282 281 281 281 281 281 281 281 282 282 283 282 282
287 287 285 285 285 285 285 286 288 288 291 293 297 294 293 292 292 291 292 291 289 288 286 285 284 284 283 283 282 282 281 281 281 281 281 281 281 281 281 281 281 281 281 281
285 283 283 283 283 283 284 284 286 288 291 292 293 293 292 291 289 288 287 289 286 285 284 283 282 282 282 282 282 281 281 281 281 281 281 281 281 281 280 280 281 280 280 280
284 283 282 282 282 282 283 283 284 288 289 289 290 289 289 289 287 285 284 284 283 282 280 281 281 281 281 281 281 281 282 281 281 281 281 280 280 280 281 280 279 279 278 278

GFSNW_850_thetae_075.txt.gz
Theta_e
294 293 294 295 296 294 294 297 301 302 303 304 304 304 305 304 305 305 307 308 310 310 310 310 310 311 313 311 312 317 314 319 318 316 315 316 317 317 320 323 324 324 324 325
293 293 294 295 295 294 296 298 299 301 302 304 304 304 304 305 305 305 306 307 307 309 310 309 309 309 311 309 309 312 312 317 319 319 317 317 318 319 319 321 322 324 330 325
294 293 293 295 295 294 295 298 301 299 302 302 304 305 305 305 304 306 305 306 307 308 309 310 309 309 309 309 309 307 311 317 318 316 318 319 318 319 320 320 322 321 322 322
293 293 293 294 295 294 295 297 299 301 304 303 304 304 305 305 306 305 305 306 306 307 308 308 309 309 309 309 308 310 314 318 318 318 317 316 318 319 319 320 320 321 322 322
294 293 292 293 294 294 295 296 298 299 300 302 303 303 304 306 305 305 306 306 306 306 307 308 309 309 309 310 309 310 312 312 313 316 315 315 315 316 317 317 317 318 318 319
297 295 293 293 294 295 295 296 297 299 300 301 303 305 304 304 305 305 305 306 306 307 307 307 308 308 308 309 309 310 311 312 312 315 312 314 316 315 315 316 317 317 318 320
298 297 296 293 294 294 295 296 297 298 300 301 301 302 303 304 304 305 305 306 307 306 307 307 307 307 308 308 309 309 310 312 313 315 315 315 313 313 314 315 316 316 316 317
298 298 298 296 294 294 294 296 297 298 300 299 300 300 302 303 304 304 305 305 306 306 307 308 308 310 309 310 310 310 310 311 313 315 314 313 312 312 312 313 313 315 315 316
298 298 298 298 293 294 294 295 297 298 300 300 299 300 300 303 304 306 305 305 306 306 306 309 309 309 310 310 310 310 310 310 312 313 313 312 311 314 315 314 315 315 315 315
297 298 297 297 294 292 293 295 295 297 298 298 301 301 301 301 304 305 305 306 306 305 307 309 309 310 309 311 312 312 312 312 313 313 313 312 313 313 314 315 316 313 313 314
297 297 298 297 297 294 294 295 295 296 297 298 298 299 301 303 303 306 305 306 305 304 309 309 309 309 310 309 310 312 312 312 312 312 314 313 311 313 314 316 315 314 314 313
298 297 298 298 298 297 297 297 296 296 297 298 299 298 299 301 303 304 303 305 305 305 307 308 309 310 310 309 310 311 313 311 312 311 312 313 314 314 313 313 313 313 312 312
299 298 299 298 298 298 298 297 298 297 298 298 299 300 301 300 301 304 304 304 304 306 306 308 310 310 309 310 309 309 311 311 313 313 314 313 313 311 312 312 311 311 310 310
300 298 299 299 298 298 298 297 298 298 298 299 300 300 299 302 302 302 303 303 303 304 305 306 308 309 308 309 309 310 309 310 310 310 310 310 310 311 310 310 310 309 308 308
299 299 299 299 298 298 298 298 298 298 299 302 299 300 302 300 300 303 303 304 304 304 304 305 308 307 308 309 309 310 309 309 310 310 311 312 311 308 308 308 307 306 305 304
300 300 300 299 299 298 298 298 298 298 298 301 304 302 302 302 301 302 303 304 304 303 303 305 307 307 308 310 309 308 309 308 306 308 306 306 307 306 302 302 301 302 303 300
300 300 299 299 299 298 298 299 299 298 298 300 302 304 303 303 303 304 304 303 303 303 302 304 306 307 307 309 309 305 303 303 303 302 301 306 303 302 299 298 299 299 298 295
300 300 299 298 298 298 298 299 299 299 299 300 304 305 304 302 303 304 303 300 301 301 303 303 307 307 307 310 301 299 297 299 301 298 298 299 298 297 296 296 295 294 292 289
300 300 298 297 297 298 299 299 299 299 300 303 304 305 305 302 303 303 303 304 305 303 304 305 306 308 306 295 294 294 293 293 293 294 298 296 296 295 293 292 291 291 288 286
299 298 298 298 298 299 299 300 299 299 300 302 304 304 305 303 303 304 304 303 305 307 305 303 306 297 293 292 292 291 291 291 291 293 295 293 293 292 290 288 287 286 284 283
298 299 299 298 298 299 299 299 302 300 304 302 304 303 305 303 305 305 302 305 306 308 306 308 307 299 292 290 290 289 289 289 289 289 289 288 289 289 288 286 284 283 282 281
300 298 298 299 299 300 303 303 302 303 304 302 303 303 303 302 302 305 303 306 306 307 303 306 304 293 290 289 288 287 287 287 287 287 286 286 286 285 284 283 282 281 280 280
299 298 296 299 296 300 304 302 302 303 300 299 300 302 301 300 301 303 305 307 304 301 304 301 294 289 288 287 286 285 285 285 285 284 283 283 282 281 280 280 279 279 279 279
295 296 294 297 297 296 296 298 298 295 296 297 301 302 303 300 301 302 304 299 300 302 302 297 291 287 287 286 285 284 283 282 281 281 280 280 280 279 279 279 279 280 279 279
292 293 295 293 291 291 291 292 294 293 294 297 302 302 301 299 299 298 299 299 299 297 296 291 287 285 285 285 284 283 282 281 281 280 280 279 279 279 278 278 279 279 278 278
288 289 293 291 295 294 292 293 294 291 293 298 301 301 299 296 296 297 295 298 297 292 289 286 285 284 283 283 282 282 282 281 281 280 280 279 279 279 279 279 279 279 278 278
289 289 288 290 290 290 290 290 290 291 296 298 299 298 295 295 295 293 291 291 289 286 284 283 283 283 282 281 281 281 281 281 280 280 279 279 278 278 278 277 276 276 276 276

GFSNW_850_thetae_078.txt.gz
Theta_e
292 293 294 294 295 297 297 298 300 301 302 304 304 306 305 305 306 306 306 307 308 310 311 311 311 312 315 311 311 315 317 316 316 316 316 315 317 318 318 322 326 325 326 328
293 294 293 294 294 296 297 298 298 299 303 304 305 304 304 305 306 305 306 306 307 308 308 309 310 311 311 310 310 311 311 315 318 318 319 317 316 317 319 319 322 325 330 326
293 293 294 293 293 295 295 298 301 298 302 303 304 305 305 305 304 305 305 306 306 307 307 308 309 310 310 309 309 308 309 313 318 321 321 319 320 319 319 321 322 324 326 325
295 294 293 294 293 294 295 297 299 301 304 303 303 304 305 306 305 305 305 306 306 306 307 307 308 309 310 310 309 309 311 315 316 314 318 318 319 321 320 322 322 323 322 323
296 295 294 293 294 294 296 296 298 298 300 302 303 304 304 305 306 306 307 306 306 306 307 307 308 309 309 311 310 310 311 314 313 313 314 317 316 316 316 319 320 318 320 322
297 297 296 294 293 294 296 296 297 298 300 301 302 305 304 304 304 305 306 306 307 306 306 307 308 309 309 310 311 311 312 311 312 313 313 314 317 316 315 316 317 317 317 318
297 298 298 296 294 293 295 296 297 298 300 300 302 302 303 304 304 305 305 305 307 308 307 308 309 309 309 309 310 309 310 311 313 315 314 316 314 314 314 315 315 316 317 318
297 298 298 298 295 293 294 296 297 298 300 300 300 301 302 303 304 305 305 305 306 305 308 308 307 308 309 309 309 309 310 310 313 315 314 313 312 313 312 312 313 315 315 316
298 298 298 299 298 295 294 295 297 297 300 300 299 300 300 302 303 304 305 305 305 304 308 308 307 308 308 309 310 310 310 312 313 314 313 313 312 311 314 314 313 316 316 316
298 298 297 298 298 298 295 295 296 297 298 298 299 301 301 301 302 304 305 305 306 306 307 307 307 308 309 311 311 311 311 312 313 313 313 313 311 314 314 316 317 314 314 315
298 298 297 298 298 298 296 295 296 296 297 298 298 299 299 301 303 305 305 306 306 306 306 307 307 309 310 310 310 312 312 312 313 312 312 313 312 313 314 317 314 314 314 313
298 299 298 297 298 298 297 295 296 296 296 297 299 299 299 300 301 302 303 303 305 306 306 307 308 310 312 310 310 312 313 311 312 311 312 312 314 315 314 313 313 312 312 311
299 299 299 297 298 298 296 294 295 295 297 297 297 299 300 301 300 300 301 304 305 305 304 307 309 310 310 311 310 310 311 311 313 313 312 313 313 313 312 311 311 310 309 309
299 299 300 298 298 298 298 296 295 295 297 297 298 300 299 299 302 302 301 302 303 303 303 303 307 308 308 310 310 310 310 312 312 312 311 311 310 309 310 309 308 307 306 306
299 299 300 299 299 298 298 297 297 297 298 301 301 300 301 301 300 301 303 303 304 304 304 305 306 307 309 310 310 309 310 310 311 314 310 311 308 306 306 305 304 304 304 303
299 299 300 299 299 298 298 297 297 298 298 299 304 302 301 301 302 301 302 303 304 303 303 303 306 307 308 310 310 308 307 306 306 306 304 307 306 302 301 301 301 301 300 297
300 299 299 300 299 298 298 298 299 298 298 300 302 303 303 303 303 302 302 302 304 303 301 302 306 307 307 310 308 303 300 302 302 300 302 306 300 299 297 297 298 297 294 292
299 299 300 300 299 299 299 299 299 298 299 300 302 305 304 303 304 304 304 303 302 302 303 303 306 306 307 308 301 299 297 299 298 297 299 299 298 297 295 295 295 295 291 289
300 300 300 299 298 298 298 299 299 299 299 301 303 305 306 303 303 303 303 302 303 302 305 306 306 307 302 296 295 294 293 294 294 295 297 296 296 294 292 290 290 289 287 286
300 299 298 297 298 298 299 300 299 299 300 302 304 304 305 304 304 305 304 304 305 306 305 305 305 298 294 294 293 292 291 292 291 292 292 292 292 292 289 287 286 285 284 283
298 299 299 298 299 299 299 298 300 299 302 302 304 304 304 304 305 305 304 305 305 306 306 306 305 298 293 291 290 289 289 289 289 289 288 288 289 289 287 285 284 283 282 281
300 299 298 298 299 299 302 303 302 303 304 303 305 304 304 303 303 304 302 304 305 307 304 308 300 293 290 289 288 287 287 287 286 286 286 285 285 285 284 282 281 281 280 280
299 299 297 299 298 303 304 303 304 303 301 300 302 303 301 302 302 303 305 305 305 302 305 299 294 290 288 287 287 285 284 284 284 283 282 282 281 281 280 280 279 279 279 279
297 298 296 299 298 297 296 298 299 296 298 299 302 301 303 300 302 302 305 300 301 304 304 295 290 288 287 286 285 284 282 282 281 281 280 280 279 279 279 279 279 279 279 279
294 295 296 294 293 293 294 295 296 295 296 299 302 302 301 301 300 300 300 301 301 297 294 291 287 286 286 285 284 283 282 282 281 280 280 279 279 279 278 278 279 279 279 279
291 291 295 294 296 295 294 295 295 294 297 299 302 302 299 298 299 298 297 300 297 292 290 287 285 284 283 283 283 282 282 281 281 280 279 279 279 279 279 279 279 279 278 278
290 290 290 293 292 292 292 292 293 295 297 300 301 299 296 297 296 294 291 291 289 287 285 284 283 283 282 282 282 282 281 281 281 280 280 279 279 279 278 278 277 277 276 276

GFSNW_850_thetae_081.txt.gz
Theta_e
292 293 293 293 294 294 295 296 298 299 302 301 302 302 304 304 305 305 306 307 306 307 309 310 310 312 313 309 309 312 312 313 314 312 313 314 316 317 318 323 325 323 326 326
293 293 292 294 294 295 295 297 298 298 300 300 303 304 304 304 305 305 306 306 307 307 307 308 309 310 311 309 309 309 309 312 316 317 318 317 317 317 318 319 320 324 326 328
293 294 294 293 294 294 295 296 293 299 299 300 303 303 304 305 304 304 304 305 305 306 306 306 307 308 311 309 309 307 308 311 314 318 321 317 320 318 318 319 323 321 324 323
294 295 295 294 294 294 295 295 294 299 299 300 302 303 304 306 306 305 305 304 304 305 306 306 306 307 309 310 310 308 309 312 314 314 314 315 319 318 319 321 320 322 322 323
294 295 296 296 294 294 294 296 296 298 299 300 301 302 302 303 303 304 306 307 306 306 305 305 306 309 308 309 311 311 310 310 312 313 313 312 315 317 318 317 319 320 320 321
295 296 297 297 295 294 295 295 296 296 298 299 301 301 303 304 303 303 304 306 307 307 307 306 307 309 309 310 310 310 311 311 311 312 313 315 315 314 315 317 319 319 320 318
296 296 297 298 296 295 293 295 296 297 295 296 299 300 301 303 303 304 304 305 305 307 306 306 308 308 309 309 309 309 310 310 310 310 311 315 316 315 315 315 315 314 315 317
296 297 297 298 297 296 294 293 296 297 292 297 298 299 300 301 302 303 304 304 305 305 305 307 308 306 307 308 309 309 308 309 307 310 312 312 311 313 312 312 313 315 313 316
297 297 297 297 298 297 295 293 294 297 297 296 298 299 299 300 299 301 302 304 305 305 307 307 307 306 307 307 308 308 308 307 308 308 314 311 311 313 314 314 315 315 315 315
297 297 297 298 298 298 297 295 294 296 297 297 297 298 299 300 300 301 303 304 305 305 304 307 304 305 307 308 310 309 308 307 309 309 311 312 312 314 314 315 316 314 313 313
296 297 298 298 298 298 298 296 295 295 297 297 297 298 298 299 300 301 303 302 302 304 301 304 303 303 307 309 310 311 309 309 308 308 309 310 311 313 315 314 313 312 311 311
297 297 298 298 298 298 298 296 296 295 296 297 297 297 296 297 298 300 301 300 302 305 304 303 304 303 305 308 311 310 312 310 309 309 308 312 313 314 312 312 311 310 309 309
298 299 298 298 299 298 298 298 297 296 297 296 296 296 297 299 299 300 300 301 302 304 303 302 305 307 308 308 308 311 311 309 312 310 312 311 310 309 308 308 307 307 307 306
298 299 299 299 299 297 297 298 296 296 295 294 295 296 297 297 300 301 301 300 300 302 303 302 303 307 306 308 307 309 310 311 310 311 310 309 306 305 305 305 305 305 304 303
299 299 299 299 299 298 297 298 297 296 295 297 298 298 299 299 301 299 301 302 301 303 303 303 305 305 306 307 308 310 307 307 311 309 304 306 303 303 303 302 301 302 300 299
299 299 299 299 299 298 297 296 296 296 295 296 298 301 301 301 300 300 301 302 303 303 302 302 303 305 307 304 309 303 301 301 300 300 303 300 299 299 299 299 298 297 297 294
300 299 299 299 299 298 298 298 298 297 297 298 300 299 302 301 302 301 300 302 303 302 302 302 302 305 305 304 306 299 297 300 297 298 301 300 297 296 296 297 294 293 290 289
299 299 299 299 299 298 298 299 299 298 297 298 299 299 302 302 302 302 302 302 302 302 302 302 303 305 305 302 297 295 294 295 295 296 297 297 295 294 293 294 292 290 287 286
300 299 299 299 298 298 298 299 299 297 298 300 298 300 304 303 303 303 301 302 302 302 302 303 304 303 295 295 293 292 292 292 292 293 293 293 292 290 289 288 288 286 285 284
299 299 299 297 298 298 298 299 298 299 299 300 299 302 303 303 303 302 302 302 303 304 303 304 301 296 292 291 290 289 289 290 290 290 290 290 290 288 286 285 284 284 283 282
299 299 299 298 298 298 299 297 299 298 299 300 302 302 303 303 303 303 303 303 302 303 302 302 300 295 291 288 288 287 287 287 288 288 287 287 288 286 284 283 282 282 281 281
299 299 298 298 299 299 300 301 300 300 300 302 300 303 303 303 303 301 301 302 301 303 302 304 295 291 288 287 286 285 286 285 285 285 284 284 284 284 283 282 281 280 280 280
298 299 298 299 297 301 303 299 299 302 301 301 303 301 301 301 302 301 302 302 303 300 302 293 290 288 287 286 285 284 283 283 282 282 281 282 281 281 281 280 280 280 279 279
297 297 293 297 297 294 294 297 298 296 299 301 301 301 300 300 300 298 303 299 299 302 298 289 287 287 286 285 284 283 281 281 280 280 280 280 279 279 279 279 279 279 279 278
294 295 294 292 293 294 295 296 296 296 298 301 301 299 300 296 295 294 295 297 296 293 287 284 285 285 284 284 283 282 282 281 280 280 279 279 279 279 278 278 279 279 278 278
290 291 294 294 294 292 293 294 295 295 299 301 301 299 296 297 296 297 292 296 289 286 285 285 284 284 283 283 282 282 281 281 280 280 279 279 279 279 279 278 279 278 278 278
290 290 290 292 292 292 291 292 293 296 298 295 297 297 296 296 295 289 286 284 284 285 284 284 283 282 282 282 282 281 281 280 280 279 279 279 279 278 278 278 278 278 277 276

GFSNW_850_thetae_084.txt.gz
Theta_e
293 293 293 292 294 294 294 295 296 299 299 298 300 299 303 303 304 304 305 306 307 306 307 307 309 312 310 309 309 311 310 311 314 313 312 312 314 317 318 322 324 321 324 325
293 293 293 294 293 294 294 295 296 297 297 298 299 301 302 302 303 303 304 305 305 305 306 306 308 309 309 309 309 308 308 313 314 316 317 317 318 317 317 318 318 320 323 325
293 294 295 295 294 294 294 295 297 297 297 298 300 303 303 304 304 304 304 304 305 305 305 306 307 307 309 309 309 307 308 309 313 315 316 317 317 316 318 319 322 320 320 321
293 293 294 295 295 294 294 294 294 297 298 300 300 301 304 304 304 305 305 305 305 305 305 305 304 306 308 309 309 308 307 308 311 313 314 313 314 316 317 318 320 323 320 321
293 293 294 295 296 295 294 294 294 296 296 299 300 301 302 302 302 303 304 305 306 307 306 307 308 308 308 308 309 310 309 310 309 310 311 311 313 312 319 317 317 318 319 318
293 294 295 296 296 296 294 294 294 295 295 297 298 300 300 301 302 304 303 304 306 306 307 306 305 306 307 308 309 309 310 310 309 311 311 311 313 314 316 317 317 316 320 318
295 295 296 296 297 297 295 294 295 295 294 295 296 297 298 300 301 302 303 304 305 305 305 305 305 306 307 307 307 308 309 310 310 310 309 311 311 309 311 316 316 317 318 318
294 295 296 296 297 297 296 295 294 296 290 295 296 297 298 299 299 302 302 302 304 305 304 306 305 304 305 306 308 308 307 307 306 308 310 309 307 309 313 312 316 314 316 317
294 296 297 297 297 298 296 296 294 295 296 294 296 298 299 298 298 299 300 303 304 304 304 303 305 306 306 307 307 308 307 306 306 305 310 309 309 311 312 313 317 313 314 315
294 296 297 297 297 297 298 296 296 293 296 296 296 296 297 298 299 298 300 302 303 304 301 305 303 304 306 306 309 308 306 304 308 306 306 308 309 313 313 315 315 311 311 311
294 295 296 297 297 298 298 297 296 294 295 295 297 297 298 298 299 301 300 298 300 303 301 302 303 301 304 306 307 308 309 309 306 306 307 308 311 313 314 312 309 309 309 308
294 294 295 297 297 298 298 298 297 296 294 296 296 296 296 296 296 297 299 299 300 302 305 302 303 301 300 305 307 309 310 310 309 307 306 309 310 311 310 309 308 307 307 306
294 295 297 297 297 298 298 298 298 296 297 295 295 295 296 297 298 297 299 300 300 299 299 301 302 304 306 305 307 310 306 306 310 310 309 308 307 306 305 305 305 304 305 305
296 297 297 299 298 298 298 298 298 297 296 295 295 296 296 296 296 296 299 300 300 300 301 301 302 302 305 304 306 307 307 309 308 309 307 306 304 302 302 301 303 304 302 301
297 297 298 299 299 299 298 297 297 297 296 295 296 297 296 297 298 299 300 299 301 300 302 301 301 302 305 305 306 304 302 304 306 305 300 303 299 300 301 301 300 298 298 297
298 298 299 299 299 298 297 296 296 297 296 295 295 298 298 300 300 299 300 299 300 302 302 301 302 303 304 305 307 298 298 297 297 300 299 298 297 297 297 296 295 295 295 293
298 299 299 299 299 298 296 297 297 297 296 296 297 296 300 302 300 300 300 299 301 302 302 302 301 302 304 303 302 296 294 295 296 299 300 296 296 293 294 295 293 293 290 289
299 299 299 299 299 298 297 299 299 296 296 297 298 295 301 301 301 301 301 301 302 301 301 302 303 303 301 298 295 292 292 294 293 294 294 294 293 293 292 291 290 289 287 285
298 299 299 299 299 298 298 298 298 296 297 297 298 297 298 302 302 301 301 301 301 300 301 302 301 297 293 292 290 289 289 290 290 292 292 292 291 290 289 288 287 287 284 284
299 299 300 296 298 298 298 297 297 297 299 299 299 300 301 301 301 301 301 300 301 302 302 302 296 293 290 289 288 288 288 288 289 289 289 289 288 287 286 285 284 284 283 282
299 298 298 298 298 298 298 297 297 298 298 297 299 301 302 302 302 301 301 302 301 303 301 302 298 293 289 287 286 286 286 286 286 286 286 287 286 284 283 281 281 281 281 281
299 299 298 298 299 298 298 298 298 297 297 299 298 301 302 300 301 301 301 299 302 302 302 296 290 289 287 286 285 284 284 284 284 284 283 282 283 283 282 281 280 280 280 280
299 299 299 298 297 299 299 300 300 299 300 302 302 300 300 301 301 301 300 301 301 300 294 290 288 288 286 285 284 283 282 282 282 281 281 281 281 281 280 280 279 279 279 279
297 295 290 296 290 288 290 294 297 297 299 301 300 299 300 300 298 296 301 295 296 297 290 289 285 285 285 284 283 282 281 281 280 280 280 280 280 279 279 279 279 279 279 278
293 294 289 286 291 293 295 296 296 297 300 301 300 298 299 295 295 294 294 296 293 290 285 281 285 285 284 283 282 282 281 280 280 279 279 279 279 279 278 278 278 278 278 278
291 291 292 293 290 290 293 294 294 296 300 301 300 294 292 292 292 291 288 293 287 283 280 283 284 283 283 283 282 281 281 280 280 279 279 279 279 279 278 278 278 278 277 277
290 289 290 291 291 290 290 291 294 297 298 292 293 293 294 294 289 285 282 279 278 283 283 283 283 283 282 282 281 281 281 280 280 280 279 279 279 279 278 278 277 277 276 275

GFSNW_850_thetae_087.txt.gz
Theta_e
293 292 293 293 293 293 294 294 293 295 295 297 296 295 301 302 302 302 303 305 305 305 306 307 309 311 311 308 310 311 308 311 313 313 312 311 311 314 316 318 320 322 321 322
292 292 293 294 295 294 294 294 295 296 297 298 294 299 300 300 300 301 302 304 305 305 306 306 308 308 308 308 308 308 308 311 312 313 315 315 316 317 316 317 318 320 320 321
291 292 293 294 295 295 294 294 295 295 297 297 298 299 300 303 303 302 304 304 304 305 305 305 306 307 308 309 309 307 307 309 311 309 311 315 316 317 316 317 320 321 320 319
292 292 292 294 294 295 294 294 292 295 296 298 298 298 301 303 303 304 304 305 306 306 305 305 307 307 307 309 309 307 307 308 309 310 311 312 313 314 314 316 317 320 319 320
291 292 293 294 295 296 295 294 293 295 295 296 297 298 301 302 303 303 303 304 305 306 306 307 307 306 307 308 307 309 308 309 308 309 309 309 310 310 312 315 317 318 317 319
292 292 293 295 296 296 295 294 294 294 295 295 296 297 297 299 300 303 303 303 305 304 306 306 305 305 306 306 307 307 308 309 308 310 308 308 310 310 308 317 316 316 318 318
292 294 295 295 296 296 297 294 293 294 293 294 296 296 297 297 299 301 301 302 304 304 305 305 305 305 306 305 305 306 307 308 308 309 308 309 308 307 308 311 317 315 315 316
293 294 294 295 296 297 297 296 294 294 291 295 296 296 297 298 299 299 301 302 304 305 304 304 305 304 304 304 305 306 305 306 305 307 308 307 306 306 310 312 312 314 313 315
293 294 294 296 297 297 297 297 294 294 295 293 295 297 297 297 298 299 300 301 303 304 301 302 305 305 306 306 306 306 305 304 305 304 308 305 306 309 311 312 313 311 314 315
293 293 294 296 297 297 298 298 296 294 294 294 295 295 297 298 298 298 300 299 301 302 301 303 305 305 304 305 307 307 305 305 308 307 308 306 307 310 311 313 312 310 310 310
292 293 294 295 296 297 298 298 297 296 293 293 296 296 295 296 298 297 298 297 297 301 302 302 302 301 303 305 305 307 306 306 305 306 308 308 310 311 311 309 308 308 308 306
293 293 294 294 296 297 297 298 297 296 295 294 296 294 295 297 296 296 298 298 298 300 303 303 303 302 298 304 304 307 303 305 309 307 306 308 307 307 307 307 307 306 305 304
293 294 294 294 295 296 297 298 298 296 295 295 295 294 295 296 296 296 296 298 299 299 299 299 302 302 303 302 303 306 305 303 306 308 309 307 305 303 303 303 300 300 300 301
295 295 295 295 296 297 298 298 298 297 296 296 296 296 296 296 295 296 297 297 298 300 300 300 301 302 302 302 304 306 304 303 306 306 304 302 301 301 300 301 300 300 298 296
297 296 296 297 298 299 298 298 298 297 297 295 295 296 296 296 296 296 295 296 297 300 300 300 301 300 304 303 305 300 299 300 302 304 299 299 296 298 299 301 300 298 295 295
297 297 297 298 299 299 298 297 297 297 297 296 293 296 297 299 297 297 296 297 300 300 301 301 301 302 304 299 302 297 296 296 297 299 297 296 295 295 297 297 295 294 293 292
298 298 299 299 299 299 297 296 296 296 297 296 295 295 299 300 299 298 298 297 299 300 301 300 301 301 303 302 301 294 294 294 294 296 297 296 295 292 292 293 292 292 292 289
298 298 298 299 299 298 297 298 298 296 296 295 296 296 298 300 300 300 299 299 300 300 299 301 302 302 299 297 293 291 292 293 292 293 293 293 292 292 291 291 290 290 288 286
298 299 299 299 298 297 298 298 297 296 297 296 297 296 295 301 300 300 300 300 295 300 297 299 301 298 294 290 290 289 289 289 290 291 291 291 291 290 289 288 287 286 284 284
298 298 298 297 298 298 297 296 296 296 297 298 297 298 299 300 300 300 300 300 295 302 300 301 296 290 289 288 288 287 287 287 288 289 289 288 288 288 287 286 284 284 283 282
298 298 297 298 298 297 297 296 297 297 298 297 298 298 299 300 300 298 300 300 300 302 298 303 295 291 288 287 286 285 285 285 285 285 286 286 286 285 284 283 282 282 281 281
298 299 298 298 298 298 298 297 297 297 297 296 297 300 301 300 300 300 300 300 301 301 299 295 288 288 286 286 285 284 284 283 283 282 282 282 283 283 282 282 281 281 281 280
298 299 298 298 297 298 293 297 298 297 298 298 301 300 300 300 299 299 297 300 298 299 293 288 286 287 285 284 283 282 282 282 281 280 280 280 281 281 280 280 279 280 280 279
298 296 293 296 287 288 289 290 295 297 299 300 300 298 298 299 296 298 301 297 295 293 288 286 284 284 283 283 282 282 281 281 280 280 280 280 280 279 279 279 278 279 278 278
293 293 288 286 290 292 294 295 297 297 299 300 299 297 298 293 294 292 291 293 289 289 286 280 284 284 284 283 282 281 281 280 280 280 280 280 279 279 279 278 278 278 278 278
291 291 292 291 288 290 292 295 295 297 300 299 298 293 291 292 290 290 287 293 290 283 279 283 284 284 283 282 282 281 280 280 280 280 279 279 279 279 279 278 278 278 278 277
289 288 289 290 290 289 290 292 295 297 298 293 291 290 292 291 288 287 283 280 276 281 283 284 283 283 282 282 281 281 280 280 280 280 279 279 279 278 278 278 277 277 276 275

GFSNW_850_thetae_090.txt.gz
Theta_e
293 292 292 293 294 295 294 294 292 294 295 295 297 292 298 298 300 301 301 303 306 306 306 307 311 311 311 309 310 310 309 312 314 314 313 311 311 314 314 313 315 319 320 317
293 292 292 293 295 295 294 293 293 295 296 296 297 296 298 298 299 299 301 303 304 304 305 307 308 308 308 308 307 308 307 311 310 316 315 312 315 315 316 316 315 318 318 316
292 291 291 293 294 295 295 293 293 294 297 297 297 298 298 298 301 300 304 304 304 305 305 306 308 308 308 309 308 307 308 309 308 310 309 313 315 315 315 315 316 318 318 317
292 292 291 292 294 295 294 293 291 294 292 294 296 297 299 302 304 303 303 304 305 306 306 306 307 307 307 307 307 308 307 307 308 309 309 311 311 311 312 315 315 316 314 316
291 291 292 293 294 295 294 294 293 294 294 295 295 296 298 298 299 303 304 303 305 305 306 306 306 305 307 307 306 307 307 309 308 309 308 307 308 308 308 309 311 314 315 316
293 292 292 293 295 296 294 294 294 294 293 294 294 297 296 296 298 300 302 301 304 304 305 305 305 305 304 306 307 306 307 307 307 308 308 307 307 307 306 305 314 315 316 316
294 291 292 294 295 296 295 295 294 293 290 293 295 295 296 297 298 300 300 302 303 304 304 304 304 304 304 305 305 306 307 307 306 308 307 306 306 304 305 309 310 314 314 313
293 291 294 295 295 296 295 296 295 294 288 294 294 295 296 296 298 299 299 301 301 304 303 302 304 303 303 304 304 304 304 305 305 306 308 305 305 307 310 309 308 310 312 313
291 291 294 294 295 296 298 297 296 295 294 291 294 296 297 297 298 298 300 299 302 303 300 302 305 305 305 306 305 304 303 303 304 304 307 304 304 307 309 309 305 309 310 313
291 292 293 294 295 297 296 297 296 295 294 294 295 295 296 297 297 297 299 298 299 301 300 302 304 305 304 305 306 306 305 304 307 306 306 306 305 309 309 308 307 307 306 310
290 291 292 293 294 296 297 297 297 296 294 294 294 294 294 295 296 295 297 297 296 301 301 302 302 301 303 304 304 306 305 305 304 306 307 306 307 309 308 308 306 306 304 302
289 290 292 293 294 295 296 297 297 297 296 296 295 295 294 296 297 297 297 298 297 299 298 300 301 304 299 302 305 305 301 305 308 306 306 306 304 303 303 303 302 303 302 300
290 291 292 293 294 294 296 297 298 296 295 296 295 296 297 296 295 294 296 296 298 298 299 298 301 303 302 302 302 304 301 302 305 305 303 304 302 300 298 299 297 299 300 299
292 292 293 293 294 294 295 296 297 298 296 294 295 296 296 296 296 296 295 296 299 299 299 299 301 302 301 302 303 304 301 302 301 305 302 300 298 297 296 295 296 298 297 296
294 295 295 295 295 295 296 297 297 298 296 295 295 296 297 296 296 295 297 297 297 297 300 301 300 299 302 302 303 298 298 298 298 302 297 298 295 294 294 293 292 293 295 295
297 298 297 296 296 297 297 297 297 298 298 297 293 296 296 298 297 296 296 295 295 296 300 300 300 302 302 300 296 296 296 295 296 297 296 295 294 292 291 293 291 291 291 290
298 297 297 297 298 298 298 297 297 297 297 296 294 294 298 299 297 297 297 296 299 300 299 300 300 300 302 301 301 294 294 293 293 294 295 296 293 291 291 291 290 290 289 288
298 299 299 298 299 298 298 297 297 296 296 295 296 295 298 299 299 298 298 298 298 299 300 300 301 301 300 297 292 291 291 292 292 292 292 291 290 290 289 288 288 287 285 283
298 298 299 298 298 298 298 298 296 295 296 295 296 295 295 300 299 299 299 299 296 299 298 297 299 296 298 289 290 290 289 288 288 290 290 290 289 288 287 286 285 284 281 282
298 298 299 297 298 298 297 296 295 296 296 297 297 297 295 300 298 299 298 298 293 297 297 299 298 289 289 288 288 287 287 287 287 288 289 286 287 286 285 284 283 283 282 281
297 298 298 297 297 297 297 296 296 296 297 296 297 297 297 298 300 298 299 296 293 296 298 299 294 291 288 286 286 285 285 285 285 285 285 285 285 285 284 282 280 281 281 280
297 298 297 297 298 297 297 295 296 296 296 297 297 297 300 300 300 298 298 300 300 299 298 296 290 288 286 285 284 283 284 284 283 283 282 282 283 283 282 281 280 280 280 279
298 298 298 298 297 297 292 295 298 297 295 296 298 300 300 299 299 298 299 299 296 296 292 293 285 287 285 284 283 282 282 282 283 283 283 283 282 282 281 281 280 279 279 279
298 296 295 294 293 288 289 291 290 297 299 298 299 299 299 299 298 298 299 293 295 292 289 288 283 285 283 283 283 282 281 281 281 280 280 280 280 280 279 279 279 279 279 279
293 292 291 287 290 292 294 295 297 297 298 299 299 297 297 290 291 292 290 296 294 290 286 278 283 284 284 283 282 281 281 280 280 279 279 279 279 279 279 279 279 278 278 278
291 290 289 290 292 291 293 295 296 298 299 299 299 294 291 289 287 291 289 294 292 284 278 283 284 283 283 282 281 281 280 280 279 279 279 279 279 279 279 278 278 278 277 277
289 287 289 289 289 289 290 293 294 298 299 287 290 289 290 289 285 286 283 283 279 280 282 284 283 283 282 282 281 281 280 280 279 279 279 279 278 278 278 278 277 277 276 276

GFSNW_850_thetae_093.txt.gz
Theta_e
293 293 291 292 294 295 295 294 291 294 295 296 297 297 297 297 297 297 300 302 303 306 306 308 311 310 309 308 310 311 311 314 315 314 313 313 313 315 315 315 316 315 317 317
293 293 292 292 293 295 295 293 293 294 296 295 295 297 297 297 297 297 299 300 302 303 307 309 311 309 308 309 309 308 310 311 318 316 314 312 314 316 316 316 315 315 318 316
292 292 291 292 294 295 295 293 291 293 295 295 295 297 296 298 299 299 300 304 303 305 307 308 308 309 307 308 310 309 310 310 310 313 312 313 312 311 314 315 314 313 315 314
292 292 292 291 294 295 294 293 290 293 292 294 294 296 296 297 298 303 303 304 305 306 307 307 307 307 308 307 307 309 309 310 310 309 310 311 311 310 310 313 313 314 312 312
292 291 291 291 294 295 295 294 293 293 294 294 294 296 297 297 297 301 303 302 302 305 306 306 306 305 307 307 307 307 308 311 309 308 308 308 308 307 308 309 310 311 312 314
291 293 292 292 294 295 294 295 294 294 293 294 294 296 295 296 297 299 300 301 302 304 304 304 304 304 304 304 307 307 308 308 306 307 308 306 305 307 305 306 307 313 314 314
292 294 292 291 294 296 295 294 294 293 293 293 294 294 295 296 296 298 300 301 302 303 303 303 303 304 304 305 306 306 308 307 308 307 308 305 305 306 306 308 308 312 313 315
294 294 292 293 295 296 296 296 295 294 293 294 294 295 295 295 297 299 300 301 299 301 302 304 304 304 304 304 306 305 306 307 308 307 306 305 305 309 308 308 307 310 311 313
293 292 291 293 295 295 296 295 295 294 294 293 294 295 295 297 298 297 299 298 300 301 301 303 305 305 305 306 306 305 305 305 307 307 305 305 305 307 309 309 306 307 308 315
293 291 290 293 294 294 296 298 296 295 294 294 294 295 296 296 296 296 297 297 298 300 301 305 305 305 304 305 305 306 307 306 306 305 305 306 307 308 307 307 308 305 305 304
293 292 290 292 293 294 296 297 296 297 295 295 294 294 293 294 294 296 296 297 297 299 302 303 304 304 304 304 305 307 306 306 306 305 306 306 305 308 309 308 305 304 302 299
292 291 289 291 292 293 295 296 296 296 295 296 295 295 296 295 295 296 296 297 297 299 299 300 300 302 302 302 306 305 307 307 306 307 308 302 301 301 298 300 299 299 298 297
292 291 289 291 293 293 294 296 296 296 295 295 295 296 296 296 295 295 295 295 297 298 298 298 299 302 302 303 303 304 303 301 305 305 303 299 297 297 295 295 294 294 295 296
291 290 290 292 292 294 294 295 296 296 296 295 295 296 296 296 296 296 295 294 296 298 298 299 299 300 301 303 303 303 301 300 300 304 300 298 295 294 294 294 293 293 293 292
289 291 292 293 293 294 295 295 296 295 297 296 295 296 297 297 296 295 295 295 297 297 297 300 301 300 301 303 302 299 298 298 299 301 296 296 293 292 293 293 292 291 289 289
290 293 294 295 295 295 296 295 295 297 297 297 297 296 296 297 296 295 295 297 296 296 299 300 300 300 302 302 302 296 295 295 294 296 295 293 292 290 290 290 289 289 289 286
292 296 297 297 297 296 295 297 297 297 296 296 296 295 298 297 296 295 295 295 295 297 298 300 299 300 301 302 302 294 294 293 292 293 294 293 291 289 288 288 288 287 286 285
295 297 297 297 296 296 296 297 297 296 296 296 296 296 297 298 298 296 297 296 298 298 299 299 300 301 300 301 293 291 291 292 291 291 291 290 289 289 287 286 286 286 284 283
296 297 298 297 297 297 297 297 295 296 296 295 296 296 298 298 298 298 298 298 298 298 300 299 299 299 300 292 291 290 288 288 288 289 288 288 287 286 286 285 284 283 282 283
296 297 299 298 298 297 296 296 295 296 295 296 297 295 298 299 298 297 297 297 298 298 298 298 300 296 289 288 287 287 286 286 287 289 288 286 285 283 282 282 282 282 281 281
296 297 296 297 297 297 296 296 296 295 297 296 296 296 298 298 300 299 297 297 296 299 299 299 298 295 289 286 286 285 285 284 284 284 283 283 284 282 281 280 280 281 280 280
296 297 296 297 297 297 296 295 296 296 296 296 296 296 298 298 300 299 297 299 298 299 299 299 297 289 286 285 284 284 284 283 283 282 281 281 281 282 281 281 280 280 280 279
297 297 297 297 296 298 295 295 297 297 295 295 296 299 298 299 298 299 299 299 300 297 298 297 289 286 285 284 283 283 282 282 282 281 281 281 280 280 280 280 280 279 279 279
298 297 298 294 293 294 291 294 293 295 296 297 298 297 299 299 298 299 299 297 297 298 296 295 287 285 284 283 282 282 282 281 281 281 280 280 280 280 280 279 279 278 278 278
295 295 296 292 290 291 292 295 295 297 297 299 298 298 298 295 296 294 294 298 299 296 296 286 284 284 283 282 282 282 281 281 282 281 282 281 281 280 280 279 278 278 278 278
292 291 289 290 292 292 294 295 295 297 298 298 299 294 295 293 292 295 296 297 297 291 284 283 284 283 282 282 281 281 281 281 281 280 280 279 279 279 279 279 278 278 277 276
289 287 288 289 289 291 292 295 295 297 298 296 292 292 294 290 289 291 287 290 285 281 283 284 284 283 282 282 281 281 280 280 280 280 279 279 279 278 278 278 278 277 277 276

GFSNW_850_thetae_096.txt.gz
Theta_e
292 294 292 291 293 295 295 295 299 294 295 300 298 300 299 298 299 298 298 301 302 303 304 308 312 313 311 310 311 311 314 313 313 313 314 314 314 314 315 316 318 318 318 319
292 293 292 291 293 295 295 297 296 294 297 299 299 299 299 299 299 300 299 299 300 302 306 309 309 311 309 310 311 311 312 315 317 317 316 315 315 316 316 317 317 318 320 320
292 293 292 291 293 295 295 296 299 297 297 297 298 298 299 300 299 302 302 301 305 306 308 308 310 310 309 308 309 310 311 312 314 316 316 315 316 316 316 316 317 316 317 314
292 292 292 291 293 295 295 296 297 295 299 299 298 297 298 299 300 300 303 305 304 306 306 307 308 307 308 306 307 310 312 311 312 312 312 312 311 310 311 312 312 314 313 313
292 292 291 291 294 295 295 296 297 296 296 297 298 297 299 298 299 301 303 304 305 306 306 306 307 306 307 308 308 308 309 311 309 310 309 308 308 307 308 309 310 311 312 314
291 291 292 292 294 295 295 295 294 296 296 297 298 297 297 297 298 299 301 303 304 306 305 303 304 304 305 306 308 309 308 308 307 310 308 306 307 308 308 309 311 311 313 314
291 292 293 291 293 295 295 294 294 296 298 297 297 297 296 297 297 300 301 302 303 303 302 304 305 306 306 306 308 307 307 306 307 307 306 305 308 308 309 310 311 312 313 315
291 293 295 291 292 295 295 296 295 296 298 297 297 297 297 298 299 300 301 301 300 301 304 306 304 305 307 307 308 307 308 307 307 306 306 306 310 310 309 309 310 310 312 313
293 294 293 292 294 295 295 295 295 295 298 298 296 297 298 299 300 299 300 300 300 302 305 305 306 306 306 306 307 307 307 308 307 307 305 307 310 309 309 310 310 306 307 309
293 293 292 291 293 294 295 296 296 295 297 297 296 298 297 297 297 298 298 298 301 301 306 306 306 306 306 306 306 307 308 308 308 307 307 308 308 309 308 310 311 305 303 300
293 294 292 289 292 294 294 296 296 295 296 297 296 296 297 297 297 299 298 301 300 302 304 304 305 306 306 307 307 308 308 309 309 308 308 309 302 307 309 303 302 302 300 298
292 293 293 291 291 293 294 295 296 296 296 297 296 296 296 296 296 297 298 299 299 300 303 303 302 304 304 304 307 306 308 306 308 306 305 300 297 297 296 297 296 297 297 296
293 293 291 290 289 292 294 295 296 296 295 295 296 298 298 296 296 296 297 297 298 300 298 299 300 303 304 305 304 304 305 303 307 307 301 298 296 295 294 294 293 294 294 294
293 293 291 290 290 292 294 295 295 296 296 297 298 296 297 296 296 296 296 297 297 298 298 300 300 302 303 304 304 304 304 303 302 304 301 299 296 294 293 292 292 291 291 291
293 292 289 289 291 292 294 295 295 295 296 298 298 298 297 297 296 295 296 296 297 299 299 301 302 302 303 304 304 303 299 299 303 302 297 297 294 291 291 290 289 290 291 290
292 290 290 291 293 293 294 296 296 296 295 296 300 298 297 296 297 296 297 297 298 298 299 300 300 301 303 304 303 298 296 296 295 296 295 294 292 291 290 289 289 288 288 287
291 290 292 293 294 295 295 297 297 296 296 296 299 299 298 297 296 296 297 297 298 298 299 300 301 302 302 303 302 297 295 295 294 294 294 293 293 291 290 288 287 286 285 285
290 290 294 296 297 295 296 296 297 296 296 296 299 299 299 297 299 298 298 298 297 299 300 300 301 302 302 303 297 295 294 293 292 292 292 292 290 289 288 287 287 286 285 284
290 295 296 297 297 297 296 297 296 296 296 298 297 300 301 298 299 298 298 299 299 300 300 300 301 302 302 297 296 294 291 292 291 291 290 289 288 287 286 286 285 285 283 282
293 295 297 297 298 297 297 296 295 296 296 297 297 298 301 299 299 299 300 299 301 300 300 299 301 301 292 291 290 289 288 288 289 291 290 289 287 286 284 283 282 281 280 279
294 296 296 297 297 296 296 295 297 297 297 296 297 298 301 299 302 301 299 301 301 301 302 301 301 301 292 289 288 287 286 286 286 286 285 285 285 285 284 282 281 280 279 278
296 297 296 296 297 297 298 298 297 297 298 298 297 297 299 300 299 301 299 300 300 301 300 301 302 293 288 288 286 285 285 284 284 284 283 282 282 282 281 280 279 279 279 279
296 297 297 297 297 300 299 298 299 299 297 297 297 298 299 298 298 299 301 300 301 300 303 303 297 289 287 286 284 283 283 282 281 281 280 280 280 280 280 280 280 279 279 279
296 297 300 299 298 300 300 300 301 299 298 298 298 298 298 298 299 303 301 300 300 302 302 302 292 288 286 284 282 282 282 281 281 281 280 280 280 280 279 279 278 278 278 278
296 297 300 297 296 294 295 297 297 297 297 298 299 299 300 300 301 300 300 300 301 301 302 294 289 285 284 282 282 282 281 280 280 280 280 279 279 279 278 278 278 278 278 278
293 292 294 293 296 295 295 296 297 297 298 299 300 299 300 300 300 299 301 302 303 298 291 287 285 283 282 282 281 281 280 280 280 280 279 279 279 279 279 279 278 278 277 276
291 291 289 292 295 296 294 295 295 297 299 304 300 300 301 297 299 299 296 299 292 287 286 286 284 282 282 281 281 281 281 281 280 280 280 280 280 279 278 277 278 277 277 277

GFSNW_850_thetae_099.txt.gz
Theta_e
293 294 292 291 292 294 297 300 303 298 300 304 302 304 301 301 301 301 302 301 303 303 305 306 309 314 314 312 313 309 311 313 313 313 313 315 314 316 315 318 318 317 320 324
292 293 292 291 292 295 299 301 300 299 300 303 303 302 303 302 303 304 305 304 303 303 307 309 309 309 310 311 313 313 314 314 314 315 315 316 317 317 316 317 318 319 320 323
293 293 293 290 292 295 299 300 303 301 300 300 301 302 303 303 302 303 303 306 306 307 307 306 309 308 309 309 311 311 313 315 313 315 315 314 317 316 316 316 317 317 317 315
292 293 292 291 293 295 298 300 301 299 303 302 301 301 302 302 303 303 304 306 306 307 308 306 306 307 308 309 309 310 313 317 315 315 314 314 315 316 316 316 315 315 315 315
292 293 292 291 293 295 298 296 301 299 300 300 301 301 302 301 301 303 304 304 305 306 306 305 305 306 307 309 308 309 310 311 311 311 313 312 311 310 310 310 311 312 313 318
292 292 291 291 293 296 298 297 297 298 300 300 301 301 299 300 301 302 303 304 305 306 305 304 305 306 306 308 308 309 309 309 310 310 308 309 310 310 309 311 312 313 316 317
291 292 293 291 293 295 298 297 297 298 301 300 299 299 298 299 300 302 303 303 304 303 303 306 307 308 308 308 309 308 309 307 309 309 308 310 310 311 311 312 312 311 312 312
291 292 293 292 292 294 296 296 298 298 300 300 300 299 299 300 300 302 302 302 301 303 305 308 307 308 309 307 308 308 308 309 308 308 310 310 310 310 311 312 312 309 310 311
291 292 294 295 291 293 296 295 296 298 299 301 298 300 300 301 301 301 301 301 302 304 307 307 307 308 308 307 307 308 308 309 310 309 307 310 312 309 309 311 313 308 308 307
291 293 294 293 291 295 295 296 295 297 298 299 299 300 300 299 299 301 301 301 303 304 307 308 307 308 307 308 307 308 308 309 310 309 309 311 305 306 307 312 309 305 303 301
292 294 293 292 292 293 295 296 296 296 297 298 299 299 299 299 299 301 300 303 302 303 306 305 306 307 307 308 307 308 310 311 311 311 309 311 300 307 308 301 299 301 300 299
292 294 294 292 290 293 294 295 296 296 296 298 298 298 298 299 299 299 299 300 301 301 303 304 303 306 306 307 311 307 309 308 308 306 305 300 298 298 296 297 297 297 297 298
291 292 294 293 291 291 293 295 296 295 295 296 298 300 300 299 299 299 299 300 300 301 300 300 301 304 306 306 306 306 307 305 308 305 301 299 298 297 296 296 294 295 296 296
291 292 293 292 291 289 292 295 296 296 296 298 300 298 299 299 299 299 299 299 299 299 300 301 301 303 304 306 306 305 304 304 305 302 300 299 297 295 295 295 295 295 295 294
291 292 293 292 290 289 292 295 296 296 297 299 299 299 300 299 299 299 299 299 299 299 300 302 303 303 304 305 305 305 301 301 304 303 298 298 295 293 292 292 292 293 293 293
291 293 292 289 289 291 294 295 296 296 297 298 300 300 299 299 299 299 299 299 299 299 299 300 302 302 303 304 305 299 298 298 297 297 295 295 293 292 292 292 292 291 291 291
291 292 290 289 291 293 295 297 298 297 297 296 299 301 300 299 299 299 299 299 299 299 299 300 301 302 303 304 304 299 297 298 297 296 296 296 295 294 292 292 290 289 288 288
291 292 290 291 293 293 294 295 297 297 297 296 301 301 301 299 300 300 299 299 298 299 300 300 302 302 303 304 301 299 297 296 295 295 295 294 293 292 291 291 290 290 288 287
292 290 291 292 293 294 295 296 296 296 296 299 299 301 302 300 300 300 300 299 300 300 301 301 302 303 304 299 299 297 295 295 294 293 293 292 291 290 289 289 288 288 286 284
290 291 294 295 297 297 297 297 296 296 296 298 299 300 302 301 301 300 300 300 302 303 302 301 302 302 296 294 293 292 292 291 292 293 292 291 289 288 287 286 285 284 283 281
291 294 295 297 297 296 297 296 298 298 298 298 298 299 302 301 302 303 301 302 302 302 303 302 303 303 294 292 291 290 290 290 289 289 288 288 288 287 286 284 283 282 281 280
293 296 296 296 297 297 299 299 299 298 300 300 299 299 301 301 301 302 301 301 302 302 302 302 303 295 291 290 289 288 288 287 287 287 286 285 285 285 284 283 281 280 279 280
295 296 296 297 298 301 301 300 300 301 300 300 299 301 300 300 300 300 302 301 303 302 303 304 299 292 290 289 287 286 285 285 284 284 283 282 281 281 280 280 280 279 280 280
294 296 300 301 300 301 301 302 303 302 300 299 299 300 300 299 300 303 303 303 301 303 303 304 296 290 288 286 285 283 282 282 281 280 281 281 281 281 280 280 280 280 279 279
294 298 302 299 300 299 299 300 300 299 299 299 300 300 300 301 303 302 303 302 303 303 304 297 291 288 286 285 283 282 281 281 280 280 281 280 280 280 280 279 279 278 278 277
294 296 298 297 299 297 296 298 297 299 299 300 301 301 301 300 301 301 302 303 304 300 295 290 288 286 284 283 281 281 281 280 280 279 279 279 278 278 277 277 278 278 277 277
294 294 293 296 298 298 296 297 297 298 299 304 301 301 301 301 301 301 302 302 296 291 289 288 287 284 282 282 282 282 280 280 280 279 279 278 278 277 278 279 277 277 276 276

GFSNW_850_thetae_102.txt.gz
Theta_e
294 295 293 290 292 294 298 303 306 302 300 306 305 305 303 303 304 304 306 306 306 306 306 308 308 308 311 309 314 314 312 315 313 312 315 315 315 316 316 321 317 321 322 323
293 294 293 291 292 299 302 304 304 302 302 305 304 304 304 304 304 305 306 306 307 307 307 308 309 307 306 310 314 314 315 314 317 314 313 316 316 316 317 318 319 320 322 324
292 293 293 290 292 295 302 303 306 303 303 303 303 303 304 304 303 304 305 306 307 308 309 306 307 307 307 309 311 311 315 315 316 316 315 317 318 318 318 318 319 318 319 318
294 293 293 290 293 295 301 302 304 302 305 304 302 303 303 303 303 303 304 305 305 306 309 306 306 306 308 308 309 310 312 315 315 316 316 315 317 318 317 316 315 318 317 320
293 293 293 290 293 296 301 297 304 302 301 302 302 302 303 302 302 303 304 304 305 305 305 304 306 306 308 309 309 309 310 315 311 314 316 314 313 312 312 312 314 316 319 317
293 293 292 291 294 297 299 299 299 300 302 302 302 302 301 301 301 302 303 304 305 305 303 304 305 307 308 309 310 309 310 311 313 310 310 311 312 311 313 312 311 313 316 315
293 293 292 291 294 298 299 298 298 300 303 302 301 300 300 301 301 302 302 303 304 303 303 306 308 308 309 308 308 308 310 310 311 309 309 315 312 313 312 311 310 309 310 311
292 292 293 292 293 296 298 298 298 300 302 302 301 300 301 301 301 302 302 303 302 303 305 308 309 309 310 308 307 308 308 310 312 314 312 312 312 310 309 313 309 308 309 307
292 292 293 292 291 294 296 298 298 298 300 303 300 300 301 302 301 301 301 302 302 304 307 308 309 308 307 308 308 308 308 311 314 313 311 315 308 305 307 309 309 305 305 304
292 292 293 294 292 293 296 297 296 298 299 300 301 301 300 300 301 301 302 300 303 303 306 308 309 311 307 309 309 309 311 311 312 312 312 309 302 304 305 312 305 303 301 300
292 292 294 293 292 293 295 297 296 297 298 299 300 300 300 300 300 301 300 302 303 303 306 305 305 306 306 308 309 308 308 311 310 310 311 310 300 304 304 300 298 299 300 299
291 293 294 293 290 292 294 296 296 296 296 298 299 298 299 299 300 300 300 301 302 302 303 303 302 305 308 306 310 307 309 307 306 305 304 300 299 298 297 298 297 297 297 298
291 292 294 293 290 291 293 296 296 296 295 297 298 300 301 301 301 301 301 302 301 301 301 301 303 303 306 308 307 307 307 305 306 305 301 299 298 298 297 297 296 297 297 297
291 292 293 293 293 290 292 295 295 296 296 299 301 300 300 300 300 301 301 301 300 300 300 302 303 302 305 306 306 307 305 305 305 302 300 299 296 296 296 296 296 296 296 295
291 291 293 292 292 290 290 294 295 296 298 299 299 299 300 301 301 301 301 300 300 300 300 302 303 303 305 305 306 304 301 300 302 301 298 298 296 294 294 293 293 294 294 294
291 291 293 293 291 289 294 295 296 296 296 298 300 299 301 301 301 301 300 300 300 300 300 301 301 302 304 305 305 300 299 298 298 298 296 296 294 294 294 293 292 292 291 291
291 291 293 292 289 291 295 297 298 297 297 298 299 301 301 300 300 300 300 300 300 299 300 300 301 302 303 305 305 299 298 298 298 296 297 297 295 295 294 293 292 291 290 289
291 292 292 290 290 292 295 296 297 297 297 296 299 301 302 300 300 300 300 299 299 299 299 300 301 302 304 304 300 299 298 297 296 296 296 295 294 294 293 292 292 291 289 287
290 292 291 291 291 293 294 295 295 296 296 298 299 301 303 300 301 301 300 300 301 300 302 302 302 303 304 300 300 298 297 296 296 295 294 293 292 291 290 289 288 287 285 284
291 292 292 293 293 293 295 296 296 297 296 297 300 300 302 301 301 301 300 300 301 303 303 302 303 302 297 296 295 294 293 293 293 294 293 292 291 289 287 286 285 284 283 282
292 292 294 296 296 296 297 296 297 297 299 299 299 300 302 302 302 303 301 303 303 302 304 303 304 302 295 294 293 292 292 291 291 290 289 289 289 288 287 285 283 282 281 280
292 295 295 296 297 297 300 299 299 300 300 300 299 299 301 301 302 303 302 302 303 302 303 303 303 295 293 292 290 290 289 288 288 288 287 286 285 285 284 283 281 281 280 280
293 295 295 296 297 301 301 300 300 301 300 301 300 302 302 302 301 300 302 301 303 303 303 304 299 293 291 290 289 287 286 286 285 285 284 283 282 282 282 282 281 280 280 280
294 295 299 300 300 301 302 303 304 303 301 301 299 300 301 300 300 301 302 303 302 303 304 303 296 291 289 287 286 284 283 283 282 282 282 282 282 282 281 281 280 280 280 280
293 295 301 300 301 300 301 302 301 301 300 299 300 300 301 302 302 302 302 302 303 303 304 297 291 289 287 286 284 282 281 281 281 281 281 281 281 281 281 280 280 280 280 279
294 295 300 299 300 298 298 299 299 299 299 301 301 302 302 301 301 302 303 303 304 300 294 290 288 287 286 284 282 281 281 281 280 280 280 280 280 280 280 280 280 279 279 278
295 296 295 298 300 298 297 298 298 299 301 304 302 302 301 301 300 301 303 302 297 292 290 289 287 285 283 282 281 281 281 281 281 280 280 279 279 279 279 280 279 278 278 278

GFSNW_850_thetae_105.txt.gz
Theta_e
296 294 294 291 292 294 300 303 301 301 303 304 306 299 303 303 304 304 305 305 306 306 306 305 304 305 307 306 309 313 312 313 314 313 313 313 314 315 317 318 322 320 322 319
295 294 294 290 292 296 302 303 304 301 304 297 297 303 304 304 304 304 305 306 306 306 306 303 304 304 305 307 309 311 312 314 315 317 314 313 316 315 315 316 318 321 320 317
294 295 294 291 293 299 301 304 300 303 303 302 303 302 304 304 303 303 304 304 305 305 305 305 304 304 306 307 309 310 312 314 314 316 318 316 317 317 317 317 319 319 320 317
293 293 293 290 293 296 301 302 299 302 298 301 302 302 303 303 302 302 303 304 304 304 307 302 302 305 306 308 309 309 309 313 312 315 315 314 315 316 316 316 318 319 316 315
294 293 292 290 294 299 301 300 303 301 300 302 301 302 303 302 301 301 303 302 303 303 304 302 303 304 306 309 309 309 309 312 312 316 311 313 313 311 311 313 316 316 314 314
294 293 293 291 295 299 300 300 299 300 302 301 300 300 300 300 301 301 301 301 302 303 303 302 303 304 305 307 309 309 310 310 312 314 312 314 314 311 310 309 310 311 312 310
294 294 292 291 296 299 299 298 299 300 298 300 300 300 300 301 301 301 302 302 302 302 302 304 306 308 308 308 309 308 308 309 311 310 312 316 308 308 308 306 306 307 307 304
294 293 292 291 296 298 298 297 298 301 295 301 301 300 302 301 301 300 302 301 301 303 304 305 308 308 308 308 308 308 308 310 311 313 314 313 309 305 305 309 306 304 304 304
293 292 292 291 295 297 298 299 298 298 299 300 301 300 300 299 298 299 301 300 302 302 303 305 309 309 308 310 310 308 309 310 311 312 313 313 305 302 302 305 304 302 300 299
293 292 292 292 292 295 297 297 297 298 298 299 300 299 300 300 299 299 301 300 302 302 299 305 306 309 307 308 309 308 307 307 308 310 311 306 300 301 302 307 303 300 298 296
293 292 292 294 292 293 296 297 296 297 297 298 299 301 301 301 300 297 300 298 300 299 301 302 302 304 305 308 308 308 306 308 305 306 307 304 298 300 301 300 298 298 298 296
292 292 293 293 292 293 296 297 296 296 296 297 299 298 297 299 298 299 300 300 301 301 297 299 300 302 302 305 309 306 306 306 303 303 302 299 298 297 297 297 297 298 298 296
292 292 294 293 291 292 295 296 296 295 296 297 299 300 301 300 301 301 301 300 301 301 301 301 298 302 303 305 307 307 306 305 300 302 300 298 298 297 297 297 296 296 296 296
292 292 294 294 291 290 293 295 295 296 296 296 300 301 300 300 300 301 301 300 301 300 300 300 297 299 303 304 306 304 302 303 303 301 299 297 296 295 295 295 295 295 294 294
292 292 293 293 293 291 291 293 295 296 297 298 297 298 299 301 300 301 301 301 300 300 300 299 299 302 302 303 304 301 299 299 302 299 299 297 295 294 293 293 293 293 293 291
292 291 292 293 291 289 290 291 292 295 296 297 297 299 300 301 300 300 301 300 300 300 300 299 300 302 302 299 299 299 298 298 299 297 296 296 294 294 293 292 291 290 290 289
292 291 292 293 292 290 295 296 297 296 297 297 298 298 301 301 300 300 300 300 300 300 299 300 300 301 302 299 301 298 298 298 297 296 296 295 296 294 293 293 292 289 288 287
291 291 293 292 290 290 295 296 297 297 297 296 297 296 301 300 300 300 300 299 299 299 299 300 300 301 302 301 299 298 297 297 296 296 295 295 294 293 292 291 290 288 287 286
292 292 292 290 290 292 293 295 296 296 296 297 297 298 297 300 301 300 300 300 296 299 296 299 300 296 299 298 299 297 296 296 295 295 294 293 292 290 289 289 288 287 285 284
291 292 291 292 291 292 294 295 295 296 295 295 297 299 296 301 301 301 300 300 297 301 300 301 294 297 296 295 294 294 293 293 293 294 293 292 290 289 287 285 284 283 282 282
292 292 292 294 293 295 295 296 296 295 297 297 298 299 298 301 297 297 300 298 296 299 302 297 297 298 295 293 292 291 291 290 290 290 289 289 288 287 285 284 283 282 282 281
292 293 295 296 295 296 298 295 296 296 297 299 299 299 300 301 302 300 301 297 295 298 301 297 294 295 292 291 290 289 288 288 288 287 286 286 286 285 285 283 283 282 281 281
292 293 295 296 296 298 297 297 296 297 299 301 300 298 301 301 300 298 297 297 294 302 299 298 296 292 290 289 288 287 286 286 286 285 284 284 284 283 283 283 282 281 281 281
293 294 296 296 297 295 295 295 296 301 301 300 300 301 300 299 296 298 300 296 298 296 295 300 293 290 289 288 287 286 285 285 284 283 283 283 282 282 282 281 281 281 280 280
293 294 297 294 299 300 301 301 301 301 300 299 300 299 300 297 295 297 300 298 295 297 300 294 290 289 288 287 286 284 283 283 283 282 282 282 282 281 281 281 280 280 280 279
293 294 295 299 299 298 299 300 300 300 299 299 301 298 298 298 299 299 295 300 301 297 292 289 289 287 286 285 284 283 281 281 282 282 282 281 281 281 280 280 280 279 279 279
294 296 295 295 299 298 298 298 299 299 300 297 299 297 300 297 299 299 299 298 294 291 289 288 288 286 285 284 282 281 281 281 281 281 281 281 281 280 280 280 280 279 279 279

GFSNW_850_thetae_108.txt.gz
Theta_e
296 296 292 292 291 294 295 302 300 299 300 302 298 297 302 303 303 304 304 304 305 304 302 307 304 302 306 305 307 310 310 311 314 314 314 313 314 315 315 315 317 317 319 313
297 296 293 291 292 295 302 304 302 299 304 297 295 300 303 303 302 303 304 304 304 303 301 302 300 302 305 305 306 310 311 314 313 314 315 314 315 315 315 316 315 319 319 313
296 296 293 291 293 297 302 303 299 302 302 301 300 301 303 303 302 302 303 303 302 303 301 304 300 301 304 303 306 309 309 312 312 313 313 310 315 317 316 316 319 316 316 313
296 295 292 291 294 300 302 302 300 302 297 299 300 300 301 302 301 301 301 302 301 302 300 301 301 302 302 305 307 308 309 311 311 314 313 314 313 313 315 318 314 314 313 310
294 294 292 291 294 299 302 301 302 300 299 303 300 300 301 302 300 300 300 300 300 301 302 301 301 301 303 305 306 308 309 311 310 313 311 311 311 309 311 312 312 312 309 306
294 292 292 291 294 301 300 299 299 301 300 299 297 297 299 299 300 300 301 300 300 301 302 301 301 302 303 304 305 308 309 309 312 314 312 312 308 308 307 307 308 309 310 305
294 293 291 293 298 299 299 299 299 299 295 298 298 300 299 300 301 300 300 300 301 301 302 302 305 306 305 306 308 308 309 308 311 312 313 309 306 304 305 304 303 304 305 302
294 293 291 294 299 299 298 298 299 300 293 299 300 300 301 299 300 299 301 299 301 302 301 303 306 306 306 309 309 308 308 309 312 314 313 309 306 302 302 306 304 301 302 301
294 293 291 294 296 298 297 297 298 298 297 298 300 299 299 297 297 297 300 299 301 301 301 303 309 310 307 310 309 307 307 307 311 312 310 310 304 300 300 302 303 300 298 297
293 292 291 294 297 298 297 297 297 297 298 300 300 298 299 300 298 297 298 299 301 301 297 302 304 306 306 309 308 308 306 306 306 308 307 305 299 299 301 306 301 298 296 295
293 292 292 292 296 296 297 296 296 297 297 298 299 300 300 300 299 295 299 297 299 297 298 300 301 304 303 307 307 307 306 307 303 304 304 303 298 299 301 300 298 297 296 295
292 292 292 291 293 295 296 296 296 296 296 297 299 299 297 297 299 298 300 300 300 300 296 297 299 301 301 305 304 306 305 303 302 302 301 298 297 297 297 297 297 297 296 295
292 292 293 293 291 295 296 295 295 295 295 297 299 300 301 299 299 300 300 300 300 300 300 298 297 301 301 305 307 304 305 303 299 299 299 298 296 296 296 296 295 295 295 295
292 293 293 292 291 293 295 295 296 295 296 294 299 300 300 300 300 300 300 300 300 300 300 299 294 298 301 301 305 301 299 301 301 299 297 296 295 294 294 294 295 293 293 293
292 293 293 293 291 291 294 294 295 296 297 296 297 298 299 300 299 300 300 300 300 300 299 295 296 300 301 300 301 300 299 299 301 298 298 297 295 293 292 292 292 292 292 291
292 293 293 293 292 290 291 292 292 295 296 296 294 298 299 301 300 300 300 300 300 299 299 298 299 300 301 298 300 299 298 297 298 296 296 295 294 293 292 291 290 290 290 288
292 292 292 292 290 290 293 295 296 295 296 296 296 296 300 301 300 300 300 300 300 300 299 299 299 300 301 298 299 298 298 297 296 295 295 295 294 292 292 290 289 289 288 287
292 292 293 293 290 293 295 295 296 296 296 296 297 295 300 300 299 299 300 299 299 299 298 299 298 300 301 299 299 298 297 297 296 295 295 294 292 292 291 290 289 288 287 285
291 292 292 290 289 290 294 295 297 296 296 295 296 297 298 300 300 300 300 299 293 298 295 297 299 296 297 297 297 296 296 296 295 294 294 293 293 291 290 289 288 287 286 284
293 292 291 290 289 292 295 295 294 295 295 295 295 297 293 300 300 300 299 299 294 297 298 299 298 297 295 294 293 293 294 295 295 294 291 291 290 289 288 286 285 284 283 283
292 292 292 293 292 294 294 295 295 295 295 296 295 297 297 300 295 294 298 293 293 298 301 296 295 297 293 291 292 291 291 291 292 292 291 290 289 288 287 285 284 283 282 282
291 292 294 293 294 295 296 295 294 295 295 296 297 298 298 300 301 299 300 296 292 297 299 297 290 291 290 291 290 289 289 289 289 288 288 287 287 286 285 284 283 282 282 281
292 293 295 295 294 295 294 292 293 290 297 299 298 296 300 300 299 298 293 292 292 297 297 296 291 291 290 290 290 289 287 287 287 286 285 285 285 284 284 283 282 282 281 281
292 293 294 294 295 295 291 292 292 298 299 300 300 300 300 299 294 297 296 293 295 292 291 297 289 290 290 289 288 287 286 286 285 284 284 284 284 283 283 282 282 281 281 280
293 293 290 294 295 297 298 299 300 301 300 300 300 299 298 291 294 297 298 297 292 293 292 286 291 290 289 288 287 286 285 284 284 283 283 283 282 282 281 281 280 280 279 279
292 292 293 295 298 298 299 300 300 300 299 299 300 295 292 296 295 299 297 298 296 292 289 289 290 289 288 288 286 284 284 284 283 283 282 282 282 281 280 280 279 279 279 278
292 294 295 295 295 298 299 299 300 299 299 294 296 294 294 294 293 298 291 297 292 290 290 290 290 289 287 286 284 283 283 283 282 282 282 281 281 280 280 280 280 279 279 279

GFSNW_850_thetae_111.txt.gz
Theta_e
301 301 296 295 292 293 299 302 301 302 301 302 296 300 301 303 302 303 303 303 303 301 299 303 301 302 305 304 304 306 309 312 311 313 313 312 313 313 314 313 315 316 314 311
299 298 295 292 292 295 301 303 301 300 303 300 297 300 303 302 302 302 303 303 302 299 297 301 299 299 303 302 303 308 309 311 312 310 313 312 314 313 315 315 315 315 315 311
297 296 293 292 293 296 303 303 300 301 303 300 299 301 302 302 302 301 301 302 301 301 299 302 299 299 301 301 303 307 309 311 312 312 312 313 314 315 315 315 316 313 311 309
296 294 292 291 294 302 303 302 300 301 300 300 298 299 300 301 300 300 300 301 300 300 298 300 300 300 300 302 305 306 309 310 311 310 310 308 309 311 316 315 312 311 308 306
296 293 291 292 296 302 302 300 301 299 301 301 298 300 300 301 300 299 299 300 299 299 300 300 301 300 301 302 304 305 309 309 309 311 307 306 306 306 306 311 309 307 305 302
295 292 291 293 298 301 299 300 300 301 298 298 297 298 300 299 299 299 300 300 300 300 300 301 300 300 301 301 303 304 308 309 311 312 311 310 306 305 304 304 304 307 306 302
294 291 291 293 298 301 299 300 300 300 297 298 299 299 299 300 300 299 300 299 299 300 301 301 303 302 301 302 303 304 308 308 311 312 311 308 305 302 304 302 301 303 301 299
293 291 291 293 299 300 299 300 300 300 295 298 299 299 299 299 299 299 300 299 299 301 301 301 305 305 304 308 308 307 307 308 312 313 309 307 305 301 301 304 302 299 301 298
293 291 292 298 299 299 298 299 299 300 298 297 300 298 298 296 297 297 299 298 300 300 299 302 305 308 306 307 308 306 307 305 309 311 309 308 302 299 299 300 303 298 297 296
293 291 294 298 298 297 297 297 298 299 299 299 299 297 298 299 297 296 297 299 300 300 296 300 302 302 305 308 307 307 305 306 305 308 307 304 298 299 300 305 301 297 295 294
293 291 294 296 297 297 297 296 297 298 298 298 300 299 299 299 297 294 297 295 297 295 296 299 299 301 304 306 306 307 304 305 303 304 302 302 297 299 300 299 297 296 295 293
292 291 294 297 297 297 296 296 296 296 297 298 299 299 298 298 298 297 299 299 299 298 295 296 297 300 301 303 307 305 303 301 302 301 299 297 297 296 297 297 296 296 294 293
292 291 292 295 296 296 296 296 295 295 296 296 297 300 300 298 297 298 299 300 300 299 299 297 294 299 300 303 304 303 302 301 299 298 298 297 296 295 295 295 294 295 296 294
292 293 292 292 294 296 295 295 295 296 296 297 300 300 300 300 299 299 300 300 300 300 299 298 292 296 300 302 304 300 299 300 299 298 297 295 294 293 293 294 293 293 294 293
293 293 292 291 294 295 294 295 296 296 297 294 297 299 299 300 300 300 300 300 300 299 298 293 295 298 299 300 300 300 299 299 300 295 296 296 294 292 292 293 292 291 291 290
293 293 292 290 291 294 294 293 295 296 296 296 293 297 300 300 299 300 300 300 300 299 299 297 298 299 300 299 300 299 297 297 297 297 296 295 293 292 291 291 290 289 289 288
293 293 292 291 289 292 291 293 294 294 296 296 294 295 300 300 300 300 300 300 299 299 298 298 298 299 300 297 299 299 297 296 295 295 294 293 293 292 291 290 289 289 288 287
293 292 291 289 292 293 295 295 295 295 296 296 291 296 300 299 299 299 299 299 299 298 297 298 297 299 299 296 299 298 297 296 296 295 296 294 291 291 290 289 288 288 287 285
292 293 292 289 294 294 295 296 296 296 296 295 293 293 299 299 299 299 299 299 292 297 293 295 297 297 296 295 297 297 296 296 294 294 293 292 291 290 289 288 287 286 285 283
292 291 290 289 290 295 295 295 295 295 295 295 294 296 294 299 298 298 298 298 293 296 297 298 298 296 293 293 293 294 294 294 294 293 291 290 290 289 287 286 285 284 283 283
291 291 293 291 294 294 294 294 294 295 294 295 295 295 296 299 294 294 297 291 293 297 298 297 293 295 291 292 293 293 293 293 293 293 293 291 290 289 287 285 284 283 283 282
292 293 292 293 294 294 294 294 294 295 294 295 295 296 297 300 300 298 298 296 292 296 297 299 291 288 290 290 290 291 291 290 289 289 289 289 288 287 286 285 284 283 282 282
294 294 293 294 294 294 293 291 292 292 295 296 297 295 298 300 299 297 296 292 291 296 294 294 288 289 289 290 290 289 288 288 288 287 286 286 286 285 284 283 282 282 281 281
292 293 294 294 293 294 289 290 290 296 298 298 299 298 299 298 293 291 290 290 296 293 291 295 288 290 290 290 289 289 288 287 286 285 285 285 284 283 283 282 282 281 281 280
293 292 288 293 293 295 297 297 297 299 299 299 299 297 297 289 293 296 297 299 294 292 292 285 291 290 290 290 289 288 287 286 285 284 284 284 283 283 282 282 281 280 280 279
291 292 291 294 295 297 297 298 299 298 299 299 299 294 289 290 291 298 298 297 293 290 284 290 291 291 290 289 288 287 286 285 284 284 283 283 282 282 281 280 279 279 279 279
291 292 293 293 293 293 298 299 299 299 299 293 294 292 292 292 297 297 293 293 286 290 291 291 291 291 289 288 287 285 285 284 283 283 283 282 281 281 280 280 280 280 279 279

GFSNW_850_thetae_114.txt.gz
Theta_e
306 307 310 303 304 300 293 298 301 301 302 301 297 300 300 302 302 303 303 302 302 300 297 300 296 299 303 303 302 303 306 311 309 310 309 311 312 313 313 315 314 315 313 307
306 309 306 303 302 297 298 301 301 301 303 299 300 300 302 302 302 301 302 303 301 298 296 294 297 297 301 303 301 305 308 310 311 309 311 311 312 312 312 313 315 313 313 308
303 302 303 301 300 296 302 301 300 300 302 300 300 302 302 302 301 301 301 301 300 299 298 300 296 297 301 301 301 305 307 312 312 309 310 308 309 313 314 315 312 309 308 305
302 304 302 300 294 301 301 301 299 300 301 300 299 301 301 301 301 300 299 300 299 299 297 299 300 300 299 300 304 305 308 311 309 308 306 306 305 309 309 308 308 307 304 302
301 300 299 293 298 302 302 302 300 301 301 300 299 302 300 301 300 298 298 300 299 298 299 299 300 300 299 300 302 303 306 308 309 311 310 309 304 304 304 306 306 304 302 300
299 295 292 294 300 302 300 301 301 301 299 299 299 299 300 301 298 299 299 299 299 299 299 300 300 300 300 299 300 302 306 309 310 312 308 307 304 303 302 302 303 305 303 300
293 293 294 294 301 302 300 301 301 301 299 299 299 300 299 298 298 299 299 299 298 299 300 300 301 299 299 299 300 301 305 309 310 313 310 308 303 301 302 301 299 301 299 297
298 292 293 299 301 302 300 300 301 301 297 298 298 299 298 298 299 299 299 299 298 300 300 301 304 304 304 305 307 306 304 308 311 312 309 306 304 300 300 302 300 298 300 299
291 292 294 299 301 301 300 300 300 300 299 299 299 297 298 297 296 296 298 298 300 299 298 302 304 305 305 306 307 306 305 304 308 309 309 307 300 298 299 300 302 297 295 294
291 293 295 298 300 300 299 300 300 300 299 299 298 297 298 298 296 295 296 298 299 298 295 299 301 301 303 305 306 306 304 305 305 307 306 303 298 298 300 305 300 296 293 292
292 295 298 298 298 299 297 297 299 300 299 299 299 299 299 298 296 292 296 295 296 294 295 298 298 300 302 302 305 306 302 304 303 305 303 303 297 300 300 299 296 295 293 292
292 297 298 298 297 295 295 296 298 300 299 299 299 298 298 297 296 297 298 298 299 297 294 296 296 298 298 303 307 304 304 301 302 300 299 297 296 296 296 297 297 294 293 293
293 296 297 296 296 295 295 296 297 298 298 297 298 300 298 297 297 297 299 299 299 299 299 296 293 298 299 303 303 303 302 300 299 299 297 296 295 295 295 295 296 295 293 293
292 296 296 297 296 296 295 295 296 297 298 298 298 300 299 299 298 299 299 299 299 299 298 297 291 296 299 301 302 300 299 300 299 297 296 294 293 293 293 293 293 294 293 292
291 294 295 296 295 295 295 295 295 297 297 296 298 299 299 299 300 300 300 300 299 299 297 293 294 297 298 299 298 300 298 299 300 299 296 295 293 292 292 292 291 291 290 290
291 291 294 295 295 294 295 295 296 297 298 298 295 298 300 299 299 300 300 300 299 298 298 297 297 297 298 297 299 298 296 296 297 297 296 294 291 291 291 291 290 289 289 287
292 290 291 293 294 294 292 293 295 296 296 297 294 296 300 299 300 299 299 299 299 299 298 297 297 298 300 297 298 298 296 295 295 295 294 293 293 291 290 290 289 288 287 286
292 290 289 291 293 292 295 294 295 296 296 296 292 297 299 300 298 298 299 299 299 298 297 297 296 298 298 296 298 297 296 295 295 295 295 293 292 291 289 289 288 287 286 285
290 290 292 294 295 295 295 295 295 296 296 295 292 295 298 298 298 299 299 298 291 296 292 295 296 294 296 296 298 297 297 295 294 293 293 291 291 289 289 288 287 285 284 283
289 290 290 290 295 295 295 296 295 295 295 295 292 295 298 298 297 296 297 297 292 295 296 297 297 295 293 293 295 295 295 295 294 292 290 290 289 288 287 286 285 284 284 283
291 292 291 295 295 294 294 294 292 294 293 294 294 295 297 298 294 293 296 290 292 296 297 297 293 296 293 291 292 293 294 293 292 293 293 291 290 289 288 286 284 284 283 283
292 292 294 293 293 294 293 294 294 294 294 294 293 295 297 299 299 296 295 294 292 295 297 298 291 287 292 292 292 292 291 291 290 290 291 290 289 287 286 285 284 283 282 282
292 293 294 294 294 292 294 292 293 293 293 294 296 294 298 299 298 296 297 293 290 295 293 292 289 289 290 291 290 290 290 289 288 288 287 287 287 285 284 284 283 282 282 281
293 293 291 290 293 294 288 289 289 294 295 297 298 296 298 297 295 286 289 289 297 296 291 294 285 289 290 290 290 290 289 288 287 286 286 285 284 284 283 282 282 282 281 280
292 292 291 293 293 294 295 296 296 296 297 299 298 296 296 288 291 295 296 299 294 291 291 285 291 291 290 290 290 289 288 286 285 285 284 284 283 283 282 282 281 280 279 279
291 292 291 293 294 296 297 297 297 297 298 299 298 292 288 289 289 292 294 297 291 289 283 291 291 291 291 290 289 287 287 285 285 284 284 283 283 282 281 280 279 279 279 279
291 292 292 292 292 293 297 298 298 298 298 290 293 291 291 291 291 293 292 295 285 289 291 292 291 292 291 289 288 287 286 285 284 284 283 283 282 281 280 280 280 280 279 279

GFSNW_850_thetae_117.txt.gz
Theta_e
303 303 304 307 306 301 304 297 299 296 298 302 301 301 301 302 302 303 303 302 302 302 300 303 300 303 303 302 302 303 305 309 308 309 309 311 311 313 313 314 315 316 311 306
305 304 306 306 304 304 300 299 299 299 300 302 301 301 302 302 302 302 303 303 302 298 300 298 300 300 302 302 301 306 307 309 311 310 310 306 309 310 312 313 314 316 314 308
305 305 308 305 301 304 305 299 301 300 301 301 302 302 303 302 301 301 301 301 301 300 301 300 300 301 301 301 300 304 307 309 309 308 308 308 306 307 311 314 312 306 305 302
306 307 303 305 301 304 302 299 300 301 301 301 301 302 302 302 302 300 300 300 300 300 299 300 301 301 301 300 303 304 307 309 309 309 307 305 305 304 306 306 307 305 303 301
307 303 304 299 307 299 300 299 300 301 300 301 302 303 302 302 299 299 299 301 299 299 300 300 300 300 300 301 301 302 306 308 309 310 310 309 304 303 303 305 304 302 301 299
303 301 303 302 302 299 300 300 300 300 301 301 302 301 301 301 300 299 298 299 300 300 299 299 299 299 299 300 300 301 304 306 309 311 310 308 306 303 302 302 302 304 303 299
301 301 301 300 299 300 301 300 300 300 300 301 301 301 300 299 299 300 299 299 299 298 299 299 299 298 298 299 300 300 305 305 308 312 310 310 305 301 301 300 299 300 298 297
297 298 299 300 299 300 301 300 300 300 300 300 300 300 300 299 299 299 299 298 298 298 299 302 305 305 305 304 303 302 303 306 308 312 310 307 304 300 301 302 300 297 298 298
297 297 299 299 300 301 299 300 301 300 300 300 299 299 299 298 297 297 298 298 299 299 301 304 305 306 305 307 308 306 305 305 307 310 311 310 301 299 299 300 301 296 294 295
295 297 298 299 299 300 300 300 300 300 298 298 298 298 298 297 296 297 296 298 299 298 299 303 304 304 303 306 306 306 304 305 305 305 307 302 298 298 300 304 301 295 293 292
296 297 299 300 300 300 300 300 299 300 298 299 299 299 298 297 296 297 296 298 298 297 299 300 300 303 302 304 305 305 302 303 303 304 305 305 297 300 302 298 295 294 293 292
297 298 299 300 301 299 299 300 300 300 299 298 299 298 297 296 295 297 297 297 298 297 298 298 299 301 301 303 307 303 303 301 301 300 299 297 296 295 296 297 295 294 293 291
298 298 299 299 298 297 297 299 299 299 298 298 298 297 297 296 297 299 299 298 298 298 298 297 299 300 301 304 303 303 301 300 300 299 298 296 295 294 294 295 294 293 292 291
297 297 297 295 294 295 296 299 299 299 298 298 298 298 297 297 298 298 297 298 298 298 298 297 299 301 299 302 301 301 300 300 299 297 296 294 293 293 293 293 293 293 291 290
297 296 296 295 295 295 297 298 298 297 298 298 298 299 299 299 299 299 299 298 298 298 298 298 299 297 300 300 300 299 299 299 300 300 296 296 293 293 292 291 290 290 289 288
296 296 295 294 295 295 296 296 298 299 299 299 298 299 299 300 300 299 299 299 298 298 297 297 296 297 299 300 299 298 296 297 297 297 296 294 293 292 291 290 289 288 288 287
295 295 294 295 295 294 293 295 297 298 298 299 297 299 299 299 299 299 298 299 298 298 297 297 297 298 299 300 299 297 295 295 295 295 294 292 291 290 290 290 289 288 287 286
294 295 294 294 292 294 296 296 296 296 297 298 297 298 299 299 298 298 298 298 298 297 296 296 297 298 298 299 298 295 294 294 294 295 295 294 292 290 289 288 288 287 286 285
291 292 292 292 293 295 295 296 296 296 296 295 294 298 299 298 297 298 298 297 297 296 296 296 298 297 299 298 297 296 295 295 293 292 292 292 291 290 289 288 287 286 285 284
292 291 292 295 295 295 295 296 296 296 295 295 294 294 299 297 296 295 296 296 296 299 298 297 299 297 294 295 297 297 296 295 293 292 289 290 290 289 288 287 286 285 284 283
291 291 294 295 295 294 294 294 294 293 294 294 294 296 299 297 298 297 294 295 295 298 299 299 297 298 294 292 294 295 295 294 293 293 293 292 291 290 288 286 285 284 283 282
293 295 295 294 294 294 293 294 294 294 295 293 294 296 298 298 298 296 295 297 295 299 297 300 298 294 292 291 293 293 293 293 292 292 292 291 290 288 286 285 284 283 282 281
293 294 294 293 293 291 291 293 294 294 292 294 295 295 297 298 298 296 298 296 296 296 298 298 296 290 290 291 292 291 291 290 290 289 289 288 288 286 285 284 283 282 282 281
293 293 291 290 292 292 291 292 292 292 294 296 296 294 297 296 296 291 295 294 297 298 296 298 293 290 291 291 291 290 290 289 288 287 287 286 286 285 284 283 282 281 281 280
292 292 293 292 292 293 294 294 294 294 296 298 296 296 295 291 293 294 296 298 296 296 297 294 291 291 291 290 290 289 289 288 286 286 286 285 284 283 283 282 281 280 279 279
291 292 292 292 293 295 296 295 295 296 298 298 297 293 292 293 293 295 294 297 295 295 291 291 291 291 291 290 290 288 287 286 285 285 284 284 283 282 281 280 279 279 279 279
292 291 292 293 293 293 295 296 296 297 298 294 294 293 293 292 294 295 294 295 293 289 290 291 291 292 291 290 289 288 287 285 284 284 283 282 282 281 280 280 280 280 279 279

GFSNW_850_thetae_120.txt.gz
Theta_e
300 302 302 302 302 303 302 302 300 297 298 300 301 304 303 302 303 303 304 304 305 306 306 305 311 308 306 304 303 308 308 310 311 311 311 309 309 312 314 317 317 317 317 310
300 301 301 301 302 304 302 301 295 297 298 302 303 303 303 303 304 303 304 304 305 304 307 307 306 306 304 304 303 308 309 310 313 312 313 310 308 307 308 311 315 317 318 310
300 300 301 302 302 302 303 300 298 296 296 301 303 305 303 303 303 303 304 304 304 303 304 303 305 306 304 303 302 303 307 310 312 312 310 308 308 306 308 314 318 312 309 304
304 303 301 301 302 302 304 300 301 299 301 300 303 304 304 304 303 303 303 304 303 303 303 304 304 304 303 302 304 306 308 309 311 309 309 310 306 306 307 308 310 312 305 302
314 314 302 301 302 302 304 300 301 300 302 300 304 304 304 303 303 303 303 303 304 303 302 302 303 303 303 302 305 304 308 311 311 311 311 311 307 305 306 307 306 304 303 300
313 314 306 302 302 303 304 302 301 300 300 302 305 305 304 304 302 300 302 303 303 302 302 301 301 301 301 301 302 304 308 308 309 312 312 310 311 304 304 304 303 306 306 301
310 312 304 303 302 304 304 301 301 303 303 304 305 304 303 303 302 301 301 301 302 301 300 300 301 300 300 301 302 303 307 306 307 312 312 315 306 303 303 302 301 302 301 298
305 304 302 302 303 304 304 301 302 303 303 303 302 303 303 301 301 301 301 300 300 299 300 301 305 307 308 308 307 306 305 305 309 312 314 307 305 303 304 305 301 299 300 299
301 301 301 301 302 302 301 300 301 302 303 303 301 302 301 302 301 301 300 299 298 300 302 304 306 307 306 308 309 307 306 306 308 310 312 312 304 301 300 302 305 298 298 298
300 299 299 300 300 300 300 300 300 301 299 300 301 302 302 300 301 301 300 300 300 300 304 306 306 307 306 308 308 308 308 307 308 309 310 305 300 299 299 306 304 298 297 297
299 299 300 300 300 299 300 300 300 300 300 298 300 299 299 299 300 301 299 300 300 301 304 304 305 306 306 307 306 306 305 306 307 307 309 308 298 301 304 299 297 297 296 294
299 299 299 300 300 300 300 301 301 300 300 299 298 298 298 298 297 298 299 301 301 301 303 303 304 305 306 307 307 305 306 305 305 303 302 298 296 296 297 297 296 296 295 293
299 300 299 299 299 300 299 299 299 299 299 298 298 297 296 296 296 297 300 300 300 300 301 303 304 305 305 307 306 305 303 301 302 302 299 297 295 294 295 296 295 294 293 292
299 298 298 299 298 299 299 299 299 299 300 301 298 297 298 298 298 298 298 298 299 299 301 302 304 305 303 304 304 304 302 302 301 299 297 296 294 293 293 293 292 291 291 290
297 299 299 296 297 299 299 299 299 299 300 300 298 298 299 299 297 297 297 298 299 300 301 303 303 303 303 302 303 302 301 301 303 304 297 298 295 292 292 291 290 290 289 288
296 295 295 296 298 299 299 298 299 299 298 299 300 298 299 299 299 299 299 299 299 300 300 301 300 300 303 303 302 300 299 298 299 298 296 295 293 292 290 290 289 288 287 286
295 295 295 296 297 297 296 299 298 298 298 299 300 301 299 299 299 298 299 299 299 300 300 300 300 302 302 302 301 299 297 297 296 295 293 292 291 290 289 288 287 286 285 284
295 295 294 295 295 296 297 297 298 298 298 299 301 301 300 299 299 300 298 299 300 299 299 300 300 301 301 301 299 298 297 296 296 296 295 294 291 289 288 287 287 286 285 283
294 293 294 296 296 296 295 296 296 297 298 299 300 301 301 299 299 300 299 299 300 298 300 300 301 301 301 301 298 298 297 297 295 293 292 291 290 289 288 287 287 286 284 283
293 292 292 295 295 296 296 296 296 296 296 298 300 298 301 299 300 300 300 299 300 301 301 299 301 301 298 299 298 298 297 295 293 292 292 291 290 289 288 287 285 284 284 283
291 295 295 295 295 295 295 297 298 297 299 298 297 299 300 298 301 301 298 301 300 302 302 301 301 302 298 295 297 297 296 294 294 294 293 292 291 289 288 286 285 285 284 283
294 295 294 294 294 295 297 297 296 298 298 297 299 299 299 299 299 300 299 300 300 302 299 301 302 301 295 294 294 294 294 293 292 292 292 291 290 289 288 286 285 284 284 283
294 294 294 296 294 297 297 297 297 298 296 297 298 299 300 299 299 299 299 300 301 299 301 302 302 296 294 294 293 291 292 292 292 291 290 290 290 288 286 285 284 283 282 282
294 295 295 296 296 296 296 296 297 294 297 298 298 297 300 298 299 299 300 299 300 301 301 302 301 294 293 292 290 292 291 290 290 290 289 288 287 286 284 284 283 283 282 281
293 294 296 296 295 295 294 294 295 294 297 298 299 299 299 298 299 299 299 299 300 300 302 302 296 292 290 289 291 291 290 289 288 288 287 286 285 284 284 283 282 281 280 279
293 293 296 295 297 297 296 296 295 296 297 297 299 299 300 299 299 299 300 300 300 302 300 294 290 289 289 291 291 290 289 288 287 286 286 285 284 283 282 281 280 280 279 279
293 294 292 294 295 295 296 296 296 297 299 302 299 299 299 298 299 299 299 300 301 296 292 289 290 290 291 291 290 289 287 286 285 285 284 283 283 282 281 280 280 280 280 279

GFSNW_850_thetae_126.txt.gz
Theta_e
299 298 299 301 300 302 302 303 305 301 301 300 301 307 307 308 310 310 311 309 309 310 310 310 311 309 309 309 309 309 309 312 313 313 313 313 312 313 312 314 313 316 316 314
298 297 300 300 300 302 303 303 299 300 301 304 305 305 306 307 308 310 309 308 307 309 312 310 312 311 309 307 307 310 311 311 313 315 313 312 312 312 311 310 311 313 314 312
297 299 300 300 300 301 302 302 300 298 300 301 306 307 307 307 308 309 308 307 308 308 308 308 309 309 308 306 306 305 309 311 314 317 317 314 313 311 310 310 313 315 316 307
296 298 299 299 300 300 302 302 302 301 300 300 303 307 307 307 308 308 308 308 307 308 307 307 306 307 308 306 305 304 307 312 311 312 312 313 311 309 309 309 310 313 309 306
294 297 298 298 300 300 300 301 304 303 303 302 301 305 309 308 308 308 308 307 307 307 306 306 306 306 307 306 306 305 308 312 309 311 311 312 313 309 308 309 307 307 306 303
295 295 296 298 300 300 301 302 302 303 305 306 304 304 307 308 308 308 307 307 307 307 305 304 304 305 306 306 307 308 311 311 311 312 313 312 314 311 309 309 308 308 310 305
294 297 299 299 299 299 301 301 303 304 307 307 306 305 305 308 308 309 307 306 306 305 304 304 303 304 304 304 305 307 310 310 310 312 314 315 309 308 308 308 307 305 304 302
296 297 299 299 299 299 300 302 302 304 307 306 306 305 305 306 307 308 307 305 304 304 303 304 302 302 302 303 304 304 305 309 310 311 312 310 308 308 308 308 307 305 304 302
298 298 298 299 299 299 300 301 303 303 306 307 305 306 304 308 308 305 304 304 304 304 304 304 302 304 304 304 305 303 305 310 310 311 311 310 308 307 305 306 309 304 303 302
298 299 298 298 299 299 299 301 303 303 304 305 306 307 307 307 307 306 305 303 303 303 305 304 304 307 307 307 309 310 310 310 309 310 309 308 304 303 303 308 307 303 303 302
302 303 303 303 300 299 299 301 302 304 304 305 305 306 305 307 306 306 304 303 303 304 305 304 305 308 310 309 310 309 310 309 310 310 310 310 301 302 306 304 302 301 300 298
303 305 305 305 305 300 300 302 301 303 305 304 305 306 306 306 305 303 302 303 302 302 304 306 307 309 311 308 312 309 310 309 310 306 305 300 299 302 301 301 300 299 296 295
306 310 310 310 306 304 301 302 302 304 301 301 303 303 302 303 302 303 302 302 302 302 304 308 310 308 308 310 310 309 307 305 306 304 300 299 298 299 298 298 297 296 296 294
300 304 308 307 305 301 302 304 302 303 303 303 300 301 301 302 302 303 302 303 303 304 306 307 308 309 308 310 309 309 306 305 304 302 299 298 297 297 296 296 295 295 295 294
301 301 301 301 302 302 303 303 303 303 303 302 301 301 301 301 302 303 303 303 303 304 305 307 307 306 307 306 306 306 305 305 305 307 300 300 297 295 295 294 293 293 292 292
302 302 302 303 303 303 303 301 302 302 301 301 303 301 301 301 302 302 303 303 303 303 303 306 306 306 306 307 307 304 303 303 303 301 299 297 294 294 294 293 292 292 291 290
301 301 301 302 302 303 302 302 302 300 301 301 302 302 301 301 301 301 302 302 302 303 303 303 304 304 305 306 306 302 301 301 299 298 295 294 294 293 293 292 291 290 289 289
300 301 301 301 301 301 301 300 301 301 301 301 303 302 301 301 301 301 301 302 302 303 303 303 304 303 304 304 303 301 300 299 297 297 298 296 295 293 292 291 290 289 288 287
299 299 300 300 300 300 301 302 302 303 303 303 303 303 302 302 301 301 301 302 305 302 304 304 304 305 305 304 301 299 299 298 297 298 296 296 294 292 291 290 290 288 287 286
298 299 298 298 298 298 299 301 300 303 302 302 304 301 302 302 302 303 302 303 304 303 304 302 305 305 302 302 301 299 299 298 298 296 295 294 293 292 291 291 290 288 287 285
296 297 298 298 300 301 302 302 303 303 302 303 302 301 303 301 304 304 302 305 304 303 304 303 303 304 303 301 300 299 299 298 297 297 296 295 293 292 291 290 289 287 286 285
299 298 299 300 301 301 302 301 302 302 301 302 303 302 303 303 302 303 303 302 304 305 303 304 303 304 301 300 299 298 298 297 297 296 295 294 293 292 290 288 287 286 285 285
298 296 296 299 300 302 304 301 302 301 301 302 302 303 302 302 302 303 303 302 304 302 303 303 305 301 301 299 298 297 297 296 296 295 294 293 292 290 289 287 286 286 285 284
299 300 299 302 301 300 301 303 302 300 302 302 302 303 302 301 301 302 302 302 302 303 303 304 303 300 299 298 297 297 296 295 295 294 293 292 291 289 288 287 285 284 283 282
298 298 299 298 297 297 298 299 301 302 302 302 303 303 301 302 300 302 301 301 301 302 304 302 300 298 297 296 296 296 295 294 293 292 291 290 289 288 286 285 284 283 282 281
297 297 299 298 299 298 298 300 302 302 302 302 302 303 303 302 302 302 303 302 303 304 299 297 297 296 295 295 294 293 293 292 291 290 290 289 287 286 284 283 282 282 281 280
297 298 297 298 297 297 298 299 301 302 303 304 303 303 302 302 302 302 304 304 300 297 294 294 294 294 294 293 290 291 290 289 289 288 287 286 284 284 283 282 281 280 280 280

GFSNW_850_thetae_129.txt.gz
Theta_e
299 299 299 299 300 302 302 301 302 302 304 302 302 303 306 306 306 306 309 309 311 309 308 309 307 309 309 308 308 310 309 312 313 311 311 311 312 314 315 311 312 309 312 305
297 298 299 299 300 301 302 302 300 302 302 303 302 302 305 304 305 306 307 309 309 307 307 305 308 309 309 308 309 310 311 310 311 313 313 314 314 311 310 310 308 307 304 301
295 296 298 299 300 301 302 301 299 300 300 302 302 303 304 305 305 305 306 308 308 307 307 308 305 310 310 306 307 306 309 311 312 312 313 313 316 313 310 309 303 306 308 306
295 297 298 298 299 301 301 302 300 300 299 300 302 303 305 304 304 306 306 306 308 307 306 307 306 308 308 307 306 305 307 308 311 311 311 310 312 312 310 310 308 310 308 304
296 295 297 298 299 301 301 301 301 300 302 300 300 301 303 305 306 305 304 307 307 307 306 304 305 306 307 307 307 306 305 306 307 307 308 309 310 308 306 309 307 306 306 302
295 294 295 297 299 300 301 301 301 302 301 300 300 300 302 303 305 306 305 307 306 306 306 306 304 304 304 306 306 305 306 307 309 310 311 313 312 308 306 309 308 308 307 304
295 293 295 295 298 299 301 301 301 301 301 302 302 302 301 302 303 306 307 307 306 306 306 304 304 303 304 306 306 306 308 309 309 310 308 311 308 308 308 309 307 303 301 299
293 293 294 296 295 298 299 301 300 302 302 301 303 304 303 302 302 304 306 307 307 305 304 303 303 303 303 304 305 305 305 308 308 308 309 309 308 307 308 309 307 303 301 298
293 293 294 294 295 296 297 300 301 300 302 302 302 303 304 303 302 303 306 305 305 304 303 303 304 303 303 303 303 304 304 308 306 307 310 308 307 304 304 306 307 304 301 298
293 294 293 293 294 295 297 299 300 301 301 301 304 302 303 304 304 303 305 305 304 304 302 305 304 303 304 306 306 302 303 305 308 307 308 306 303 302 304 307 303 303 302 300
293 292 291 291 294 296 297 299 300 300 301 302 302 303 303 305 304 303 304 303 303 304 303 303 302 304 304 305 309 307 305 308 308 307 308 307 301 302 305 302 300 299 298 298
290 291 294 297 298 298 298 300 299 300 301 303 303 303 304 305 305 305 303 303 302 303 302 302 302 304 305 308 310 309 310 308 307 304 303 299 300 301 301 300 297 296 296 294
295 296 297 297 297 298 298 299 300 300 301 301 303 304 304 306 306 306 303 303 303 302 302 305 305 305 306 307 306 307 306 305 302 300 300 299 299 299 299 299 297 295 294 293
300 301 301 301 300 299 298 299 300 300 301 301 301 303 302 305 304 303 303 303 302 302 302 304 304 305 307 306 306 306 305 303 302 300 299 298 298 298 297 296 295 295 293 292
301 302 302 302 302 300 299 299 300 301 302 301 300 301 302 303 302 303 302 302 303 303 304 303 304 305 305 304 304 304 304 302 299 299 298 297 297 296 295 295 294 294 293 292
308 308 308 304 303 302 300 302 301 301 302 301 301 301 301 302 302 302 303 303 303 303 304 304 305 306 305 302 302 303 303 303 302 300 298 299 296 294 294 294 293 293 292 291
303 307 306 304 303 301 300 301 301 301 302 300 301 301 301 301 301 302 303 302 303 303 303 303 304 305 305 300 302 302 301 301 300 299 298 294 294 293 293 293 292 291 290 290
300 301 301 300 301 302 301 302 302 301 301 301 301 302 301 301 301 302 302 303 302 303 303 302 303 303 304 300 301 301 299 298 298 298 298 295 294 293 293 291 290 289 289 288
301 301 301 301 301 301 301 301 302 302 301 301 301 301 301 301 301 301 302 302 300 302 301 301 302 300 300 301 300 299 298 298 297 297 296 294 293 293 291 290 289 288 287 287
300 301 301 300 301 302 303 302 302 302 303 302 300 301 301 301 301 301 301 302 299 300 301 302 299 300 303 302 300 299 298 298 297 296 295 294 293 291 290 290 289 288 287 286
298 299 299 300 301 301 299 302 301 302 300 302 301 301 301 301 301 300 302 299 299 302 301 300 299 300 299 300 299 299 298 298 297 297 295 293 292 291 291 290 289 288 287 286
299 300 300 301 301 301 299 297 299 298 301 302 300 301 302 302 302 299 301 300 299 303 300 298 299 299 300 300 299 299 299 298 297 296 295 293 292 291 291 290 289 288 287 286
298 296 298 299 300 298 297 297 299 298 300 302 302 300 302 301 302 301 298 299 298 302 296 298 300 300 300 299 298 298 298 297 297 296 295 294 292 291 291 290 289 288 286 285
298 299 295 297 296 299 300 300 299 301 302 302 302 302 300 301 297 297 298 298 299 298 296 302 299 299 299 298 298 297 297 296 295 295 294 294 293 291 290 289 287 286 285 283
297 298 296 297 297 297 299 301 301 302 302 301 301 300 301 296 298 298 298 300 297 299 298 300 298 299 298 298 297 297 296 296 295 294 294 293 292 291 289 287 286 284 283 283
297 297 297 298 296 299 301 301 302 302 302 302 302 299 297 298 297 299 298 300 299 300 298 298 297 297 297 297 296 296 295 295 294 293 292 291 290 289 288 285 284 283 282 282
297 297 296 297 297 298 299 301 302 302 302 297 299 298 300 299 299 300 299 300 298 295 296 297 297 296 296 295 295 295 294 293 293 292 290 289 288 287 285 284 283 282 281 280

GFSNW_850_thetae_132.txt.gz
Theta_e
299 300 300 300 301 301 301 302 298 303 306 304 303 304 303 304 304 306 306 308 309 309 308 307 304 307 308 308 308 309 309 310 309 310 310 310 310 311 313 313 315 310 307 306
298 299 299 300 300 301 301 301 300 303 303 303 303 301 303 303 303 305 306 307 308 306 305 303 305 307 308 308 308 309 309 310 308 309 312 312 314 312 311 310 307 307 304 301
297 297 299 299 300 301 301 300 300 301 302 301 301 301 301 303 304 303 304 305 306 306 307 306 304 309 308 306 307 309 309 309 309 311 312 312 313 313 311 309 304 304 306 301
297 296 297 299 299 300 301 300 297 300 300 301 300 301 302 301 302 303 305 304 305 305 305 306 306 305 308 306 306 305 306 305 309 309 310 310 310 310 311 311 309 308 301 305
297 297 295 296 299 300 301 301 300 299 299 300 301 301 300 302 303 302 304 304 304 304 305 304 303 305 305 306 305 304 304 301 305 306 308 309 308 307 308 310 308 305 306 305
297 297 296 297 298 299 302 301 300 300 299 298 300 300 300 301 301 302 303 303 303 304 305 306 305 304 304 305 305 304 304 303 306 306 307 309 309 307 308 307 307 306 306 303
297 297 296 297 298 298 301 300 301 301 299 298 299 300 299 300 300 302 304 304 303 305 306 305 304 303 303 303 303 305 304 304 306 307 308 306 304 308 308 308 308 303 301 299
296 297 296 296 296 297 299 300 300 300 300 300 300 300 300 300 300 301 301 302 304 306 304 304 305 302 303 303 304 305 305 306 309 308 308 305 307 306 307 308 307 302 300 297
296 296 297 295 295 296 296 299 300 300 300 299 300 301 302 300 298 299 301 302 303 305 302 303 305 305 303 303 303 304 304 305 307 307 308 307 305 304 303 306 306 301 298 295
296 295 296 295 295 295 295 296 299 300 300 300 301 300 300 302 301 300 303 304 304 304 302 304 303 302 303 303 303 303 304 305 306 306 307 306 303 302 303 308 304 301 298 296
293 294 294 294 294 294 296 296 297 298 299 300 300 300 301 302 302 301 303 301 302 303 304 305 302 302 303 303 304 304 304 304 305 305 307 306 301 301 304 300 297 298 298 297
292 293 293 293 293 293 295 295 296 297 299 300 300 300 301 302 302 303 303 303 302 303 301 302 300 302 303 303 304 308 306 306 307 305 303 299 300 301 302 300 298 296 296 295
291 292 292 293 293 293 294 295 296 296 298 299 300 300 301 301 302 303 303 302 304 304 303 302 303 301 302 304 306 308 307 304 301 300 299 299 300 299 299 299 299 297 296 294
291 291 291 292 293 293 292 292 294 297 299 299 300 300 299 301 302 302 304 304 303 302 302 302 302 304 305 305 306 304 304 303 300 300 299 298 298 298 298 297 296 295 293 293
292 292 292 292 292 292 291 292 294 298 299 300 300 301 301 301 302 304 305 304 303 302 303 301 302 303 304 303 303 303 303 301 299 299 298 297 298 297 297 296 294 293 292 291
293 293 292 292 293 293 294 298 297 297 299 300 301 300 301 302 302 303 303 303 303 303 302 302 304 305 305 301 300 302 303 302 302 301 298 298 297 296 295 294 294 293 292 292
298 297 295 294 295 294 296 298 299 296 299 299 299 300 301 302 302 302 303 302 303 303 302 302 304 304 304 298 302 302 301 301 301 300 298 295 295 294 294 294 293 292 291 291
302 300 299 298 297 297 298 298 299 298 300 300 301 301 301 300 300 301 301 302 303 302 302 302 302 303 302 300 301 300 300 300 299 298 297 297 295 294 293 293 292 290 290 289
305 302 300 300 299 299 299 298 300 299 300 299 300 301 301 301 301 301 301 301 300 301 300 300 301 298 301 301 300 299 299 299 298 297 296 295 294 293 293 292 290 289 289 288
302 302 300 299 299 300 300 301 301 300 300 300 298 300 299 301 301 300 301 300 299 300 300 301 299 301 302 302 302 301 299 299 298 296 294 293 292 293 291 290 290 290 288 287
301 300 300 301 301 300 299 299 300 299 300 301 300 301 300 301 301 300 301 299 297 301 300 299 299 301 298 301 301 300 299 298 297 297 296 294 294 292 291 290 289 288 288 287
301 300 300 300 300 299 299 298 298 298 302 299 300 300 301 301 301 299 300 299 297 300 298 297 298 297 300 300 300 298 298 298 297 297 295 294 293 291 290 290 289 288 287 287
298 298 298 299 298 297 296 297 298 300 298 300 301 300 302 301 301 298 296 297 298 298 294 298 297 298 299 299 298 298 298 297 296 296 294 293 292 291 291 290 289 288 287 286
298 296 295 295 296 299 300 299 299 300 300 300 301 300 299 300 296 292 296 296 298 297 295 300 294 298 299 299 299 299 298 297 296 295 294 293 292 291 291 290 289 288 287 286
297 297 295 295 297 298 299 300 301 301 300 301 300 299 299 295 296 296 296 299 297 298 297 296 298 298 299 298 298 298 297 296 295 295 294 293 292 292 291 289 288 287 285 284
297 297 296 297 299 300 300 301 301 301 301 301 301 297 296 296 296 298 295 299 297 296 297 297 298 298 298 297 297 296 296 296 295 294 294 293 292 292 290 288 286 285 284 282
296 296 296 297 298 299 300 301 302 302 301 295 297 297 299 297 297 299 299 296 297 296 295 296 298 298 297 297 296 296 295 295 294 294 293 292 290 289 288 287 285 283 282 280

GFSNW_850_thetae_135.txt.gz
Theta_e
301 301 301 300 301 301 302 302 298 305 305 304 305 304 303 304 304 304 306 307 309 309 307 308 303 307 306 308 308 308 308 306 308 309 309 309 309 311 312 314 314 310 305 307
300 300 300 300 300 302 302 301 301 304 305 301 303 301 303 303 303 304 305 307 307 305 304 304 304 305 307 307 307 307 307 307 307 308 311 311 312 312 311 310 308 311 310 306
299 300 299 300 300 302 302 300 301 302 303 302 300 301 302 303 303 303 303 304 305 306 306 305 304 307 307 306 307 309 309 307 308 308 308 310 311 310 311 310 308 307 307 307
298 299 298 300 300 302 301 300 296 301 302 302 301 300 301 302 301 302 303 304 303 303 304 305 305 304 306 306 306 305 305 304 307 307 308 308 308 308 308 309 309 308 305 307
298 298 297 298 300 301 302 300 298 299 298 301 301 300 300 301 301 301 302 303 303 302 303 304 304 304 305 305 305 303 303 300 301 301 305 305 305 305 306 306 307 309 308 307
297 298 298 297 299 299 302 301 300 299 299 299 300 300 299 300 301 301 302 302 302 302 302 304 305 304 305 304 304 303 303 302 303 305 305 305 306 305 305 307 307 308 308 306
296 297 297 297 297 299 300 300 300 300 296 298 300 299 300 299 300 300 302 301 300 303 303 304 303 303 303 302 302 304 302 303 303 306 306 307 303 306 306 307 308 305 302 298
293 294 296 297 296 297 298 300 300 300 298 299 298 299 299 299 299 300 300 300 301 303 303 303 305 303 303 303 302 302 303 302 305 307 306 304 305 306 307 307 308 303 300 297
291 292 293 297 297 296 297 299 299 300 299 299 299 299 299 297 297 298 300 300 301 302 302 304 306 306 304 303 302 302 303 303 305 307 309 309 303 304 303 305 307 301 298 294
291 292 293 295 297 296 297 298 298 299 299 299 300 298 299 300 299 298 301 303 302 302 303 305 304 303 302 302 302 302 303 305 307 307 307 306 304 303 303 307 304 300 298 295
291 291 292 295 297 296 296 296 297 297 298 299 299 299 300 300 301 299 302 301 302 301 302 302 303 301 301 301 303 304 304 306 305 305 307 305 302 301 304 300 297 298 298 295
291 292 294 296 296 296 296 295 296 297 297 299 299 300 300 301 301 301 301 302 302 302 300 299 299 300 299 301 303 303 304 303 305 305 304 300 300 301 301 299 299 297 297 295
291 292 294 295 296 296 295 295 296 296 297 298 298 298 300 300 300 301 302 302 303 303 303 300 300 302 299 303 301 306 307 305 305 304 300 299 300 299 299 298 299 298 298 296
291 291 293 294 295 296 295 295 295 296 297 297 298 299 299 299 300 300 302 302 302 303 303 300 298 301 303 303 303 304 304 303 302 301 298 298 299 299 297 297 296 296 295 296
291 291 292 293 294 294 294 295 295 295 296 297 298 298 298 299 299 300 301 300 302 303 300 300 301 301 303 302 303 302 303 302 301 301 299 298 298 298 297 297 296 295 295 292
291 291 291 292 293 293 294 295 293 294 295 297 299 299 299 299 299 299 300 299 302 303 300 301 302 302 303 304 302 302 303 303 302 301 299 298 298 297 296 296 294 293 292 291
292 291 291 291 292 293 294 294 293 293 293 296 297 298 300 300 301 302 302 302 303 302 301 301 302 304 304 300 303 303 303 302 302 301 299 296 296 295 295 295 293 291 291 290
293 292 291 291 291 292 293 294 297 296 293 297 299 299 300 301 300 300 301 302 302 301 302 301 301 302 302 301 301 302 301 299 299 298 298 298 296 295 294 294 292 292 291 290
294 293 292 292 293 294 293 293 297 296 296 299 297 299 298 300 300 301 300 300 300 301 298 299 301 299 302 302 300 300 300 299 298 297 297 296 295 294 293 293 292 291 290 290
293 293 295 295 294 293 292 294 295 298 297 298 296 300 300 300 300 299 300 300 299 301 301 300 298 300 302 302 302 302 301 299 298 296 294 294 294 294 292 292 292 291 291 290
295 295 296 295 294 295 295 297 298 299 297 298 299 300 299 300 299 298 301 300 299 301 300 300 299 301 299 303 302 301 300 299 298 298 297 294 293 292 292 292 291 290 290 288
299 299 298 296 297 298 298 299 299 299 298 298 299 300 300 301 300 300 300 299 298 300 296 296 298 298 300 301 301 300 299 298 297 297 296 294 293 293 292 291 290 289 288 287
299 299 298 298 297 297 299 299 299 300 296 299 300 300 301 301 301 298 298 299 298 297 295 298 299 297 298 300 300 299 298 298 297 296 295 295 294 292 292 291 290 289 288 287
297 295 292 295 293 299 299 297 298 299 300 300 300 298 300 300 297 294 298 296 298 300 295 299 292 298 298 299 299 298 297 297 296 296 294 293 292 291 291 290 290 289 288 286
297 296 293 297 296 298 298 299 300 300 300 300 299 298 298 296 298 297 296 298 299 298 297 293 296 298 299 298 298 298 297 296 296 295 294 293 292 292 291 290 290 288 287 286
297 296 296 297 300 299 299 299 299 300 300 300 299 297 298 297 295 297 296 298 297 294 297 295 297 298 298 298 298 298 297 296 295 294 294 293 293 292 291 290 289 288 287 286
296 296 297 298 299 299 299 300 299 300 300 295 296 296 297 296 296 297 296 293 294 295 294 295 297 298 298 298 298 297 296 295 295 294 293 293 292 291 290 289 287 285 284 282

GFSNW_850_thetae_138.txt.gz
Theta_e
302 301 301 300 300 301 301 301 297 303 307 305 304 305 303 304 303 304 305 306 308 308 306 307 303 306 306 307 307 307 307 305 308 307 307 309 307 310 310 308 312 311 307 306
301 301 301 301 301 301 301 301 301 303 305 304 304 302 303 303 303 303 304 305 306 304 304 303 305 305 306 306 306 307 307 306 307 307 308 307 311 311 310 309 306 306 307 305
299 300 301 301 301 301 301 300 301 302 304 301 300 302 302 303 303 303 302 303 304 305 305 304 303 305 307 305 306 307 307 306 307 307 304 308 309 309 308 310 308 304 306 306
298 299 300 301 300 301 302 300 298 301 302 302 299 300 301 302 302 302 303 303 302 304 303 304 304 303 304 306 305 308 306 305 306 306 306 307 307 305 306 306 307 308 307 306
299 299 300 300 300 300 302 300 298 299 298 301 301 301 300 301 302 301 301 303 303 301 300 300 304 304 304 304 304 303 302 299 300 299 304 304 304 302 302 304 304 305 305 306
299 299 299 299 300 300 302 301 299 300 299 300 302 302 299 300 301 301 301 301 301 301 301 302 303 303 303 303 304 303 303 302 301 305 303 304 304 299 302 303 305 306 307 306
297 298 299 298 299 300 300 300 299 299 295 299 300 300 300 299 300 300 301 301 300 302 302 303 303 302 302 301 302 304 303 302 303 306 304 304 300 303 304 305 306 305 302 300
296 297 298 298 297 298 299 299 299 299 296 298 299 299 299 299 299 300 299 300 300 302 300 302 303 303 303 302 300 301 302 301 304 307 305 303 303 303 306 307 307 305 302 296
295 296 297 298 298 297 297 298 299 300 298 297 299 299 298 297 296 297 298 299 300 300 299 300 305 305 304 303 301 301 300 301 302 303 306 305 303 303 303 304 306 301 298 294
292 293 294 295 296 297 297 296 297 298 299 299 299 298 298 299 298 297 299 302 301 300 300 302 304 305 302 303 302 301 302 302 303 303 306 306 303 303 303 306 303 299 299 295
291 291 291 292 292 296 297 296 295 297 298 299 299 299 300 299 299 298 301 299 300 299 303 300 301 301 301 300 301 302 302 305 304 305 307 306 302 301 304 301 298 299 298 296
291 291 291 291 292 293 296 297 297 297 297 298 299 299 299 300 300 301 301 300 301 300 301 299 298 301 298 300 298 301 302 302 304 304 303 300 301 300 301 300 299 298 298 297
291 290 290 290 291 292 295 297 297 297 297 297 297 298 299 299 299 300 300 300 302 302 302 300 301 302 297 299 299 299 304 304 303 304 301 300 300 300 300 300 299 299 298 297
290 290 290 291 291 291 294 296 296 296 297 296 297 297 298 298 300 300 300 301 301 302 302 302 301 302 300 298 299 300 301 304 303 302 300 299 299 300 300 298 298 298 297 296
290 290 291 291 292 293 297 296 296 296 296 296 297 297 297 297 299 299 299 300 300 300 301 301 301 299 301 300 301 302 303 303 303 303 302 300 299 300 299 298 297 296 296 294
290 291 291 292 293 294 296 295 295 295 294 295 292 296 298 299 298 298 298 300 300 300 301 300 301 302 302 302 301 302 303 304 304 302 303 299 299 298 299 297 295 295 294 294
291 291 291 291 293 294 295 295 295 295 295 295 294 296 296 297 299 299 299 300 300 300 300 300 301 302 302 302 303 303 303 303 302 301 300 296 297 296 297 296 294 293 292 291
291 291 291 291 293 294 295 296 294 294 294 294 295 293 299 300 300 300 301 301 301 302 301 300 300 301 302 303 301 303 303 302 300 299 299 299 297 296 294 294 293 291 290 290
292 292 291 291 293 294 294 294 295 294 294 294 296 299 298 299 300 300 301 301 301 301 300 299 301 300 300 301 302 301 302 301 299 297 297 298 297 294 294 294 292 291 290 290
292 292 292 293 294 294 293 293 293 294 294 296 297 298 299 300 299 300 299 299 300 301 298 300 298 300 301 302 302 302 302 301 299 297 294 294 294 293 294 294 292 292 291 290
294 294 293 293 293 293 293 293 293 294 296 296 297 298 299 299 300 299 299 300 300 301 298 299 298 299 300 302 302 302 301 301 300 299 298 297 296 294 293 293 292 292 291 291
294 293 294 294 293 294 293 293 295 297 296 295 296 298 299 300 300 299 299 299 298 298 295 294 297 298 301 301 301 301 300 300 298 297 297 295 294 294 293 292 292 291 290 290
294 295 295 294 294 295 291 294 297 299 297 297 296 296 300 300 300 298 299 299 295 296 294 298 299 297 298 299 300 299 299 297 297 296 295 294 293 292 292 292 291 290 289 288
295 296 293 292 294 294 294 296 295 299 299 298 297 297 300 300 295 293 298 295 297 297 297 300 294 298 298 299 299 298 297 297 297 296 295 294 294 293 292 291 290 289 288 287
296 295 292 294 294 297 298 298 299 299 299 298 298 298 298 296 297 297 296 299 300 298 299 292 295 297 298 298 298 298 297 297 296 295 294 293 292 292 291 290 289 289 288 287
296 296 297 297 298 298 297 297 298 299 299 299 299 298 297 298 298 296 296 298 297 295 293 296 295 297 298 298 298 297 297 296 295 294 293 293 292 292 291 290 289 288 287 286
296 297 297 298 299 299 298 298 299 299 299 295 297 298 299 297 297 297 296 294 292 295 295 294 296 298 298 298 298 297 296 296 295 294 293 293 292 291 291 290 289 288 286 285

GFSNW_850_thetae_144.txt.gz
Theta_e
303 302 301 301 301 302 302 306 308 306 308 305 305 309 311 307 307 306 307 309 310 312 310 310 312 307 308 308 308 309 309 310 309 308 308 309 309 309 311 312 312 314 315 317
303 302 301 301 301 303 301 304 302 304 305 309 308 305 306 306 307 307 307 307 308 308 310 311 307 307 307 307 306 306 309 308 306 306 309 310 311 310 310 310 311 312 314 317
304 302 301 301 300 303 302 302 304 302 305 304 308 307 308 307 304 304 305 306 307 307 307 307 308 307 308 307 306 306 305 306 306 306 306 308 308 308 308 309 313 311 312 313
302 302 302 301 300 301 301 301 304 303 305 305 305 308 307 308 306 305 304 305 306 307 307 307 307 307 308 307 306 306 306 306 307 307 307 307 307 307 307 306 307 309 310 308
301 301 301 302 301 301 300 299 302 302 303 305 306 306 306 307 306 305 305 305 304 306 306 305 305 306 306 305 305 306 307 308 308 308 307 307 306 309 307 307 307 307 307 307
301 300 301 302 301 300 301 300 300 302 303 304 306 307 305 304 304 303 303 304 305 305 305 304 304 304 303 303 305 306 306 306 307 306 305 305 307 309 308 307 306 306 308 308
302 301 302 302 301 301 301 301 300 301 303 304 304 303 303 303 304 303 303 303 304 302 302 302 303 303 303 303 303 303 304 305 305 305 305 306 307 305 305 305 306 307 307 307
301 301 300 301 301 300 301 301 300 300 302 302 303 302 302 302 302 302 302 302 302 302 302 302 302 304 304 304 304 304 304 305 306 306 306 306 306 306 305 306 308 308 308 308
300 300 300 300 301 301 301 300 300 300 301 301 301 301 302 302 303 302 301 300 301 301 301 301 301 301 302 304 306 304 305 306 307 307 308 306 305 305 306 307 308 306 305 306
300 300 299 299 300 301 300 300 300 299 301 300 300 301 301 300 301 301 301 301 300 300 302 303 302 302 303 304 303 306 306 307 308 308 307 306 305 306 306 308 308 305 304 304
299 300 299 299 300 300 300 299 299 299 298 299 299 299 300 299 300 301 302 303 302 302 303 303 302 302 303 303 303 304 305 305 306 306 306 306 306 306 307 307 305 304 304 303
299 298 298 299 298 298 298 298 297 297 298 299 298 298 299 299 300 300 302 303 303 303 304 303 304 305 304 304 304 304 304 304 305 305 306 307 306 305 305 305 304 304 303 302
297 297 298 298 298 298 298 298 297 297 296 296 298 299 299 299 299 299 301 302 303 303 304 304 304 305 305 304 304 304 305 304 306 306 307 305 304 305 304 304 303 302 301 301
296 296 296 296 296 296 296 296 297 298 297 298 298 297 300 299 299 299 300 302 301 302 302 302 303 303 303 304 304 304 304 305 305 306 305 305 305 305 305 304 301 300 299 298
293 293 293 293 293 295 294 293 295 296 298 299 298 297 297 298 299 300 300 300 301 301 301 302 302 301 302 302 303 304 304 305 307 307 305 305 306 305 303 303 300 298 297 296
292 292 291 292 292 293 294 293 292 294 295 297 299 298 298 297 298 299 300 299 300 301 301 301 301 300 301 302 304 302 302 303 303 304 304 304 303 302 302 301 299 297 296 295
292 292 292 292 292 292 294 295 295 293 294 296 298 298 297 299 299 299 299 299 300 300 300 300 300 300 300 302 304 302 302 302 302 301 303 302 302 302 300 298 296 296 294 293
291 291 291 291 291 292 293 294 294 293 294 296 298 299 298 299 299 299 299 299 299 299 299 300 300 300 300 301 300 300 300 301 301 302 303 303 301 300 298 297 295 294 293 291
290 290 290 291 292 292 294 293 295 295 295 296 297 299 299 299 299 299 299 299 301 299 301 301 300 301 303 301 300 300 301 302 303 303 301 300 300 299 297 295 294 294 292 291
290 291 292 293 293 293 293 294 294 294 294 296 297 297 300 299 299 300 300 298 301 302 301 300 301 303 300 300 300 300 301 303 303 301 299 299 299 298 296 295 295 293 291 290
291 292 293 293 293 293 294 294 296 295 296 295 297 297 300 300 301 301 299 301 302 302 303 303 303 303 303 302 301 301 301 302 302 302 301 300 299 298 296 295 294 292 290 290
292 293 294 293 294 293 295 296 295 296 297 296 297 297 297 299 300 301 300 301 302 303 302 303 303 304 302 302 303 303 303 303 301 300 300 300 299 297 295 294 292 291 292 291
293 294 293 294 294 295 295 295 295 296 297 297 297 299 298 299 299 300 302 303 303 300 302 303 304 304 301 300 299 299 299 299 298 298 299 298 296 295 294 293 294 293 292 291
293 293 294 295 295 294 295 295 297 297 299 297 298 299 298 298 300 302 301 302 301 303 303 303 305 300 298 298 298 297 297 297 298 298 297 296 296 295 294 293 293 293 292 291
293 294 294 295 295 296 296 296 296 297 298 298 298 299 299 300 300 301 300 301 301 302 303 304 300 297 297 297 296 297 297 297 297 296 296 295 294 293 293 292 292 292 291 290
294 295 297 296 298 299 296 295 296 297 298 299 298 300 301 300 301 301 301 301 302 303 303 299 297 296 296 297 297 297 297 296 296 295 294 294 293 293 293 292 291 290 289 289
295 298 296 297 298 298 297 297 296 297 298 301 299 299 299 300 301 301 302 302 303 300 298 296 295 296 297 297 296 296 296 295 295 294 293 293 292 292 291 290 289 289 288 287

GFSNW_850_thetae_147.txt.gz
Theta_e
304 304 303 303 302 302 302 304 308 307 309 307 305 310 313 310 311 309 310 312 313 314 313 313 315 312 311 310 310 310 310 311 310 309 311 310 310 310 309 311 311 314 316 320
302 304 303 303 302 301 303 304 306 305 307 309 309 308 310 310 311 310 310 311 312 312 313 315 312 310 309 309 309 307 310 307 308 307 309 310 311 311 311 312 312 313 316 319
302 303 303 303 301 301 304 303 306 303 304 307 310 312 311 311 309 310 308 309 309 311 311 309 311 309 309 308 306 306 304 305 307 308 308 308 309 310 310 310 315 313 314 312
302 304 302 303 301 301 302 303 307 306 305 305 308 309 309 309 309 308 307 308 308 308 309 309 308 307 309 308 306 306 307 307 307 307 308 308 307 308 308 308 308 309 311 308
302 303 303 303 301 301 302 303 305 305 307 306 308 309 310 311 310 309 308 308 308 308 307 307 306 307 308 307 307 307 307 308 308 309 307 306 307 309 307 307 307 308 308 308
300 302 303 302 301 301 301 303 302 304 304 308 307 307 309 309 308 307 307 307 308 307 307 306 307 306 306 306 306 307 308 308 308 308 306 306 307 312 310 307 307 307 308 308
298 301 302 301 300 301 301 303 301 302 305 304 308 308 307 307 308 306 305 305 306 305 305 305 305 305 305 305 305 305 307 307 307 307 306 306 309 308 307 307 307 307 308 310
298 300 300 300 301 301 301 302 301 301 305 303 304 304 306 305 304 304 304 304 304 304 304 304 304 304 304 304 304 305 305 305 306 307 307 307 307 307 308 307 307 308 309 308
298 300 300 300 300 300 301 302 302 302 302 304 303 304 304 304 304 304 303 303 304 304 304 303 303 303 304 304 306 305 304 306 307 307 307 307 307 307 307 307 307 308 307 308
299 300 301 300 300 300 301 301 301 302 303 302 302 303 304 303 303 304 303 303 303 303 303 304 303 303 303 304 305 307 307 307 307 307 308 308 307 307 307 307 310 308 307 306
300 299 300 300 301 301 301 300 300 300 300 302 302 301 302 302 302 303 302 303 303 303 304 303 303 303 304 304 305 305 306 307 308 307 308 308 306 307 306 307 307 307 306 306
299 300 299 300 301 301 301 300 300 300 300 300 301 302 302 301 301 301 303 303 303 303 303 304 304 304 305 304 306 305 307 306 306 306 307 307 307 307 306 306 306 306 306 306
299 299 299 299 300 301 301 299 299 299 298 299 300 301 300 300 301 301 303 303 304 304 305 306 307 306 306 306 305 305 305 304 308 307 307 306 305 305 305 306 307 306 305 305
299 299 299 299 299 300 300 298 298 299 299 300 300 301 301 301 301 301 302 303 304 304 304 304 306 305 304 305 306 307 306 306 307 307 306 306 305 306 307 307 306 305 304 302
299 299 298 298 298 298 299 298 299 300 300 301 300 299 300 301 301 301 302 302 303 303 303 304 305 303 303 304 305 305 304 306 308 309 306 306 306 306 306 306 306 304 302 301
298 297 297 297 297 297 297 297 297 298 300 300 301 300 300 300 300 301 301 301 302 302 302 302 302 301 302 304 304 303 303 303 303 305 304 305 305 306 305 305 304 302 301 300
295 295 296 295 295 296 297 298 297 297 296 300 300 300 300 300 300 300 300 301 301 301 301 302 302 302 301 304 305 302 302 302 302 303 304 304 303 304 305 303 302 300 299 299
292 292 292 293 295 295 296 294 295 296 297 299 301 301 300 300 300 300 300 300 300 301 300 301 302 301 302 304 302 302 301 301 301 301 302 302 303 305 304 302 300 298 298 297
292 292 292 293 295 295 295 294 294 295 297 298 300 301 301 300 300 300 300 300 302 300 302 302 301 302 304 302 301 301 301 301 301 302 303 304 305 304 303 301 299 298 297 295
291 292 294 292 294 294 293 294 293 294 296 298 300 298 302 299 299 300 300 299 301 301 302 301 303 305 302 301 301 301 301 301 301 302 304 305 303 303 302 300 299 298 296 294
293 292 294 293 293 294 295 295 295 296 297 297 298 298 301 299 301 301 299 301 302 301 302 303 303 304 305 302 302 302 302 302 301 302 304 304 303 303 301 299 297 296 294 292
292 293 293 293 294 295 296 297 297 298 297 298 299 298 299 299 300 300 301 301 302 302 303 304 303 304 304 304 304 304 304 304 304 303 304 303 302 302 300 298 296 295 293 291
293 294 294 295 295 296 296 295 297 298 299 298 298 301 299 300 300 300 301 301 303 302 304 303 303 303 304 304 303 302 302 303 304 304 303 301 300 299 298 296 295 293 291 291
294 294 295 295 296 296 296 297 298 297 299 299 299 299 299 299 300 302 302 301 302 302 303 303 305 305 302 301 300 300 299 301 301 300 300 298 298 297 295 294 294 293 291 291
294 294 294 295 295 296 296 297 298 298 299 299 299 299 299 300 300 299 299 301 302 302 302 305 306 300 299 298 298 298 297 298 298 298 297 296 295 294 293 293 293 292 292 291
295 295 296 295 297 299 298 298 298 298 299 298 298 299 300 300 300 300 299 299 300 302 304 304 301 298 297 297 297 297 297 296 296 295 295 294 294 293 293 292 292 292 291 291
295 297 297 298 296 298 298 298 298 299 299 301 298 298 300 301 301 300 301 302 304 304 303 299 298 296 297 297 297 296 296 296 295 295 294 293 293 293 292 292 291 290 290 289